[[{"header":{"parameterUnit":"m.s-1","parameterCategory":1,"la1":30.6,"la2":28.766,"lo1":-90.7593,"lo2":-88.6598,"dx":0.0162,"dy":0.0183,"nx":116,"ny":114,"refTime":"2022-12-15T18:00:00:Z","depth":0,"parameterNumber":2,"parameterNumberName":"U-component_of_WINDS"},"data":[0.0,0.0,0.0,0.0,0.0,0.0,0.0,0.0,0.0,0.0,0.0,0.0,0.0,0.0,0.0,0.0,0.0,0.0,0.0,0.0,0.0,0.0,0.0,0.0,0.0,0.0,0.0,0.0,0.0,0.0,0.0,0.0,0.0,0.0,0.0,0.0,0.0,0.0,0.0,0.0,0.0,0.0,0.0,0.0,0.0,0.0,0.0,0.0,0.0,0.0,0.0,0.0,0.0,0.0,0.0,0.0,0.0,0.0,0.0,0.0,0.0,0.0,0.0,0.0,0.0,0.0,0.0,0.0,0.0,0.0,0.0,0.0,0.0,0.0,0.0,0.0,0.0,0.0,0.0,0.0,0.0,0.0,0.0,0.0,0.0,0.0,0.0,0.0,0.0,0.0,0.0,0.0,0.0,0.0,0.0,0.0,0.0,0.0,0.0,0.0,0.0,0.0,0.0,0.0,0.0,0.0,0.0,0.0,0.0,0.0,0.0,0.0,0.0,0.0,0.0,0.0,0.0,0.0,0.0,0.0,0.0,0.0,0.0,0.0,0.0,0.0,0.0,0.0,0.0,0.0,0.0,0.0,0.0,0.0,0.0,0.0,0.0,0.0,0.0,0.0,0.0,0.0,0.0,0.0,0.0,0.0,0.0,0.0,0.0,0.0,0.0,0.0,0.0,0.0,0.0,0.0,0.0,0.0,0.0,0.0,0.0,0.0,0.0,0.0,0.0,0.0,0.0,0.0,0.0,0.0,0.0,0.0,0.0,0.0,0.0,0.0,0.0,0.0,0.0,0.0,0.0,0.0,0.0,0.0,0.0,0.0,0.0,0.0,0.0,0.0,0.0,0.0,0.0,0.0,0.0,0.0,0.0,0.0,0.0,0.0,0.0,0.0,0.0,0.0,0.0,0.0,0.0,0.0,0.0,0.0,0.0,0.0,0.0,0.0,0.0,0.0,0.0,0.0,0.0,0.0,0.0,0.0,0.0,0.0,0.0,0.0,0.0,0.0,0.0,0.0,0.0,0.0,0.0,0.0,0.0,0.0,0.0,0.0,0.0,0.0,0.0,0.0,0.0,0.0,0.0,0.0,0.0,0.0,0.0,0.0,0.0,0.0,0.0,0.0,0.0,0.0,0.0,0.0,0.0,0.0,0.0,0.0,0.0,0.0,0.0,0.0,0.0,0.0,0.0,0.0,0.0,0.0,0.0,0.0,0.0,0.0,0.0,0.0,0.0,0.0,0.0,0.0,0.0,0.0,0.0,0.0,0.0,0.0,0.0,0.0,0.0,0.0,0.0,0.0,0.0,0.0,0.0,0.0,0.0,0.0,0.0,0.0,0.0,0.0,0.0,0.0,0.0,0.0,0.0,0.0,0.0,0.0,0.0,0.0,0.0,0.0,0.0,0.0,0.0,0.0,0.0,0.0,0.0,0.0,0.0,0.0,0.0,0.0,0.0,0.0,0.0,0.0,0.0,0.0,0.0,0.0,0.0,0.0,0.0,0.0,0.0,0.0,0.0,0.0,0.0,0.0,0.0,0.0,0.0,0.0,0.0,0.0,0.0,0.0,0.0,0.0,0.0,0.0,0.0,0.0,0.0,0.0,0.0,0.0,0.0,0.0,0.0,0.0,0.0,0.0,0.0,0.0,0.0,0.0,0.0,0.0,0.0,0.0,0.0,0.0,0.0,0.0,0.0,0.0,0.0,0.0,0.0,0.0,0.0,0.0,0.0,0.0,0.0,0.0,0.0,0.0,0.0,0.0,0.0,0.0,0.0,0.0,0.0,0.0,0.0,0.0,0.0,0.0,0.0,0.0,0.0,0.0,0.0,0.0,0.0,0.0,0.0,0.0,0.0,0.0,0.0,0.0,0.0,0.0,0.0,0.0,0.0,0.0,0.0,0.0,0.0,0.0,0.0,0.0,0.0,0.0,0.0,0.0,0.0,0.0,0.0,0.0,0.0,0.0,0.0,0.0,0.0,0.0,0.0,0.0,0.0,0.0,0.0,0.0,0.0,0.0,0.0,0.0,0.0,0.0,0.0,0.0,0.0,0.0,0.0,0.0,0.0,0.0,0.0,0.0,0.0,0.0,0.0,0.0,0.0,0.0,0.0,0.0,0.0,0.0,0.0,0.0,0.0,0.0,0.0,0.0,0.0,0.0,0.0,0.0,0.0,0.0,0.0,0.0,0.0,0.0,0.0,0.0,0.0,0.0,0.0,0.0,0.0,0.0,0.0,0.0,0.0,0.0,0.0,0.0,0.0,0.0,0.0,0.0,0.0,0.0,0.0,0.0,0.0,0.0,0.0,0.0,0.0,0.0,0.0,0.0,0.0,0.0,0.0,0.0,0.0,0.0,0.0,0.0,0.0,0.0,0.0,0.0,0.0,0.0,0.0,0.0,0.0,0.0,0.0,0.0,0.0,0.0,0.0,0.0,0.0,0.0,0.0,0.0,0.0,0.0,0.0,0.0,0.0,0.0,0.0,0.0,0.0,0.0,0.0,0.0,0.0,0.0,0.0,0.0,0.0,0.0,0.0,0.0,0.0,0.0,0.0,0.0,0.0,0.0,0.0,0.0,0.0,0.0,0.0,0.0,0.0,0.0,0.0,0.0,0.0,0.0,0.0,0.0,0.0,0.0,0.0,0.0,0.0,0.0,0.0,0.0,0.0,0.0,0.0,0.0,0.0,0.0,0.0,0.0,0.0,0.0,0.0,0.0,0.0,0.0,0.0,0.0,0.0,0.0,0.0,0.0,0.0,0.0,0.0,0.0,0.0,0.0,0.0,0.0,0.0,0.0,0.0,0.0,0.0,0.0,0.0,0.0,0.0,0.0,0.0,0.0,0.0,0.0,0.0,0.0,0.0,0.0,0.0,0.0,0.0,0.0,0.0,0.0,0.0,0.0,0.0,0.0,0.0,0.0,0.0,0.0,0.0,0.0,0.0,0.0,0.0,0.0,0.0,0.0,0.0,0.0,0.0,0.0,0.0,0.0,0.0,0.0,0.0,0.0,0.0,0.0,0.0,0.0,0.0,0.0,0.0,0.0,0.0,0.0,0.0,0.0,0.0,0.0,0.0,0.0,0.0,0.0,0.0,0.0,0.0,0.0,0.0,0.0,0.0,0.0,0.0,0.0,0.0,0.0,0.0,0.0,0.0,0.0,0.0,0.0,0.0,0.0,0.0,0.0,0.0,0.0,0.0,0.0,0.0,0.0,0.0,0.0,0.0,0.0,0.0,0.0,0.0,0.0,0.0,0.0,0.0,0.0,0.0,0.0,0.0,0.0,0.0,0.0,0.0,0.0,0.0,0.0,0.0,0.0,0.0,0.0,0.0,0.0,0.0,0.0,0.0,0.0,0.0,0.0,0.0,0.0,0.0,0.0,0.0,0.0,0.0,0.0,0.0,0.0,0.0,0.0,0.0,0.0,0.0,0.0,0.0,0.0,0.0,0.0,0.0,0.0,0.0,0.0,0.0,0.0,0.0,0.0,0.0,0.0,0.0,0.0,0.0,0.0,0.0,0.0,0.0,0.0,0.0,0.0,0.0,0.0,0.0,0.0,0.0,0.0,0.0,0.0,0.0,0.0,0.0,0.0,0.0,0.0,0.0,0.0,0.0,0.0,0.0,0.0,0.0,0.0,0.0,0.0,0.0,0.0,0.0,0.0,0.0,0.0,0.0,0.0,0.0,0.0,0.0,0.0,0.0,0.0,0.0,0.0,0.0,0.0,0.0,0.0,0.0,0.0,0.0,0.0,0.0,0.0,0.0,0.0,0.0,0.0,0.0,0.0,0.0,0.0,0.0,0.0,0.0,0.0,0.0,0.0,0.0,0.0,0.0,0.0,0.0,0.0,0.0,0.0,0.0,0.0,0.0,0.0,0.0,0.0,0.0,0.0,0.0,0.0,0.0,0.0,0.0,0.0,0.0,0.0,0.0,0.0,0.0,0.0,0.0,0.0,0.0,0.0,0.0,0.0,0.0,0.0,0.0,0.0,0.0,0.0,0.0,0.0,0.0,0.0,0.0,0.0,0.0,0.0,0.0,0.0,0.0,0.0,0.0,0.0,0.0,0.0,0.0,0.0,0.0,0.0,0.0,0.0,0.0,0.0,0.0,0.0,0.0,0.0,0.0,0.0,0.0,0.0,0.0,0.0,0.0,0.0,0.0,0.0,0.0,0.0,0.0,0.0,0.0,0.0,0.0,0.0,0.0,0.0,0.0,0.0,0.0,0.0,0.0,0.0,0.0,0.0,0.0,0.0,0.0,0.0,0.0,0.0,0.0,0.0,0.0,0.0,0.0,0.0,0.0,0.0,0.0,0.0,0.0,0.0,0.0,0.0,0.0,0.0,0.0,0.0,0.0,0.0,0.0,0.0,0.0,0.0,0.0,0.0,0.0,0.0,0.0,0.0,0.0,0.0,0.0,0.0,0.0,0.0,0.0,0.0,0.0,0.0,0.0,0.0,0.0,0.0,0.0,0.0,0.0,0.0,0.0,0.0,0.0,0.0,0.0,0.0,0.0,0.0,0.0,0.0,0.0,0.0,0.0,0.0,0.0,0.0,0.0,0.0,0.0,0.0,0.0,0.0,0.0,0.0,0.0,0.0,0.0,0.0,0.0,0.0,0.0,0.0,0.0,0.0,0.0,0.0,0.0,0.0,0.0,0.0,0.0,0.0,0.0,0.0,0.0,0.0,0.0,0.0,0.0,0.0,0.0,0.0,0.0,0.0,0.0,0.0,0.0,0.0,0.0,0.0,0.0,0.0,0.0,0.0,0.0,0.0,0.0,0.0,0.0,0.0,0.0,0.0,0.0,0.0,0.0,0.0,0.0,0.0,0.0,0.0,0.0,0.0,0.0,0.0,0.0,0.0,0.0,0.0,0.0,0.0,0.0,0.0,0.0,0.0,0.0,0.0,0.0,0.0,0.0,0.0,0.0,0.0,0.0,0.0,0.0,0.0,0.0,0.0,0.0,0.0,0.0,0.0,0.0,0.0,0.0,0.0,0.0,0.0,0.0,0.0,0.0,0.0,0.0,0.0,0.0,0.0,0.0,0.0,0.0,0.0,0.0,0.0,0.0,0.0,0.0,0.0,0.0,0.0,0.0,0.0,0.0,0.0,0.0,0.0,0.0,0.0,0.0,0.0,0.0,0.0,0.0,0.0,0.0,0.0,0.0,0.0,0.0,0.0,0.0,0.0,0.0,0.0,0.0,0.0,0.0,0.0,0.0,0.0,0.0,0.0,0.0,0.0,0.0,0.0,0.0,0.0,0.0,0.0,0.0,0.0,0.0,0.0,0.0,0.0,0.0,0.0,0.0,0.0,0.0,0.0,0.0,0.0,0.0,0.0,0.0,0.0,0.0,0.0,0.0,0.0,0.0,0.0,0.0,0.0,0.0,0.0,0.0,0.0,0.0,0.0,0.0,0.0,0.0,0.0,0.0,0.0,0.0,0.0,0.0,0.0,0.0,0.0,0.0,0.0,0.0,0.0,0.0,0.0,0.0,0.0,0.0,0.0,0.0,0.0,0.0,0.0,0.0,0.0,0.0,0.0,0.0,0.0,0.0,0.0,0.0,0.0,0.0,0.0,0.0,0.0,0.0,0.0,0.0,0.0,0.0,0.0,0.0,0.0,0.0,0.0,0.0,0.0,0.0,0.0,0.0,0.0,0.0,0.0,0.0,0.0,0.0,0.0,0.0,0.0,0.0,0.0,0.0,0.0,0.0,0.0,0.0,0.0,0.0,0.0,0.0,0.0,0.0,0.0,0.0,0.0,0.0,0.0,0.0,0.0,0.0,0.0,0.0,0.0,0.0,0.0,0.0,0.0,0.0,0.0,0.0,0.0,0.0,0.0,0.0,0.0,0.0,0.0,0.0,0.0,0.0,0.0,0.0,0.0,0.0,0.0,0.0,0.0,0.0,0.0,0.0,0.0,0.0,0.0,0.0,0.0,0.0,0.0,0.0,0.0,0.0,0.0,0.0,0.0,0.0,0.0,0.0,0.0,0.0,0.0,0.0,0.0,0.0,0.0,0.0,0.0,0.0,0.0,0.0,0.0,0.0,0.0,0.0,0.0,0.0,0.0,0.0,0.0,0.0,0.0,0.0,0.0,3.9786,3.8465,0.0,0.0,0.0,0.0,0.0,0.0,0.0,0.0,0.0,0.0,0.0,0.0,0.0,0.0,0.0,0.0,0.0,0.0,0.0,0.0,0.0,0.0,0.0,2.2173,2.2317,2.2317,2.2317,0.0,0.0,0.0,0.0,0.0,0.0,0.0,0.0,0.0,2.1843,2.3312,2.371,2.5229,2.7735,2.6581,2.5465,2.4391,0.0,0.0,0.0,0.0,0.0,0.0,0.0,0.0,0.0,0.0,0.0,0.0,0.0,0.0,0.0,0.0,0.0,0.0,0.0,0.0,0.0,0.0,0.0,0.0,0.0,0.0,0.0,0.0,0.0,0.0,0.0,0.0,0.0,0.0,0.0,0.0,0.0,0.0,0.0,0.0,0.0,0.0,0.0,0.0,0.0,0.0,0.0,0.0,0.0,0.0,0.0,0.0,0.0,0.0,0.0,0.0,0.0,0.0,0.0,0.0,0.0,0.0,0.0,0.0,0.0,0.0,0.0,0.0,0.0,0.0,4.2355,4.1107,0.0,0.0,0.0,0.0,0.0,0.0,0.0,0.0,0.0,0.0,0.0,0.0,0.0,0.0,0.0,0.0,0.0,0.0,0.0,0.0,0.0,2.0781,2.179,2.2204,2.2448,2.2655,2.2692,2.2624,2.2489,2.2489,0.0,0.0,0.0,0.0,2.2489,2.2722,2.391,2.5968,2.6788,2.8475,3.1045,3.1045,3.0065,2.818,2.6298,0.0,0.0,0.0,0.0,0.0,0.0,0.0,0.0,0.0,0.0,0.0,0.0,0.0,0.0,0.0,0.0,0.0,0.0,0.0,0.0,0.0,0.0,0.0,0.0,0.0,0.0,0.0,0.0,0.0,0.0,0.0,0.0,0.0,0.0,0.0,0.0,0.0,0.0,0.0,0.0,0.0,0.0,0.0,0.0,0.0,0.0,0.0,0.0,0.0,0.0,0.0,0.0,0.0,0.0,0.0,0.0,0.0,0.0,0.0,0.0,0.0,0.0,0.0,4.5292,4.6099,4.6764,4.6764,4.7494,4.8558,4.5218,4.4447,4.5438,4.397,0.0,0.0,0.0,0.0,0.0,0.0,0.0,0.0,0.0,0.0,0.0,0.0,0.0,0.0,0.0,0.0,0.0,0.0,0.0,2.0802,2.2928,2.2841,2.3085,2.4105,2.4203,2.3932,2.3312,2.3241,0.0,0.0,0.0,2.3241,2.3241,2.4522,2.5939,2.7515,3.1427,3.3863,3.4856,3.4856,3.4726,3.4286,3.0876,2.9359,2.9224,0.0,0.0,0.0,0.0,0.0,0.0,0.0,0.0,0.0,0.0,0.0,0.0,0.0,0.0,0.0,0.0,0.0,0.0,0.0,0.0,0.0,0.0,0.0,0.0,0.0,0.0,0.0,0.0,0.0,0.0,0.0,0.0,0.0,0.0,0.0,0.0,0.0,0.0,0.0,0.0,0.0,3.8496,3.946,0.0,0.0,0.0,0.0,0.0,0.0,0.0,0.0,0.0,0.0,0.0,0.0,0.0,4.5223,4.5406,4.6796,4.7567,4.7677,4.9255,5.0063,5.0141,5.0141,5.0283,5.043,4.9916,0.0,4.8871,4.7902,0.0,0.0,0.0,0.0,0.0,0.0,0.0,0.0,0.0,0.0,0.0,0.0,0.0,0.0,0.0,0.0,0.0,0.0,0.0,0.0,0.0,2.4694,2.5505,2.6898,2.7017,2.6534,2.5346,2.524,0.0,0.0,2.3861,2.4195,2.4628,2.6074,2.8403,3.1558,3.4805,3.6806,3.751,3.751,3.7719,3.803,3.5994,3.3925,3.1862,3.0456,0.0,0.0,0.0,0.0,0.0,0.0,0.0,0.0,0.0,0.0,0.0,0.0,0.0,0.0,0.0,0.0,0.0,0.0,0.0,0.0,0.0,0.0,0.0,0.0,0.0,0.0,0.0,0.0,0.0,0.0,0.0,0.0,0.0,0.0,0.0,0.0,0.0,0.0,0.0,3.7818,3.9214,4.0567,4.0653,4.07,0.0,0.0,0.0,0.0,0.0,0.0,0.0,0.0,0.0,4.7393,4.776,4.8384,4.9302,5.0036,5.0839,5.1751,5.2454,5.3041,5.3487,5.3487,5.3487,5.3487,5.3487,5.3309,5.2763,5.011,4.8421,4.7356,0.0,0.0,0.0,0.0,4.6925,4.7219,0.0,0.0,0.0,0.0,0.0,0.0,0.0,0.0,0.0,0.0,0.0,0.0,2.5336,2.6638,2.798,2.9441,2.9547,2.9005,2.7677,2.7199,2.6425,2.5117,2.5049,2.5414,2.6142,2.8534,3.162,3.5357,3.7449,3.8734,3.9288,3.9288,3.9559,4.0072,3.9525,3.7624,3.4776,3.3631,3.1732,2.9388,0.0,0.0,0.0,0.0,0.0,0.0,0.0,0.0,0.0,0.0,0.0,0.0,0.0,0.0,0.0,0.0,0.0,0.0,0.0,0.0,0.0,0.0,0.0,0.0,0.0,0.0,0.0,0.0,0.0,0.0,0.0,0.0,0.0,0.0,0.0,0.0,0.0,3.9315,4.0385,4.1382,4.2037,4.2324,0.0,0.0,0.0,0.0,0.0,0.0,4.762,4.7952,4.8807,5.0467,5.0681,5.1375,5.2623,5.2623,5.3244,5.4419,5.4617,5.491,5.5308,5.5308,5.5222,5.5029,5.5029,5.5029,5.4798,5.2228,5.0891,5.0445,4.9806,4.9287,4.9072,5.0146,5.0518,5.0849,0.0,0.0,0.0,0.0,0.0,0.0,0.0,0.0,0.0,0.0,0.0,2.4902,2.6784,2.8347,2.9773,3.0992,3.1099,3.0755,2.9963,2.8572,2.7389,2.6628,2.6598,2.6928,2.7689,3.2624,3.605,3.7747,3.9254,4.0005,4.0039,4.0039,4.0072,4.0113,4.0072,3.9559,3.8571,3.6355,3.494,3.3936,3.1084,0.0,0.0,0.0,0.0,0.0,0.0,0.0,0.0,0.0,0.0,0.0,0.0,0.0,0.0,0.0,0.0,0.0,0.0,0.0,0.0,0.0,0.0,0.0,0.0,0.0,0.0,0.0,0.0,0.0,0.0,0.0,0.0,0.0,0.0,0.0,0.0,0.0,0.0,4.1916,4.4189,0.0,0.0,0.0,0.0,4.7963,4.6875,4.7139,4.9365,5.0243,5.1427,5.2967,5.3809,5.4278,5.4356,5.4356,5.4392,5.4513,5.5183,5.5197,5.4579,5.4579,5.4137,5.3407,5.3407,5.3407,5.3515,5.4793,5.4405,5.2994,5.2957,5.2003,5.087,5.2449,5.3031,5.3251,0.0,0.0,0.0,1.9703,1.9703,1.9776,2.0037,2.0219,2.0764,2.2043,2.4089,2.6373,2.8771,3.0794,3.2736,3.4646,3.4793,3.4477,3.3678,3.1794,3.0789,3.0987,2.9634,3.0345,3.353,3.5887,3.7815,3.9322,3.9836,4.0113,4.0113,4.0113,4.0113,4.0113,4.0113,3.9937,3.966,3.8848,3.7212,3.5103,3.405,3.1586,0.0,0.0,0.0,0.0,0.0,0.0,0.0,0.0,0.0,0.0,0.0,0.0,0.0,0.0,0.0,0.0,0.0,0.0,0.0,0.0,0.0,0.0,0.0,0.0,0.0,0.0,0.0,0.0,0.0,0.0,0.0,0.0,0.0,0.0,0.0,0.0,0.0,4.3459,4.4635,0.0,4.5852,4.6641,4.7717,4.918,4.9373,5.0181,5.189,5.2752,5.3233,5.3268,5.407,5.4746,5.5263,5.5263,5.5516,5.6063,5.6314,5.6033,5.5267,5.5267,5.5124,5.4832,5.4832,5.4832,5.4874,5.5448,5.47,5.3394,5.4919,5.4883,5.4136,5.5722,5.6308,5.6381,0.0,0.0,0.0,1.9703,1.9703,1.9776,2.0054,2.0408,2.1314,2.3147,2.5594,2.8134,3.0666,3.3088,3.5166,3.6629,3.7021,3.6947,3.6417,3.4274,3.3264,3.3761,3.2374,3.3355,3.7088,3.7889,3.8876,4.0113,4.0113,3.9952,3.9695,3.9695,3.9695,3.9695,3.9695,3.9857,4.0113,4.0113,3.8949,3.7071,3.6591,3.4466,3.1549,0.0,0.0,0.0,0.0,0.0,0.0,0.0,0.0,0.0,0.0,0.0,0.0,0.0,0.0,0.0,0.0,0.0,0.0,0.0,0.0,0.0,0.0,0.0,0.0,0.0,0.0,0.0,0.0,0.0,0.0,0.0,0.0,0.0,0.0,4.2888,4.4377,4.4415,4.5781,4.6847,4.714,4.8163,4.9414,5.0883,5.1118,5.1808,5.3267,5.3846,5.4042,5.3766,5.4249,5.4799,5.5325,5.5589,5.5981,5.6486,5.7013,5.685,5.6071,5.6071,5.5922,5.5699,5.5699,5.5699,5.5722,5.5959,5.5289,5.4246,5.5803,5.612,5.5816,5.6861,5.7383,5.7673,0.0,0.0,1.9703,1.9703,1.9703,1.9708,1.9726,2.0608,2.2102,2.4453,2.7392,3.0151,3.2399,3.5147,3.6805,3.6772,3.7449,3.7926,3.7984,3.5774,3.4484,3.4484,3.4585,3.5662,3.788,3.8676,3.9398,4.014,4.0121,3.9729,3.896,3.8933,3.894,3.896,3.8927,3.9362,4.0115,4.0075,4.0047,3.9946,3.8519,3.7516,3.6586,0.0,0.0,0.0,0.0,0.0,0.0,0.0,0.0,0.0,0.0,0.0,0.0,0.0,0.0,0.0,0.0,0.0,0.0,0.0,0.0,0.0,0.0,0.0,0.0,0.0,0.0,0.0,0.0,0.0,0.0,0.0,0.0,0.0,4.2603,4.4237,4.5405,4.4793,4.7859,4.9711,4.9035,5.0347,5.1782,5.3155,5.202,5.1885,5.3337,5.3502,5.3844,5.4575,5.4633,5.4649,5.4684,5.538,5.5737,5.5753,5.7263,5.7553,5.6761,5.6761,5.6385,5.5699,5.5699,5.5699,5.5769,5.6459,5.6344,5.5704,5.5749,5.5766,5.5752,5.5773,5.6289,5.7068,1.9703,1.9703,1.9703,1.9703,1.9703,1.979,2.0089,2.0558,2.2043,2.5301,2.7513,3.0125,3.36,3.5632,3.7178,3.8264,3.8028,3.8293,3.942,3.6352,3.4512,3.4512,3.6564,3.7975,3.8619,3.9388,4.0147,4.0899,4.0815,4.0629,4.0412,3.9837,3.9873,4.0393,3.9867,3.9788,4.0047,3.9481,3.9236,3.9249,3.9425,3.874,3.7483,0.0,0.0,0.0,0.0,0.0,0.0,0.0,0.0,0.0,0.0,0.0,0.0,0.0,0.0,0.0,0.0,0.0,0.0,0.0,0.0,0.0,0.0,0.0,0.0,0.0,0.0,0.0,0.0,0.0,0.0,0.0,4.3878,4.5225,4.4818,4.657,4.7871,4.7789,4.9135,5.0209,5.0523,5.1439,5.214,5.2553,5.2749,5.3034,5.3461,5.3994,5.4402,5.4591,5.513,5.5649,5.6195,5.6395,5.6491,5.6499,5.6931,5.6739,5.6005,5.6005,5.59,5.5699,5.5699,5.5699,5.5716,5.5935,5.5892,5.5806,5.6935,5.7007,5.6571,5.7142,5.7896,5.8615,1.9703,1.9703,1.9703,1.9703,1.9703,1.9767,1.9998,2.1123,2.2969,2.5923,2.8624,3.1472,3.4673,3.6599,3.7899,3.8454,3.8355,3.85,3.9097,3.7119,3.5904,3.5837,3.7786,3.9157,3.9763,4.0245,4.0858,4.1644,4.1565,4.1391,4.1087,4.0597,4.0659,4.1047,4.0243,4.0097,4.0402,3.9616,3.9108,3.8904,3.9382,3.9253,3.874,3.8002,3.7156,3.6237,3.5188,3.481,3.4714,3.4066,0.0,0.0,0.0,0.0,0.0,0.0,0.0,0.0,0.0,0.0,0.0,0.0,0.0,0.0,0.0,0.0,0.0,0.0,0.0,0.0,0.0,0.0,0.0,0.0,4.6,4.7286,4.7928,4.8498,4.9156,4.9836,5.0574,5.1183,5.1615,5.2359,5.2807,5.2807,5.3518,5.3957,5.3957,5.4648,5.5057,5.5049,5.5493,5.5924,5.6335,5.6952,5.7261,5.7261,5.7904,5.7976,5.7534,5.7534,5.7534,5.7534,5.7534,5.7534,5.7534,5.7534,5.7534,5.7498,0.0,0.0,0.0,0.0,5.7995,5.869,1.9703,1.9703,1.9703,1.9703,1.9703,1.9738,1.9793,2.1915,2.4288,2.6517,3.0068,3.3276,3.5687,3.7609,3.8559,3.8101,3.849,3.8463,3.7715,3.7869,3.7872,3.7591,3.8443,3.9493,4.0711,4.099,4.1505,4.2274,4.2375,4.2088,4.1436,4.1343,4.1307,4.1238,4.0378,4.0323,4.0798,4.0002,3.9322,3.8779,3.8877,3.9327,3.9891,3.9237,3.9051,3.8943,3.7636,3.7168,3.6959,3.5599,0.0,0.0,0.0,0.0,0.0,0.0,0.0,0.0,0.0,0.0,0.0,0.0,0.0,0.0,0.0,0.0,0.0,0.0,0.0,0.0,0.0,0.0,0.0,0.0,4.8698,4.9721,5.1133,5.0194,4.9856,5.1167,5.1987,5.2435,5.2435,5.3179,5.3611,5.3611,5.4296,5.471,5.471,5.5336,0.0,0.0,0.0,5.6037,5.6172,5.7476,5.8161,5.8161,5.9471,6.0114,6.0114,6.0114,6.0114,6.0114,6.0114,6.0114,6.0114,6.0114,6.0114,5.9844,5.723,5.6206,5.6269,5.6925,5.7638,5.8391,1.9703,1.9703,1.9703,1.9703,1.9703,1.9878,2.0428,2.1843,2.4163,2.7744,2.9778,3.2569,3.6907,3.7192,3.7773,3.9513,3.8661,3.7694,3.6966,3.7986,3.8051,3.6783,3.8631,3.95,3.9069,4.1024,4.2095,4.2222,4.2811,4.3043,4.2887,4.2161,4.185,4.181,4.1053,4.0444,3.9909,3.9152,3.8775,3.8714,3.9388,3.9459,3.9116,3.8977,3.9305,3.9836,3.9565,3.9469,3.9429,3.9125,3.8239,3.7206,3.7071,3.671,0.0,0.0,0.0,0.0,0.0,0.0,0.0,0.0,0.0,0.0,0.0,0.0,0.0,0.0,0.0,0.0,0.0,0.0,0.0,4.8571,4.9924,5.1066,5.1953,5.1852,5.175,5.2063,5.2799,5.3281,5.3281,5.3957,5.4406,5.4406,5.5065,5.5505,5.5505,5.5631,5.6249,5.7451,5.7476,5.8051,5.9235,5.9539,5.9674,5.9674,5.9945,0.0,6.0114,6.0114,6.0114,6.0114,6.0114,6.0114,6.0114,6.0114,6.0114,6.0047,5.9471,5.9259,5.9287,5.9396,6.001,6.0731,1.9703,1.9703,1.9703,1.9703,1.9968,2.0313,2.0638,2.2637,2.4929,2.7282,3.0198,3.2989,3.5481,3.6318,3.676,3.6893,3.6121,3.6086,3.7088,3.8219,3.8429,3.7485,3.9353,4.0175,3.9651,4.0872,4.1859,4.2606,4.2963,4.3312,4.3645,4.3193,4.2813,4.2469,4.2125,4.1289,4.018,3.9806,3.9221,3.8529,3.8974,3.8984,3.8828,3.9651,4.0467,4.1137,4.0709,4.0822,4.1183,4.1183,4.0709,4.0087,4.0087,3.9857,3.9423,0.0,0.0,0.0,0.0,0.0,0.0,0.0,0.0,0.0,0.0,0.0,0.0,0.0,0.0,4.5114,4.7015,0.0,4.8943,5.0405,5.1277,5.2021,5.2799,5.3213,5.3315,5.2942,5.3585,5.4059,5.4059,5.4735,5.5141,5.5141,5.5843,5.6418,5.6799,5.7162,5.7872,5.8973,5.9007,5.9336,6.008,6.0486,6.0689,6.0723,6.1458,6.1796,6.1796,6.2178,6.2347,6.2347,6.2347,6.2347,6.2347,6.2347,6.2347,6.2347,6.2347,6.167,6.0689,6.0689,6.1425,6.2445,1.9878,1.9998,2.0063,1.9913,2.0343,2.0783,2.1057,2.3392,2.552,2.6657,3.0195,3.2845,3.3425,3.498,3.5452,3.4188,3.3847,3.4835,3.7444,3.8228,3.8537,3.8407,4.013,4.0909,4.0459,4.0953,4.171,4.2739,4.2914,4.3331,4.4001,4.4001,4.3606,4.2954,4.2795,4.1977,4.064,4.0495,3.9725,3.8607,3.8953,3.9165,3.9413,4.0876,4.1687,4.1977,4.1455,4.1691,4.2293,4.2293,4.2293,4.2293,4.2293,4.2293,4.209,4.1048,4.1487,0.0,0.0,0.0,0.0,0.0,0.0,0.0,0.0,4.3937,4.4742,4.6433,4.6778,4.7353,4.9281,4.9653,5.027,5.2232,5.2528,5.2799,5.3585,5.4228,5.4439,5.3983,5.4465,5.4803,5.4803,5.5606,5.6147,5.6147,5.6925,5.7712,5.8297,5.8896,5.9564,6.0317,6.0452,6.0622,6.0757,6.1535,6.1941,6.1975,6.3149,6.3714,6.3714,6.4343,6.4613,6.4613,6.4613,6.4613,6.4613,6.4613,6.4613,6.4613,6.4613,6.3599,6.2144,6.2009,6.2675,6.3714,2.0578,2.1066,2.1276,2.0698,2.0663,2.1086,2.2303,2.3235,2.4687,2.7178,2.8449,3.0086,3.2528,3.2861,3.3578,3.5226,3.4871,3.5421,3.7483,3.7575,3.7823,3.8388,4.0618,4.1135,3.9589,4.1828,4.2631,4.1849,4.2606,4.3331,4.4001,4.4001,4.3551,4.2701,4.2128,4.1317,4.0373,3.9803,3.946,3.9424,4.097,4.1597,4.1718,4.2671,4.225,4.1217,4.1916,4.2226,4.2293,4.2293,4.2293,4.2293,4.2293,4.2293,4.2394,4.2888,4.2686,4.2394,4.2916,4.3213,4.3558,4.4195,4.4405,4.5142,0.0,4.7819,4.8015,5.0153,5.0592,5.0871,5.175,5.1928,5.2266,5.3213,5.3382,5.3619,5.4372,5.4541,5.4803,5.5395,5.5539,5.5564,5.5564,5.6833,5.7654,5.7654,5.893,5.9776,5.9844,5.9945,6.0351,6.1129,6.1806,6.2448,6.3115,6.3869,6.4241,6.4241,6.441,6.4478,6.4478,6.4546,6.4613,6.4613,6.4613,6.4613,6.4613,6.4613,6.4613,6.4613,6.4613,6.485,6.5131,6.4478,6.4343,6.4478,2.1216,2.1515,2.1724,2.1849,2.1849,2.2064,2.2613,2.3808,2.5092,2.6291,2.7965,2.9379,3.023,3.0597,3.1911,3.4723,3.4018,3.4782,3.7968,3.8172,3.8388,3.8948,4.0425,4.0648,3.9418,4.0464,4.1196,4.1538,4.1877,4.2602,4.358,4.358,4.32,4.2507,4.2337,4.1585,4.0404,4.0241,3.9849,3.9463,4.02,4.049,4.0644,4.2029,4.2132,4.1738,4.3069,4.358,0.0,4.412,4.3985,4.3721,4.4147,4.3666,4.3193,4.437,4.4222,4.3992,4.5587,4.6027,4.6094,4.6447,4.7165,4.8019,4.8815,4.9086,4.9695,5.148,5.1852,5.2089,5.2866,5.3002,5.3247,5.4025,5.4126,5.4397,5.5133,5.5615,5.6156,5.69,5.7365,5.7466,5.7036,5.8321,5.9167,5.9167,5.9742,6.0486,6.1409,6.1443,6.1975,6.3193,6.3531,6.3835,6.413,6.4444,6.4613,6.4613,6.5019,6.5233,6.5266,6.5696,6.5889,6.5889,6.6339,6.6508,6.6576,6.7015,6.7218,6.7218,6.7218,6.7421,6.7489,6.5842,6.5493,6.5889,2.1884,2.2119,2.2393,2.2847,2.2942,2.2942,2.2942,2.4048,2.5083,2.5541,2.7219,2.8475,2.8797,2.8962,3.036,3.3599,3.2877,3.3879,3.7767,3.8225,3.8676,3.9358,4.0231,4.0291,3.9409,3.9622,4.0302,4.1403,4.1403,4.2043,4.33,4.33,4.308,4.263,4.2448,4.1705,4.0653,4.0452,3.9973,3.9436,3.9911,4.0122,4.0322,4.2037,4.2577,4.2549,4.3722,4.4198,4.4323,4.4654,4.4553,4.4357,4.4891,4.4444,4.4038,4.5568,4.5771,4.5812,4.7218,4.7887,4.8259,4.8469,4.945,5.0304,4.9999,5.0304,5.1056,5.2359,5.2638,5.2799,5.3374,5.3687,5.3991,5.4507,5.4778,5.5175,5.5911,5.663,5.7374,5.8127,5.9056,5.9496,5.9176,5.9911,6.052,6.0723,6.0926,6.1603,6.2932,6.3,6.3507,6.458,6.4783,6.4986,6.5212,6.5425,6.5628,6.5865,6.6383,6.6654,6.6654,6.7184,6.7444,6.7444,6.7996,6.8233,6.8267,6.8876,6.9113,6.9113,6.9113,6.9113,6.891,6.7263,6.6981,6.7444,2.2678,2.3141,2.355,2.3585,2.358,2.358,2.358,2.3626,2.4105,2.5429,2.5674,2.6648,2.9098,2.8338,2.8924,3.2095,3.1862,3.2961,3.6347,3.7118,3.802,3.9331,4.0231,4.0291,3.9409,4.0222,4.0913,4.1403,4.1403,4.2043,4.33,4.33,4.33,4.321,4.1991,4.1402,4.1283,3.9996,3.9418,3.9553,4.1246,4.1909,4.2093,4.3849,4.405,4.3354,4.3409,4.3436,4.3321,4.2631,4.2861,4.345,4.3457,4.3978,4.4845,4.6319,4.7259,4.765,4.6996,4.7868,4.9146,4.9838,5.0608,5.1336,5.2055,5.2232,5.2469,5.3272,5.3441,5.3484,5.3509,5.4093,5.4575,5.4609,5.52,5.5902,5.6664,5.7408,5.8152,5.8887,6.0308,6.1501,6.2188,6.167,6.1569,6.2289,6.298,6.3724,6.4478,6.4546,6.4546,6.4613,6.53,6.6,6.6734,6.7444,6.8199,6.8977,6.8977,6.9011,6.9011,6.9011,6.9045,6.9045,6.9045,6.9079,6.9079,6.9079,6.9113,6.9113,6.9113,6.9113,6.9079,6.9011,6.9011,6.9045,2.3231,2.346,2.3754,2.4192,2.3903,2.3909,2.4801,2.4471,2.4305,2.4871,2.5698,0.0,0.0,0.0,0.0,0.0,3.2404,3.3686,3.5699,3.6836,3.7785,3.8691,3.9443,3.9702,3.94,4.0106,4.0788,4.1403,4.1862,4.2501,4.33,4.33,4.33,4.324,4.1953,4.1403,4.1313,3.9969,3.9391,3.9445,4.0034,4.09,4.2053,4.3686,4.3936,4.3409,0.0,4.3538,4.2726,4.2956,4.2855,4.276,4.3254,4.3261,4.3484,4.5466,4.7293,4.8672,4.8924,4.9695,5.0634,5.1386,5.2156,5.2799,5.3044,5.3112,5.3171,5.3441,5.3509,5.3509,5.3509,5.4093,5.4778,5.5234,5.6359,5.7408,5.8177,5.8896,5.9641,6.0443,6.1434,6.2313,6.3047,6.2912,6.3081,6.3802,6.4106,6.4546,6.53,6.5334,6.5774,6.6745,6.7015,6.7523,6.8324,6.8571,6.8842,6.9113,6.9113,6.9113,6.9113,6.9113,6.9113,6.9113,6.9631,6.9834,6.9868,7.0364,7.0556,7.0556,7.0556,7.0556,7.0556,7.0556,7.0556,7.0421,2.4238,2.4322,2.4442,2.4874,2.4616,0.0,0.0,0.0,0.0,0.0,0.0,0.0,0.0,0.0,0.0,0.0,0.0,3.3455,3.5048,3.6139,3.7216,3.8341,3.8593,3.8802,3.9041,3.9221,3.9888,4.1035,4.1463,4.2232,4.33,4.33,4.33,4.324,4.2232,4.1613,4.1343,4.0208,3.9909,4.0095,3.9928,4.0633,4.1887,4.3039,4.2921,0.0,4.3087,4.257,4.1589,4.2049,4.2083,4.2056,4.2787,4.3599,4.4553,4.5737,4.7861,4.989,5.0371,5.104,5.1784,5.2536,5.3103,5.3509,5.3509,5.3687,5.389,5.389,5.389,5.389,5.389,5.4702,5.5547,5.6012,5.778,5.9167,5.9361,6.0511,6.14,6.167,6.2584,6.3463,6.4197,6.4299,6.4468,6.4962,6.4996,6.5436,6.6417,6.6485,6.7049,6.8301,6.8335,6.8707,6.9485,6.9485,6.962,6.9891,6.9891,6.9891,6.9891,6.9891,6.9891,6.9914,7.0398,7.0601,7.0635,7.1097,7.13,7.13,7.13,7.13,7.13,7.13,7.13,7.1165,2.5603,2.5603,2.5603,0.0,0.0,0.0,0.0,0.0,0.0,0.0,0.0,0.0,0.0,0.0,0.0,0.0,0.0,0.0,3.4278,3.5078,3.6327,3.8161,3.7704,3.7704,3.8341,3.7764,3.8392,4.0307,4.0337,4.1285,4.309,4.315,4.315,4.312,4.2541,4.1952,4.1313,4.0636,4.0705,4.1218,4.0813,4.1048,4.1712,4.2127,4.1422,4.0302,4.1042,4.0804,4.0174,4.0174,4.0703,4.1502,4.2327,4.506,4.7819,4.7158,4.9011,5.1269,5.1269,5.1818,5.2536,5.3306,5.3543,5.3551,5.3551,5.4135,5.4642,5.4609,5.4609,5.4575,5.4541,5.5784,5.6799,5.6799,5.937,6.1095,6.0317,6.2134,6.3284,6.2594,6.3778,6.4918,6.5639,6.5774,6.5808,6.5808,6.5808,6.6451,6.7895,6.7963,6.8335,6.9147,6.9147,6.9519,7.024,7.0274,7.0601,7.13,7.13,7.13,7.13,7.13,7.13,7.13,7.13,7.13,7.13,7.13,7.13,7.13,7.13,7.13,7.13,7.13,7.13,7.13,0.0,0.0,0.0,0.0,0.0,0.0,0.0,0.0,0.0,0.0,0.0,0.0,0.0,0.0,0.0,0.0,0.0,0.0,3.2976,3.4554,3.5729,3.6207,3.6977,3.7486,3.7644,3.7982,3.8401,3.891,3.94,3.99,4.0408,4.0926,4.1135,4.1135,4.0965,4.0825,4.0606,3.9939,3.9469,3.9199,3.9678,4.0397,4.1302,4.2543,4.2491,4.1829,4.2557,4.2009,4.0933,4.0933,4.2158,4.4052,4.5899,4.7522,4.8774,4.9161,5.0574,5.2021,5.2021,5.2596,5.3239,5.3441,5.3923,5.4338,5.4338,5.4905,5.5268,5.471,5.4609,5.4439,5.389,5.5446,5.6799,5.6799,5.9776,6.2052,6.1849,6.326,6.4241,6.4072,6.486,6.5503,6.5672,6.6688,6.732,6.732,6.732,6.776,6.8741,6.8808,6.9147,6.9902,6.9936,7.0263,7.0996,7.103,7.1097,7.13,7.13,7.13,7.13,7.13,7.13,7.13,7.13,7.13,7.13,7.13,7.13,7.13,7.13,7.13,7.13,7.13,7.13,7.13,0.0,0.0,0.0,0.0,0.0,0.0,0.0,0.0,0.0,0.0,0.0,0.0,0.0,0.0,0.0,0.0,0.0,0.0,0.0,3.3836,3.4883,3.5481,3.6169,3.6708,3.6985,3.7084,3.7563,3.8401,3.8473,3.8973,3.9849,3.9909,3.9969,3.9969,3.9969,3.9798,3.9508,3.911,3.8892,0.0,0.0,3.9337,4.0443,4.1103,4.112,4.0903,4.1673,4.2252,4.2834,4.3802,4.4986,4.6278,4.7515,4.8834,5.0059,5.0473,5.1657,5.2841,5.2841,5.3179,5.3585,5.389,5.4304,5.4609,5.4609,5.5175,5.5496,5.4735,5.4609,5.4473,5.4067,5.5793,5.7374,5.7703,6.0926,6.3372,6.3372,6.4647,6.5459,6.5121,6.6011,6.6688,6.6688,6.7726,6.8571,6.8887,6.8605,6.8774,6.9553,6.9586,6.9925,7.0669,7.0669,7.0872,7.13,7.13,7.13,7.13,7.13,7.13,7.13,7.13,7.13,7.13,7.13,7.13,7.13,7.13,7.13,7.13,7.13,7.13,7.13,7.13,7.13,7.13,0.0,0.0,0.0,0.0,0.0,0.0,0.0,0.0,0.0,2.91,2.9353,3.0092,3.1371,3.1518,0.0,0.0,0.0,0.0,0.0,0.0,3.4061,3.531,3.5451,3.5759,3.6335,3.5789,3.6327,3.8012,3.7426,3.8024,3.9738,3.9251,3.9002,3.9002,3.9092,3.8802,3.8281,3.8281,3.8571,3.8922,3.7854,3.8202,3.9304,0.0,3.8924,3.9169,4.0059,4.2272,4.5074,4.7286,4.8191,4.836,4.8597,4.995,5.1505,5.1505,5.2461,5.3509,5.3611,5.3653,5.3822,5.4575,5.4812,5.4879,5.4778,5.5302,5.5606,5.4778,5.4609,5.4609,5.4609,5.6334,5.806,5.8989,6.2134,6.4512,6.4715,6.6024,6.67,6.6079,6.7229,6.8064,6.8064,6.8774,6.9519,7.0139,6.9688,6.9654,7.0308,7.0342,7.0635,7.13,7.13,7.13,7.13,7.13,7.13,7.13,7.13,7.13,7.13,7.13,7.13,7.13,7.13,7.13,7.13,7.1402,7.1436,7.147,7.1537,7.1605,7.1605,7.1605,7.1605,7.1605,0.0,0.0,0.0,0.0,0.0,0.0,0.0,0.0,0.0,0.0,3.052,3.0125,0.0,0.0,0.0,0.0,0.0,0.0,0.0,0.0,0.0,3.4637,3.519,3.5541,3.5661,3.5571,3.5661,3.599,3.5878,3.602,3.6349,3.6814,3.6994,3.7024,3.7516,3.7695,3.7575,3.7575,3.7345,3.7032,3.7402,3.7771,3.8172,3.8699,0.0,0.0,4.1442,4.3477,4.5838,4.8063,4.9619,5.0863,5.2122,5.2799,5.3103,5.3103,5.3272,5.3619,5.4228,5.4406,5.46,5.5336,5.5978,5.6258,5.564,5.608,5.6224,5.4879,5.4609,5.4609,5.4609,5.5919,5.7645,5.9607,6.2033,6.413,6.5334,6.6779,6.7658,6.7523,6.8335,6.8876,6.8876,6.9563,7.0071,7.0172,7.0635,7.0962,7.1097,7.1097,7.1165,7.13,7.13,7.13,7.13,7.13,7.13,7.13,7.13,7.13,7.13,7.13,7.13,7.13,7.13,7.13,7.1368,7.1943,7.2225,7.2259,7.2879,7.3116,7.3116,7.3116,7.3116,7.3116,0.0,0.0,0.0,0.0,0.0,0.0,0.0,3.1587,3.2348,3.3432,3.2831,3.2379,3.2565,3.2576,3.2591,0.0,0.0,0.0,0.0,0.0,0.0,3.4496,3.513,3.5511,3.5511,3.5511,3.5661,3.6028,0.0,3.5669,3.6028,3.6006,3.5976,3.6006,3.6297,3.6409,3.6409,3.6409,3.6229,3.6009,3.6356,3.7033,3.7851,3.8182,0.0,0.0,4.2354,4.435,4.6481,4.7928,4.9916,5.1987,5.3137,5.3509,5.3509,5.3509,5.3788,5.4169,5.4507,5.4871,5.5336,5.608,5.6553,5.6596,5.5868,5.5969,5.5809,5.4329,5.4025,5.4025,5.4025,5.5547,5.7408,5.9225,6.1762,6.4028,6.5503,6.6958,6.7895,6.7895,6.8944,6.9665,6.9665,7.0331,7.077,7.077,7.1097,7.13,7.13,7.13,7.13,7.13,7.13,7.13,7.13,7.13,7.13,7.13,7.13,7.13,7.13,7.13,7.1503,7.1875,7.1875,7.209,7.2462,7.2845,7.2981,7.3015,7.3353,7.3488,7.3488,7.3488,7.3488,7.3488,0.0,0.0,0.0,0.0,0.0,0.0,0.0,3.2967,3.3594,3.4872,3.5284,3.4914,3.3626,3.3703,3.3496,0.0,0.0,0.0,0.0,0.0,0.0,0.0,0.0,0.0,3.5511,0.0,0.0,3.6276,3.5759,0.0,0.0,0.0,0.0,0.0,3.5511,3.5511,3.5511,3.5511,3.5587,0.0,0.0,3.6747,3.832,0.0,0.0,0.0,0.0,4.4749,4.6684,4.7582,4.9552,5.1792,5.29,5.3374,5.3509,5.3509,5.4025,5.4642,5.4778,5.5369,5.6105,5.6867,5.7036,5.6799,5.5902,5.5699,5.5293,5.3814,5.3509,5.3543,5.3721,5.5277,5.7162,5.8955,6.1356,6.3724,6.5662,6.706,6.803,6.8335,6.9597,7.0443,7.0443,7.0973,7.13,7.13,7.13,7.13,7.13,7.13,7.13,7.13,7.13,7.13,7.13,7.13,7.13,7.13,7.13,7.1402,7.1537,7.1537,7.1943,7.2631,7.2631,7.2981,7.3522,7.3657,7.3725,7.3759,7.3894,7.3962,7.3962,7.3962,7.3962,7.3962,0.0,0.0,0.0,0.0,0.0,0.0,0.0,3.4445,3.547,3.639,3.7061,3.6423,3.3789,3.4151,3.4035,0.0,0.0,0.0,0.0,0.0,0.0,0.0,0.0,0.0,0.0,0.0,0.0,3.5579,3.5519,0.0,0.0,0.0,0.0,0.0,0.0,3.5511,3.5511,3.5511,0.0,0.0,0.0,0.0,0.0,0.0,0.0,0.0,0.0,4.4437,4.6,4.7447,4.8529,4.9661,5.175,5.29,5.3509,5.3509,5.4025,5.4744,5.5437,5.6147,5.6867,5.762,5.7789,5.7417,5.6003,5.5699,5.5293,5.3814,5.3509,5.3687,5.4372,5.52,5.6713,5.9539,6.0849,6.2709,6.6193,6.7377,6.8402,6.9834,7.0703,7.1199,7.1199,7.1267,7.13,7.13,7.13,7.13,7.13,7.13,7.13,7.13,7.13,7.13,7.13,7.13,7.13,7.13,7.13,7.1639,7.2293,7.2293,7.271,7.3387,7.3387,7.3454,7.3556,7.4221,7.4514,7.4581,7.5236,7.5506,7.5506,7.5506,7.5506,7.5506,0.0,0.0,0.0,0.0,0.0,0.0,3.4555,3.5216,3.5951,3.7196,3.7993,3.7327,3.4429,3.6,3.6005,3.2772,0.0,0.0,0.0,0.0,0.0,0.0,0.0,0.0,0.0,0.0,3.5511,3.5511,3.5511,0.0,0.0,0.0,0.0,0.0,0.0,3.5511,3.5514,3.5975,0.0,0.0,0.0,0.0,0.0,0.0,0.0,0.0,0.0,0.0,4.6515,4.7549,4.8706,4.9838,5.0718,5.1792,5.2976,5.389,5.4668,5.5403,5.6147,5.69,5.7518,5.7823,5.7586,5.6968,5.5936,5.5369,5.4735,5.3712,5.3509,5.3721,5.4473,5.4846,5.5987,5.8955,6.0071,6.1559,6.44,6.6193,6.7614,6.8673,6.9891,7.0804,7.1267,7.13,7.13,7.13,7.13,7.13,7.13,7.13,7.13,7.13,7.13,7.1503,7.1943,7.1943,7.2191,7.2631,7.2631,7.2766,7.3048,7.3048,7.3443,7.4153,7.4153,7.4424,7.4842,7.5134,7.527,7.5303,7.5574,7.5709,7.5709,7.5709,7.5709,7.5709,0.0,0.0,0.0,0.0,0.0,3.3293,3.5301,3.5734,3.6403,3.7914,3.8372,3.7602,3.511,3.7313,3.7497,3.3753,3.5435,0.0,0.0,0.0,0.0,0.0,0.0,0.0,0.0,0.0,3.5511,3.5511,3.5511,3.5511,0.0,0.0,3.5511,3.5511,0.0,0.0,0.0,0.0,0.0,0.0,0.0,0.0,0.0,0.0,0.0,0.0,0.0,0.0,0.0,0.0,0.0,4.9838,5.0304,5.115,5.2224,5.356,5.4769,5.58,5.6316,5.7171,5.7958,5.8161,5.7509,5.6655,5.6147,5.5277,5.4406,5.3653,5.3509,5.3653,5.4169,5.4642,5.5683,5.7974,5.9327,6.096,6.3487,6.5347,6.6903,6.8098,6.9394,7.0409,7.0928,7.1165,7.13,7.13,7.13,7.1402,7.1605,7.1639,7.1639,7.1639,7.1639,7.1988,7.271,7.2732,7.2981,7.3488,7.3488,7.3624,7.3827,7.3827,7.4221,7.492,7.492,7.5236,7.5709,7.5709,7.5709,7.5709,7.5709,7.5709,7.5709,7.5709,7.5709,7.5709,0.0,0.0,0.0,0.0,0.0,0.0,3.5363,3.6104,3.7084,3.868,3.8203,3.7179,3.5752,3.7642,3.8056,3.5784,3.6265,0.0,0.0,0.0,0.0,0.0,0.0,0.0,0.0,0.0,3.5511,3.5511,3.5511,3.5511,3.5511,3.5511,3.5511,3.5511,0.0,0.0,0.0,0.0,0.0,0.0,0.0,0.0,0.0,0.0,0.0,0.0,0.0,0.0,0.0,0.0,0.0,0.0,0.0,5.1201,5.137,5.2097,5.3915,5.5699,5.5699,5.6799,5.8094,5.8819,5.7872,5.6799,5.6799,5.5649,5.4406,5.3653,5.3509,5.3509,5.3509,5.4693,5.5936,5.6689,5.866,6.1163,6.4174,6.5233,6.6552,6.8808,6.9766,7.0206,7.0206,7.0861,7.13,7.13,7.13,7.1605,7.236,7.2394,7.2394,7.2394,7.2394,7.2732,7.3488,7.3488,7.3488,7.3488,7.3488,7.3894,7.4581,7.4581,7.4987,7.5676,7.5676,7.5676,7.5709,7.5709,7.5709,7.5709,7.5709,7.5709,7.5709,7.5709,7.5709,7.5709,0.0,0.0,0.0,0.0,0.0,0.0,0.0,3.5062,3.5739,3.7196,3.6775,3.6327,3.6341,3.7952,3.8702,3.7934,3.7619,0.0,0.0,0.0,0.0,0.0,0.0,0.0,0.0,0.0,3.5983,3.6933,3.6444,3.6186,3.6186,3.6186,3.5938,3.5511,3.5511,3.5782,0.0,0.0,0.0,0.0,0.0,0.0,0.0,0.0,0.0,0.0,0.0,0.0,0.0,0.0,0.0,0.0,0.0,0.0,0.0,5.2089,5.3915,5.5699,5.5699,5.6418,5.707,5.6824,5.6012,5.5285,5.5285,5.4532,5.3788,5.3543,5.3509,5.3653,5.416,5.4228,5.5268,5.8524,5.9225,6.0578,6.4096,6.5662,6.6914,6.8132,6.9857,7.0962,7.0962,7.1165,7.13,7.13,7.1774,7.2146,7.2394,7.2879,7.315,7.315,7.315,7.351,7.4255,7.4255,7.4492,7.4999,7.4999,7.5134,7.5337,7.5337,7.5473,7.5709,7.5709,7.5709,7.5709,7.5709,7.5709,7.5709,7.5709,7.5709,7.5709,7.5709,7.5709,7.5709,0.0,0.0,0.0,0.0,0.0,0.0,0.0,3.494,3.5506,3.696,3.6286,3.5938,3.661,3.7833,3.8564,3.848,3.8081,0.0,0.0,0.0,0.0,0.0,0.0,0.0,3.6173,3.5726,3.617,3.751,3.7074,3.6964,3.7212,3.7212,3.6725,3.5878,3.5878,3.6146,0.0,0.0,0.0,0.0,0.0,0.0,4.4608,0.0,0.0,0.0,0.0,0.0,0.0,0.0,0.0,0.0,0.0,0.0,0.0,0.0,5.3957,5.5268,5.5268,5.5809,5.635,5.6147,5.5344,5.4676,5.4938,5.4219,5.3509,5.3509,5.3509,5.3644,5.4093,5.4253,5.5234,5.7974,5.8989,6.0544,6.3734,6.5449,6.6981,6.8582,7.0026,7.0996,7.1267,7.13,7.1436,7.1672,7.2157,7.2631,7.3206,7.368,7.403,7.4334,7.4063,7.4255,7.4999,7.5021,7.5236,7.5709,7.5709,7.5709,7.5709,7.5709,7.5709,7.5709,7.5709,7.5709,0.0,7.5709,7.5709,7.5709,7.5709,7.5709,7.5709,7.5709,7.5709,7.5709,0.0,0.0,0.0,0.0,0.0,0.0,0.0,3.5535,3.605,3.7551,3.644,3.5815,3.6614,3.7434,3.7892,3.7906,0.0,0.0,0.0,0.0,0.0,0.0,0.0,0.0,3.5659,3.5546,3.6167,3.7575,3.7456,3.7764,3.8461,3.8431,3.7742,3.6545,3.6515,3.6611,0.0,0.0,0.0,0.0,0.0,0.0,0.0,0.0,0.0,0.0,0.0,0.0,0.0,0.0,0.0,0.0,0.0,0.0,0.0,0.0,0.0,0.0,0.0,5.5065,5.5767,5.6418,5.5547,5.471,5.5395,5.449,0.0,5.3509,5.3509,5.3543,5.3644,5.4718,5.5733,5.6037,5.838,6.1028,6.3409,6.5053,6.7094,6.9936,7.0274,7.0534,7.1233,7.1368,7.1672,7.236,7.2496,7.3161,7.4547,7.4649,7.4987,7.5676,7.5021,7.4999,7.5676,7.5709,7.5709,7.5709,7.5709,7.5709,7.5709,7.5709,7.5709,7.5709,7.5709,7.5709,7.5709,7.5709,7.5709,7.5709,7.5709,7.5709,7.5709,7.5709,7.5709,7.5709,0.0,0.0,0.0,0.0,0.0,0.0,0.0,0.0,0.0,0.0,3.5377,3.534,3.6637,3.7455,3.8121,0.0,0.0,0.0,0.0,0.0,0.0,0.0,0.0,0.0,3.7228,3.6093,3.6732,3.9228,3.8016,3.7994,3.9152,3.8631,3.7982,3.7165,3.6695,3.7178,0.0,0.0,0.0,0.0,0.0,0.0,0.0,0.0,0.0,0.0,4.6252,4.6793,0.0,0.0,0.0,0.0,0.0,0.0,0.0,0.0,5.3611,5.3754,5.3754,0.0,5.4769,5.4363,5.4025,5.3788,0.0,5.3746,5.3509,5.3509,5.3509,5.3847,5.4955,5.5006,5.5987,5.9438,6.0588,6.2202,6.555,6.7827,6.9597,7.0906,7.103,7.1097,7.13,7.1808,7.2225,7.2394,7.3431,7.4243,7.4581,7.5122,7.5506,7.5676,7.554,7.5506,7.5709,7.5709,7.5709,7.5709,7.5709,7.5709,7.5709,7.5709,7.5709,7.5709,7.5709,7.5709,7.5709,7.5709,7.5709,7.5709,7.5709,7.5709,7.5709,7.5709,7.5709,7.5709,0.0,0.0,0.0,0.0,0.0,0.0,0.0,0.0,0.0,0.0,0.0,3.5358,3.6163,3.6947,0.0,0.0,0.0,0.0,0.0,0.0,0.0,0.0,0.0,3.6228,3.6738,3.5926,3.6698,3.9173,3.8287,3.8542,3.9849,3.9499,3.8631,3.74,3.7206,3.8164,0.0,0.0,0.0,0.0,4.4012,0.0,0.0,0.0,0.0,0.0,4.6252,4.6793,0.0,4.9281,5.0262,5.0803,0.0,0.0,0.0,0.0,5.3509,5.3509,5.3509,5.3788,5.3991,5.3585,5.3509,5.3509,5.3509,5.3509,5.3509,5.3509,5.3509,5.3856,5.4997,5.5987,5.7399,5.9834,6.1975,6.4377,6.7444,6.9485,7.0861,7.1267,7.13,7.1436,7.1774,7.2157,7.2699,7.3364,7.4142,7.475,7.5089,7.5473,7.5709,7.5709,7.5709,7.5709,7.5709,7.5709,7.5709,7.5709,7.5709,7.5709,7.5709,7.5709,7.5709,7.5709,7.5709,7.5709,7.5709,7.5709,7.5709,7.5709,7.5709,7.5709,7.5709,7.5709,7.5709,7.5709,0.0,0.0,0.0,0.0,0.0,0.0,0.0,0.0,0.0,0.0,0.0,0.0,0.0,0.0,0.0,0.0,0.0,0.0,0.0,0.0,0.0,0.0,3.6157,3.6258,3.582,3.5614,3.6445,3.8413,3.8402,3.9089,4.0397,4.0487,3.9541,3.7759,3.8029,3.93,0.0,0.0,0.0,0.0,4.3876,0.0,0.0,0.0,0.0,0.0,0.0,0.0,0.0,4.9958,5.0998,5.1404,5.2596,0.0,0.0,0.0,0.0,0.0,5.3653,5.3754,5.378,5.3551,5.3509,5.3509,5.3509,5.3509,5.3509,5.3509,5.3577,5.4025,5.5218,5.7399,5.925,6.0061,6.3565,6.6924,6.8977,7.0455,7.13,7.13,7.13,7.1605,7.2326,7.2496,7.3138,7.4514,7.4717,7.5021,7.5676,7.5709,7.5709,7.5709,7.5709,7.5709,7.5709,7.5709,7.5709,7.5709,7.5709,7.5709,7.5709,7.5709,7.5709,7.5709,7.5709,7.5709,7.5709,7.5709,7.5709,7.5709,7.5709,7.5709,7.5709,7.5709,7.5709,7.5709,0.0,0.0,0.0,0.0,0.0,0.0,0.0,0.0,0.0,0.0,0.0,0.0,0.0,0.0,0.0,0.0,0.0,0.0,0.0,0.0,0.0,3.643,3.5935,3.6168,3.7239,3.6102,3.6501,3.8584,3.8456,3.9089,4.0397,4.0975,4.0529,3.9274,3.9616,4.0275,4.1229,4.1869,4.3078,4.4574,4.4472,0.0,0.0,0.0,0.0,0.0,0.0,0.0,0.0,4.8748,5.0161,5.1133,5.0744,0.0,0.0,0.0,0.0,0.0,5.4262,5.4905,5.5056,5.3814,5.3509,5.3509,5.3509,5.3509,5.3509,5.3509,5.3991,5.5421,5.866,5.9124,6.0433,6.4874,6.7275,6.891,6.9902,7.0759,7.13,7.13,7.13,7.1605,7.2326,7.2981,7.368,7.4547,7.519,7.5574,7.5676,7.5709,7.5709,7.5709,7.5709,7.5709,7.5709,7.5709,7.5709,7.5709,7.5709,7.5709,7.5709,7.5709,7.5709,7.5709,7.5709,7.5709,7.5709,7.5709,7.5709,7.5709,7.5709,7.5709,7.5709,7.5709,7.5709,7.5811,0.0,0.0,0.0,0.0,0.0,0.0,0.0,0.0,0.0,0.0,0.0,0.0,0.0,0.0,0.0,0.0,0.0,0.0,0.0,0.0,3.6793,3.7188,3.6115,3.5968,3.6979,3.6685,3.7532,3.9564,3.9878,4.0535,4.1473,4.0325,3.9734,3.97,3.9517,4.0325,4.1847,4.2591,4.3545,4.4608,0.0,0.0,0.0,0.0,0.0,0.0,0.0,0.0,0.0,0.0,5.0296,5.1201,5.1285,0.0,0.0,0.0,0.0,0.0,5.3923,5.4262,5.4625,5.5141,5.5877,5.6587,5.6968,5.707,5.6968,5.6553,5.6756,5.7746,6.0283,6.1458,6.3622,6.8459,6.9485,6.9958,7.0703,7.1097,7.1436,7.1842,7.1875,7.2349,7.3465,7.3916,7.439,7.5134,7.5506,7.5709,7.5709,7.5709,7.5709,7.5709,7.5709,7.5709,7.5709,7.5709,7.5709,7.5709,7.5709,7.5709,7.5709,7.5709,7.5709,7.5709,7.5709,7.5709,7.5709,7.5709,7.5709,7.5743,7.6183,7.6352,7.6386,7.6804,7.6939,7.7007,0.0,0.0,0.0,0.0,0.0,0.0,0.0,0.0,0.0,0.0,0.0,0.0,0.0,0.0,0.0,0.0,0.0,0.0,0.0,0.0,3.67,3.7421,3.652,3.64,3.724,3.7335,3.8392,4.0397,4.1224,4.2041,4.28,4.0734,3.9966,4.0218,3.9874,4.068,4.2361,4.3091,4.3876,4.4608,0.0,0.0,0.0,0.0,0.0,0.0,0.0,0.0,0.0,0.0,0.0,0.0,0.0,0.0,0.0,5.3205,5.3348,5.3551,5.3721,5.3881,5.449,5.6562,5.7399,5.8143,5.9742,5.9708,5.937,5.9496,5.9665,6.0308,6.2009,6.4275,6.6981,7.0252,7.0601,7.0635,7.1233,7.13,7.1571,7.2326,7.2394,7.2969,7.4446,7.4615,7.492,7.5642,7.5709,7.5709,7.5709,7.5709,7.5709,7.5709,7.5709,7.5709,7.5709,7.5709,7.5709,7.5709,7.5709,7.5709,7.5709,7.5709,7.5709,7.5709,7.5709,7.5709,7.5709,7.5912,7.598,7.6048,7.686,7.7164,7.7232,7.7785,7.7988,7.8022,0.0,0.0,0.0,0.0,0.0,0.0,0.0,0.0,0.0,0.0,0.0,0.0,0.0,0.0,0.0,0.0,0.0,0.0,0.0,0.0,3.5987,3.6662,3.718,3.8084,3.9455,3.8118,3.8392,4.0397,4.1703,4.296,4.4158,4.3975,4.3039,4.1597,4.1901,4.2139,4.2361,4.3091,4.3876,4.4608,4.4608,0.0,0.0,0.0,0.0,0.0,0.0,0.0,0.0,0.0,0.0,0.0,0.0,0.0,5.2401,5.2401,5.2909,5.3653,5.4329,5.5006,5.5911,5.7451,5.5852,5.4997,5.9133,5.8524,5.7814,6.0588,6.167,6.283,6.4962,6.7804,6.9699,6.9316,7.0353,7.1233,7.1289,7.13,7.1571,7.2326,7.2394,7.2969,7.4446,7.4615,7.492,7.5642,7.5709,7.5709,7.5709,7.5709,7.5709,7.5709,7.5709,7.5709,7.5709,7.5709,7.5709,7.5709,7.5709,7.5709,7.5709,7.5709,7.5709,7.5709,7.5709,7.5709,7.5743,7.6521,7.6826,7.6893,7.765,7.7921,7.7921,7.7988,7.7988,7.809,0.0,0.0,0.0,0.0,0.0,0.0,0.0,0.0,0.0,0.0,0.0,0.0,0.0,0.0,0.0,0.0,0.0,0.0,0.0,3.5785,3.6328,3.7975,3.6923,3.7158,3.9041,3.9598,4.0846,4.2811,4.3329,4.4007,4.4767,4.2936,4.2046,4.2032,4.2219,4.2539,4.3024,4.3815,4.433,4.4608,4.4608,4.4608,0.0,0.0,0.0,0.0,0.0,0.0,0.0,0.0,4.9172,5.071,5.0244,5.1462,5.2942,5.2469,5.2875,5.3551,5.3856,5.5108,5.6621,5.7654,5.7408,5.7839,6.1424,6.2279,6.2661,6.3812,6.4996,6.6237,6.7557,6.9485,7.0793,7.0522,7.0928,7.13,7.13,7.1706,7.2259,7.3015,7.3477,7.4175,7.5202,7.527,7.5405,7.5676,7.5709,7.5709,7.5709,7.5709,7.5709,7.5709,7.5709,7.5709,7.5709,7.5709,7.5709,7.5709,7.5709,7.5709,7.5709,7.5709,7.598,7.6454,7.6454,7.669,7.7142,7.7447,7.7582,7.765,7.8382,7.8957,7.9363,7.9363,7.9363,7.9409,0.0,0.0,0.0,0.0,0.0,0.0,0.0,0.0,0.0,0.0,0.0,0.0,0.0,0.0,0.0,0.0,0.0,0.0,3.564,3.5661,3.6273,3.7742,3.701,3.7085,3.8262,4.0624,4.2351,4.3389,4.4372,4.478,4.4612,4.2524,4.1997,4.2864,4.2444,4.2813,4.3802,4.4364,4.4608,4.4608,4.4838,4.4811,0.0,0.0,0.0,0.0,0.0,0.0,0.0,0.0,4.8698,5.0186,5.0405,5.1522,5.2765,5.2706,5.3551,5.4524,5.4524,5.564,5.7103,5.8297,5.8786,5.9859,6.3115,6.4444,6.5402,6.6823,6.7736,6.8504,6.9316,7.0094,7.0692,7.0894,7.1131,7.1368,7.1605,7.2078,7.2766,7.3713,7.4289,7.4886,7.5642,7.5709,7.5709,7.5709,7.5709,7.5709,7.5709,7.5709,7.5709,7.5709,7.5709,7.5709,7.5709,7.5709,7.5811,7.6082,7.6082,7.6082,7.6082,7.6318,7.6724,7.7232,7.7232,7.7536,7.8022,7.8259,7.8483,7.8733,7.9261,7.9769,8.0209,8.0209,8.0209,8.0209,0.0,0.0,0.0,0.0,0.0,0.0,0.0,0.0,0.0,0.0,0.0,0.0,0.0,0.0,0.0,0.0,0.0,0.0,3.5516,3.5673,3.5654,3.5541,3.7616,3.8325,3.7426,4.0935,4.2332,4.1441,4.4476,4.5196,4.3696,4.3436,4.3655,4.4241,4.2839,4.3117,4.4608,4.4608,4.4608,4.4668,4.5399,4.527,4.4709,0.0,0.0,0.0,0.0,0.0,0.0,0.0,4.7286,4.8285,5.0491,5.1201,5.1505,5.3036,5.504,5.6765,5.6765,5.6799,5.7374,5.9539,5.9564,6.0037,6.3768,6.4062,6.4806,6.9293,6.962,6.935,7.0071,6.962,6.935,7.0105,7.0838,7.1571,7.2293,7.2394,7.2969,7.4412,7.4615,7.4886,7.5642,7.5709,7.5709,7.5709,7.5709,7.5709,7.5709,7.5709,7.5709,7.5709,7.5709,7.5709,7.5709,7.5709,7.6115,7.6927,7.6927,7.6927,7.6927,7.7684,7.7988,7.8022,7.8022,7.8022,7.809,7.8822,7.952,8.0209,8.0209,8.0209,8.0209,8.0209,8.0209,8.0209,0.0,0.0,0.0,0.0,0.0,0.0,0.0,0.0,0.0,0.0,0.0,0.0,0.0,0.0,0.0,0.0,0.0,0.0,3.6371,3.5455,3.5538,3.7042,3.6718,3.6854,3.7666,3.9651,4.1797,4.4078,4.37,4.3814,4.4322,4.3601,4.3746,4.4507,4.4622,4.4625,4.4608,4.4608,4.4905,4.5399,4.5602,4.5872,4.6157,0.0,0.0,0.0,0.0,0.0,0.0,0.0,0.0,0.0,5.0202,5.115,5.2055,5.2536,5.3509,5.4499,5.4499,5.6765,5.9167,5.9293,6.1931,6.4908,6.6542,6.6745,6.7421,7.0364,7.0398,7.0094,7.0838,7.0793,7.0725,7.0939,7.1571,7.1988,7.1672,7.2958,7.3916,7.3849,7.4728,7.5473,7.5676,7.5709,7.5709,7.5709,7.5709,7.5709,7.5709,7.5709,7.5709,7.5709,7.5709,7.598,7.6555,7.6555,7.6927,7.7684,7.8213,7.8179,7.7684,7.7887,7.8293,7.8788,7.8788,7.9058,7.9566,7.9769,8.0006,8.0209,8.0209,8.0209,8.0209,8.0209,8.0209,8.0209,0.0,0.0,0.0,0.0,0.0,0.0,0.0,0.0,3.56,3.56,3.6022,3.6445,0.0,0.0,0.0,3.7252,3.6544,3.6209,3.6341,3.5468,3.5398,3.6444,3.6119,3.6793,3.8653,3.9385,4.0846,4.3174,4.2606,4.2759,4.3643,4.3727,4.4526,4.5933,4.6339,4.6268,4.5879,4.5616,4.5575,4.5737,4.6007,4.6387,4.6827,0.0,0.0,0.0,0.0,0.0,0.0,0.0,0.0,0.0,4.9906,5.0718,5.1725,5.3205,5.4625,5.5944,5.7162,5.9631,6.2009,6.2439,6.4705,6.7242,6.8876,6.9248,6.9643,7.103,7.0703,7.0443,7.1165,7.1064,7.0973,7.1267,7.1672,7.2011,7.2146,7.3308,7.4221,7.4368,7.5168,7.5709,7.5709,7.5709,7.5709,7.5709,7.5709,7.5709,7.5709,7.5709,7.5709,7.5709,7.6014,7.642,7.6893,7.7198,7.7718,7.845,7.8889,7.9012,7.8868,7.8868,7.9126,7.952,7.952,7.9803,8.0209,8.0209,8.0209,8.0209,8.0209,8.0209,8.0209,8.0209,8.0209,8.0209,0.0,0.0,0.0,0.0,0.0,0.0,0.0,3.6062,3.56,3.56,3.56,3.5921,0.0,0.0,0.0,3.7849,3.7359,3.6661,3.5834,3.5803,3.5509,3.4835,3.6225,3.7917,3.9827,3.9715,3.9754,3.9979,4.1256,4.1968,4.2137,4.375,4.5675,4.7789,4.7752,4.7756,4.7752,4.6955,4.6244,4.5763,4.6481,4.6793,4.6894,4.7616,0.0,0.0,0.0,0.0,0.0,0.0,0.0,0.0,4.9763,5.0244,5.0988,5.449,5.7061,5.9385,6.2134,6.3724,6.5087,6.7184,6.7444,6.7918,7.068,7.13,7.13,7.13,7.077,7.0511,7.1165,7.0737,7.0534,7.1267,7.147,7.1988,7.3319,7.3624,7.4165,7.5439,7.5676,7.5709,7.5709,7.5709,7.5709,7.5709,7.5709,7.5709,7.5709,7.5709,7.5709,7.5709,7.6487,7.6927,7.6995,7.7751,7.8483,7.9181,7.9181,7.9553,8.0209,8.0209,8.0209,8.0209,8.0209,8.0209,8.0209,8.0209,8.0209,8.0209,8.0209,8.0209,8.0209,8.0209,8.0209,8.0209,0.0,0.0,0.0,0.0,0.0,0.0,3.5842,3.5707,3.56,3.56,3.56,3.5921,3.6722,3.7319,0.0,3.7883,3.8294,3.7953,3.6575,3.7,3.7266,3.7093,3.9088,3.9558,3.8158,3.9356,3.9697,3.9067,4.0453,4.1238,4.1476,4.4154,4.5982,4.7049,4.7619,4.754,4.6955,4.5616,4.5311,4.5763,4.6481,4.6793,4.6894,4.7616,4.7455,0.0,0.0,0.0,0.0,0.0,0.0,0.0,5.0668,5.1344,5.2097,5.3543,5.5539,5.7399,5.8075,6.1366,6.485,6.5909,6.8267,7.0489,7.1165,7.13,7.13,7.13,7.1165,7.1097,7.1267,7.1165,7.13,7.2056,7.2665,7.315,7.3454,7.4503,7.5134,7.4852,7.5337,7.5709,7.5709,7.5709,7.5709,7.5709,7.5709,7.5709,7.5709,7.5709,7.5709,7.5709,7.6487,7.7164,7.7751,7.8483,7.9215,7.9972,7.9972,8.004,8.0209,8.0209,8.0209,8.0209,8.0209,8.0209,8.0209,8.0209,8.0209,8.0209,8.0209,8.0209,8.0209,8.0209,8.0209,8.0209,0.0,0.0,0.0,0.0,0.0,0.0,0.0,0.0,3.6558,3.6225,3.6158,3.6468,3.7252,3.7353,0.0,0.0,3.7895,3.7571,3.6792,3.6727,3.6866,3.7214,3.9028,3.9303,3.7748,3.9199,3.9452,3.8322,3.9813,4.0934,4.1764,4.4087,4.5744,4.6861,4.7928,4.7827,4.6759,4.5988,4.5676,4.573,4.6109,4.6481,4.6827,4.7225,4.7124,4.6861,4.7192,0.0,0.0,0.0,0.0,0.0,0.0,0.0,5.2122,5.4016,5.5369,5.6891,5.9776,6.2787,6.5639,6.7827,6.9846,7.13,7.13,7.13,7.13,7.13,7.13,7.13,7.13,7.1605,7.1943,7.2326,7.3015,7.3624,7.3984,7.4695,7.5156,7.5122,7.5473,7.5709,7.5709,7.5709,7.5709,7.5709,7.5709,7.5709,7.5709,7.6082,7.6284,7.6284,7.7367,7.8145,7.8517,7.9261,7.9837,8.0209,8.0209,8.0209,8.0209,8.0209,8.0209,8.0209,8.0209,8.0209,8.0209,8.0209,8.0209,8.0209,8.0209,8.0209,8.0209,8.0209,8.0209,8.0209,0.0,0.0,0.0,0.0,0.0,0.0,0.0,0.0,0.0,3.6891,3.679,3.7021,3.7646,3.7156,3.7054,0.0,0.0,0.0,3.6809,3.6215,3.6304,3.7179,3.8366,3.8693,3.7992,3.9145,3.9095,3.7763,3.9195,4.0704,4.2328,4.3875,4.5379,4.6861,4.8079,4.7868,4.659,4.6455,4.5981,4.5324,4.5594,4.5974,4.6428,4.6556,4.6624,4.6684,4.7312,4.7684,4.7988,4.8605,0.0,0.0,0.0,0.0,5.1911,5.4549,5.5597,5.6959,6.1907,6.4444,6.6586,7.0353,7.13,7.13,7.13,7.13,7.13,7.13,7.13,7.13,7.13,7.1909,7.2428,7.2563,7.3218,7.3962,7.4683,7.4784,7.5021,7.5642,7.5709,7.5709,7.5709,7.5709,7.5709,7.5709,7.5709,7.5743,7.5912,7.6555,7.6961,7.7096,7.8403,7.9114,7.9114,7.9837,8.0209,8.0209,8.0209,8.0209,8.0209,8.0209,8.0209,8.0209,8.0209,8.0209,8.0209,8.0209,8.0209,8.0209,8.0209,8.0209,8.0209,8.0209,8.0209,8.0209,0.0,0.0,0.0,0.0,0.0,0.0,0.0,0.0,0.0,0.0,3.679,3.6829,3.6925,3.6857,3.6823,3.6925,3.8025,3.8137,3.6807,0.0,0.0,3.9578,3.9811,3.9526,3.8681,3.89,3.8573,3.7639,3.8601,4.0175,4.2332,4.3887,4.5379,4.6827,4.6996,4.6616,4.5805,4.5169,4.4425,4.3822,4.5148,4.5372,4.4973,4.5602,4.5831,4.5865,4.5966,4.6805,4.7921,4.8022,4.8943,0.0,0.0,0.0,5.2359,5.3475,5.5133,5.6833,5.7645,6.168,6.6586,7.0353,7.13,7.13,7.13,7.13,7.13,7.13,7.13,7.13,7.13,7.1909,7.2597,7.3251,7.3984,7.4717,7.5439,7.554,7.5574,7.5676,7.5709,7.5709,7.5709,7.5709,7.5709,7.5709,7.5709,7.6014,7.669,7.6826,7.7198,7.7819,7.864,7.9114,7.9114,7.9837,8.0209,8.0209,8.0209,8.0209,8.0209,8.0209,8.0209,8.0209,8.0209,8.0209,8.0209,8.0209,8.0209,8.0209,8.0209,8.0209,8.0209,8.0209,8.0209,8.0209,0.0,0.0,0.0,0.0,0.0,0.0,0.0,0.0,0.0,0.0,0.0,3.8036,3.8036,3.7297,3.679,3.679,3.6974,3.6978,3.6723,3.7808,3.8553,3.8786,3.9641,3.9531,3.8262,3.8656,3.872,3.8315,3.8704,4.0296,4.2925,4.4055,4.5379,4.6793,4.6387,4.6,4.5628,4.4411,4.3978,4.4079,4.4309,4.5493,4.6928,4.5575,4.6116,4.7387,4.6136,4.6372,4.7353,4.7752,4.8875,5.0143,5.0473,0.0,0.0,0.0,5.3856,5.5683,5.9041,6.3057,6.7117,7.0455,7.13,7.13,7.13,7.13,7.13,7.13,7.13,7.1436,7.1842,7.2529,7.3251,7.3984,7.4728,7.5337,7.5642,7.5709,7.5709,7.5709,7.5709,7.5709,7.5709,7.5709,7.5709,7.5709,7.6115,7.6521,7.6893,7.7671,7.8268,7.8619,7.9329,7.9735,7.9735,8.004,8.0209,8.0209,8.0209,8.0209,8.0209,8.0209,8.0209,8.0209,8.0209,8.0209,8.0209,8.0209,8.0209,8.0209,8.0209,8.0209,8.0209,8.0209,8.0209,8.0209,0.0,0.0,0.0,0.0,0.0,0.0,0.0,0.0,0.0,0.0,0.0,3.9011,3.9011,0.0,0.0,0.0,3.6406,3.6517,3.7235,3.8167,3.8596,3.84,3.9276,3.9249,3.809,3.8615,3.8813,3.8621,3.92,4.0834,4.3436,4.4618,4.6056,4.7605,4.6677,4.5933,4.5365,4.4404,4.4215,4.4608,4.4749,4.6508,4.8841,4.7402,4.8214,4.9856,4.7631,4.7293,4.7902,4.7887,4.8774,4.9838,5.0041,5.0853,0.0,0.0,0.0,5.4634,5.9853,6.299,6.5686,6.9271,7.0319,7.059,7.1165,7.13,7.13,7.13,7.1436,7.1808,7.2529,7.3116,7.3725,7.448,7.5236,7.5709,7.5709,7.5709,7.5709,7.5709,7.5709,7.5709,7.5709,7.5709,7.5777,7.598,7.6555,7.7063,7.7435,7.8505,7.9181,7.9384,7.9904,8.0209,8.0209,8.0209,8.0209,8.0209,8.0209,8.0209,8.0209,8.0209,8.0209,8.0209,8.0209,8.0209,8.0209,8.0209,8.0209,8.0209,8.0209,8.0209,8.0209,8.0209,8.0209,8.0209,0.0,0.0,0.0,0.0,0.0,0.0,0.0,0.0,0.0,0.0,0.0,3.9011,3.9011,3.8294,3.755,3.6857,3.7385,3.8087,3.8839,3.8238,3.8518,3.9912,3.9322,0.0,3.884,3.8881,3.8559,3.7865,4.0027,4.1882,4.3436,4.564,4.7849,4.9872,4.8436,4.6609,4.4709,4.5331,4.5196,4.4845,4.7597,4.8849,4.9289,5.1995,5.3137,5.2976,5.0684,5.0338,5.066,4.8589,4.8436,4.9187,4.9872,5.0143,5.0481,0.0,0.0,0.0,5.7282,5.8761,6.0636,6.5753,6.7546,6.8639,7.0827,7.13,7.13,7.13,7.1853,7.2563,7.3319,7.3454,7.3725,7.448,7.5236,7.5709,7.5709,7.5709,7.5709,7.5709,7.5709,7.5709,7.5709,7.5709,7.6014,7.6792,7.6893,7.7502,7.8911,7.9046,7.9418,8.0107,8.0175,8.0209,8.0209,8.0209,8.0209,8.0209,8.0209,8.0209,8.0209,8.0209,8.0209,8.0209,8.0209,8.0209,8.0209,8.0209,8.0209,8.0209,8.0209,8.0209,8.0209,8.0209,8.0209,8.0209,0.0,0.0,0.0,0.0,0.0,0.0,0.0,0.0,0.0,0.0,0.0,0.0,0.0,3.9045,3.8504,3.8239,3.8024,3.8221,3.8943,3.8742,3.8789,3.9302,3.9043,3.8901,3.8901,3.8435,3.8295,3.8504,3.9333,4.0749,4.2723,4.5014,4.6786,4.7977,4.7928,4.7718,4.7293,4.5121,4.4647,4.5466,4.7488,4.9755,5.2021,5.3078,5.4964,5.6689,5.3966,0.0,5.2562,5.175,5.0998,5.0397,5.0176,5.0405,5.1006,5.1995,5.2503,5.3484,5.6943,5.8094,5.9336,6.3612,6.5956,6.7512,6.8831,7.0252,7.13,7.13,7.1875,7.2631,7.3353,7.3883,7.4458,7.5202,7.554,7.5709,7.5709,7.5709,7.5709,7.5709,7.5709,7.5709,7.5709,7.5709,7.6014,7.6826,7.7333,7.8044,7.9046,7.9566,7.9938,8.0175,8.0209,8.0209,8.0209,8.0209,8.0209,8.0209,8.0209,8.0209,8.0209,8.0209,8.0209,8.0209,8.0209,8.0209,8.0209,8.0209,8.0209,8.0209,8.0209,8.0209,8.0209,8.0209,8.0209,8.0209,0.0,0.0,0.0,4.0113,0.0,3.9836,3.9113,3.9633,3.9836,3.9085,0.0,0.0,0.0,0.0,3.9161,3.8648,3.8161,3.809,3.8575,3.8596,3.8687,3.8888,3.8663,3.8649,3.8894,3.8387,3.8398,3.8901,3.9375,4.0543,4.236,4.4644,4.6237,4.7192,4.7421,4.7928,4.8469,4.5959,4.552,4.6677,4.9146,5.1344,5.3272,5.504,5.6925,5.8389,0.0,0.0,0.0,5.5268,5.4659,5.3577,5.2063,5.1251,5.0972,5.1716,5.2097,5.2909,5.5658,5.6605,5.7688,6.1424,6.3453,6.5212,6.7726,6.9282,7.0387,7.1131,7.2078,7.2913,7.3421,7.4289,7.5122,7.5608,7.5709,7.5709,7.5709,7.5709,7.5709,7.5709,7.5709,7.5709,7.5709,7.5946,7.642,7.7198,7.7954,7.8686,7.9418,7.9938,8.0209,8.0209,8.0209,8.0209,8.0209,8.0209,8.0209,8.0209,8.0209,8.0209,8.0209,8.0209,8.0209,8.0209,8.0209,8.0209,8.0209,8.0209,8.0209,8.0209,8.0209,8.0209,8.0209,8.0209,8.0209,8.0209,4.0113,4.0113,4.0113,4.0113,4.0113,3.9869,3.9146,3.9633,3.9836,3.9119,0.0,0.0,0.0,0.0,0.0,3.8005,3.7932,3.7931,3.7814,3.7801,3.811,3.8834,3.8154,3.8137,3.888,3.8807,3.881,3.8866,4.028,4.139,4.2264,4.4562,4.6433,4.7819,4.7124,4.7192,4.7845,4.7819,4.7845,4.8326,5.2739,5.3653,5.301,5.8186,5.9302,0.0,5.8127,5.8127,0.0,5.8921,5.909,5.8447,5.5446,5.2477,5.021,5.0972,5.1716,5.2469,0.0,0.0,0.0,5.9032,5.9979,6.1569,6.7489,6.8267,6.8402,7.0725,7.236,7.3387,7.3488,7.4706,7.5709,7.5709,7.5709,7.5709,7.5709,7.5709,7.5709,7.5709,7.5709,7.5709,7.5709,7.642,7.7164,7.7954,7.8653,7.9384,8.0175,8.0209,8.0209,8.0209,8.0209,8.0209,8.0209,8.0209,8.0209,8.0209,8.0209,8.0209,8.0209,8.0209,8.0209,8.0209,8.0209,8.0209,8.0209,8.0209,8.0209,8.0209,8.0209,8.0209,8.0209,8.0209,8.0209,8.0209,4.0113,4.0113,4.0113,4.0113,4.0113,4.0045,3.9836,3.9971,4.0045,0.0,0.0,0.0,3.9839,4.0458,4.0498,3.9564,3.948,3.9014,3.7867,3.7786,3.789,3.8097,3.7352,3.7545,3.8814,3.8255,3.7949,3.7958,3.9466,4.0362,4.0697,4.2979,4.4843,4.6331,4.665,4.6928,4.7022,4.5981,4.6752,4.8909,5.1209,5.3509,5.5953,0.0,0.0,0.0,0.0,6.3203,6.2787,0.0,6.0892,5.7476,5.3408,5.0845,4.9552,5.0829,5.1336,5.1818,5.3145,0.0,0.0,0.0,0.0,0.0,6.1975,6.3294,6.486,6.8166,6.962,7.0984,7.3116,7.4706,7.5709,7.5709,7.5709,7.5709,7.5709,7.5709,7.5709,7.5709,7.5709,7.5709,7.5709,7.5912,7.6589,7.7887,7.8191,7.8855,8.0141,8.0209,8.0209,8.0209,8.0209,8.0209,8.0209,8.0209,8.0209,8.0209,8.0209,8.0209,8.0209,8.0209,8.0209,8.0209,8.0209,8.0209,8.0209,8.0209,8.0209,8.0209,8.0209,8.0209,8.0209,8.0209,8.0209,8.0209,4.0113,4.0113,4.0208,4.0506,4.0574,4.0675,4.098,4.0743,4.0675,0.0,0.0,0.0,4.0501,4.0517,4.0438,4.0136,3.9776,3.9052,3.7868,3.7501,3.7293,3.7293,3.6817,3.7102,3.8281,3.8044,3.7969,3.8008,3.9191,3.9802,3.9921,4.195,4.3533,4.4726,4.5539,4.6218,4.6725,4.5541,4.6583,4.9255,5.2325,0.0,0.0,6.0714,6.2888,0.0,0.0,0.0,6.4015,6.6203,6.3541,0.0,0.0,5.2596,5.0093,5.0964,5.1404,5.1919,5.3171,5.3509,5.3754,5.4803,0.0,0.0,6.1129,6.2448,6.4072,6.8436,7.0195,7.1458,7.3184,7.4706,7.5709,7.5709,7.5709,7.5709,7.5709,7.5709,7.5709,7.5709,7.5709,7.5709,7.5709,7.6014,7.669,7.7921,7.8293,7.8957,8.0141,8.0209,8.0209,8.0209,8.0209,8.0209,8.0209,8.0209,8.0209,8.0209,8.0209,8.0209,8.0209,8.0209,8.0209,8.0209,8.0209,8.0209,8.0209,8.0209,8.0209,8.0209,8.0209,8.0209,8.0209,8.0209,8.0209,8.0209,0.0,4.0208,4.0472,4.1305,4.1434,4.1645,4.2274,4.1922,4.1747,0.0,4.1095,4.0534,4.126,4.0531,4.0056,4.017,3.9329,3.8478,3.7711,3.6921,3.6515,3.6577,3.6528,3.688,3.7687,3.8167,3.8473,3.8571,3.9347,3.974,3.9734,4.1421,4.259,4.3312,4.41,4.5267,4.6658,4.6136,4.7353,5.0033,5.4659,5.6452,0.0,0.0,6.3081,6.2516,6.5131,6.486,6.3947,6.8345,6.6248,0.0,0.0,0.0,5.208,5.1472,5.2021,5.2909,5.3374,5.3551,5.3923,5.5166,5.5108,0.0,6.2144,6.298,6.3917,6.8899,7.1041,7.2101,7.2439,7.3793,7.4796,7.4728,7.5067,7.5405,7.5676,7.5709,7.5709,7.5709,7.5709,7.5709,7.5709,7.642,7.7198,7.7954,7.8754,7.952,8.0175,8.0209,8.0209,8.0209,8.0209,8.0209,8.0209,8.0209,8.0209,8.0209,8.0209,8.0209,8.0209,8.0209,8.0209,8.0209,8.0209,8.0209,8.0209,8.0209,8.0209,8.0209,8.0209,8.0209,8.0209,8.0209,8.0209,8.0209,4.0865,4.1001,4.1407,4.2746,4.2976,4.296,4.2932,4.3497,4.344,4.2013,4.2198,4.2737,4.3355,4.2909,4.2041,4.0706,3.9436,3.8148,3.6856,3.61,3.5951,3.6501,3.6517,3.7048,3.8232,3.8338,3.842,3.8443,3.991,4.0314,3.9734,4.1421,4.259,4.3323,4.3487,4.4415,4.5966,4.7041,4.9822,5.3594,5.4609,5.7103,6.0578,6.3971,6.6237,6.7658,6.8233,6.8538,6.8548,6.776,6.6305,6.3981,0.0,0.0,0.0,5.3306,5.3923,5.5581,5.3957,5.3923,5.4296,5.4025,5.4727,0.0,5.6402,5.6436,5.7306,6.0714,6.21,6.3463,6.5899,6.803,6.9214,6.8628,7.1075,7.368,7.5439,7.5709,7.5709,7.5709,7.5709,7.5709,7.5709,7.642,7.7198,7.7954,7.9228,8.004,8.0175,8.0209,8.0209,8.0209,8.0209,8.0209,8.0209,8.0209,8.0209,8.0209,8.0209,8.0209,8.0209,8.0209,8.0209,8.0209,8.0209,8.0209,8.0209,8.0209,8.0209,8.0209,8.0209,8.0209,8.0209,8.0209,8.0209,8.0209,4.0968,4.0791,4.1088,4.3027,4.2977,4.3299,4.5212,4.522,4.4902,4.4626,4.4457,4.4196,4.3843,4.3525,4.2788,4.143,3.9933,3.862,3.7621,3.686,3.6588,3.6926,3.7263,3.7892,3.8871,3.8901,3.905,3.9418,3.9916,3.9955,3.9586,4.1303,4.3269,4.5359,4.4777,4.6152,4.8943,4.8225,4.9856,5.3179,5.6122,0.0,6.3812,6.6823,6.865,6.9688,7.006,7.0421,7.0398,6.8132,6.6136,0.0,6.1941,6.0452,5.8887,0.0,5.5886,5.6799,5.4194,5.3788,5.4059,5.4059,0.0,0.0,0.0,5.6494,5.7214,6.0544,6.1559,6.2371,6.4241,6.5797,6.6812,6.6802,6.9643,7.1988,7.236,7.4322,7.5709,7.5709,7.5709,7.5845,7.6251,7.6657,7.7367,7.8483,7.9566,8.0209,8.0209,8.0209,8.0209,8.0209,8.0209,8.0209,8.0209,8.0209,8.0209,8.0209,8.0209,8.0209,8.0209,8.0209,8.0209,8.0209,8.0209,8.0209,8.0209,8.0209,8.0209,8.0209,8.0209,8.0209,8.0209,8.0209,8.0209,8.0209,4.1052,4.0826,4.1159,4.3326,4.3205,4.3816,4.6837,4.6319,4.5922,4.7009,4.6495,4.5598,4.4551,4.4325,4.3972,4.3329,4.1605,4.026,3.9573,3.8676,3.8242,3.8362,3.8401,3.891,3.9939,3.9601,3.967,4.0208,3.9821,3.9571,3.9427,4.1128,4.3642,4.6649,4.6511,4.8386,5.1555,4.989,5.0728,5.3568,5.8389,6.1873,6.459,6.8176,6.9563,6.9688,7.0861,7.13,7.0962,6.8673,6.6339,6.4367,6.4556,6.2821,0.0,0.0,0.0,0.0,0.0,0.0,0.0,0.0,0.0,5.4972,0.0,0.0,0.0,6.0984,6.1786,6.2168,6.2777,6.37,6.4512,6.4806,6.7749,6.9474,6.803,7.1515,7.4322,7.4605,7.527,7.5845,7.6217,7.6251,7.7096,7.9147,7.9329,7.96,8.0175,8.0209,8.0209,8.0209,8.0209,8.0209,8.0209,8.0209,8.0209,8.0209,8.0209,8.0209,8.0209,8.0209,8.0209,8.0209,8.0209,8.0209,8.0209,8.0209,8.0209,8.0209,8.0209,8.0209,8.0209,8.0209,8.0209,8.0209,4.1736,4.2509,4.3399,4.489,4.5616,4.5804,4.5241,4.5704,4.6055,4.5912,4.6813,4.7458,4.7493,4.7316,4.7481,4.8151,4.6001,4.4118,4.2937,4.166,4.1224,4.1811,3.9637,3.9547,4.2021,4.0307,3.9451,3.9511,4.0222,4.0144,3.9439,4.1015,4.2411,4.377,4.7488,4.9243,4.9552,5.2579,5.6292,6.0206,6.0892,6.0225,5.9413,6.5053,6.7208,6.7546,7.0319,7.13,7.0962,0.0,6.7692,6.6609,0.0,6.3565,6.5425,5.7999,0.0,0.0,0.0,0.0,0.0,0.0,5.6494,5.6842,0.0,0.0,5.4913,5.4659,0.0,5.6612,5.6713,0.0,0.0,5.8143,6.211,6.485,6.3372,6.6406,6.9282,7.0646,7.3725,7.5202,7.3996,7.3894,7.562,7.9769,7.7671,7.7367,8.0073,8.0209,8.0209,8.0209,8.0209,8.0209,8.0209,8.0209,8.0209,8.0209,8.0209,8.0209,8.0209,8.0209,8.0209,8.0209,8.0209,8.0209,8.0209,8.0209,8.0209,8.0209,8.0209,8.0209,8.0209,8.0209,8.0209,8.0209,4.1108,4.1496,4.198,4.3123,4.3768,4.4602,4.603,4.7404,4.8087,4.7559,4.7834,4.7945,4.7623,4.753,0.0,0.0,0.0,4.5903,0.0,0.0,4.3459,4.294,4.1523,4.1233,4.2381,4.0825,3.9969,3.9969,3.9954,3.9764,3.9439,4.0992,4.3597,4.71,4.9793,5.2638,5.5446,5.5302,5.6562,5.8693,5.8693,5.8355,5.8736,6.6464,6.9406,6.9575,7.0861,7.13,7.1165,0.0,6.8132,6.6068,6.6464,6.5459,6.3555,6.0984,6.0839,6.0849,5.7679,5.7645,5.8186,5.6722,5.7137,0.0,5.4702,0.0,5.3991,0.0,0.0,0.0,0.0,0.0,0.0,0.0,6.0114,6.2144,6.0655,6.4367,6.7817,6.9383,7.0534,7.1954,7.395,7.4153,7.5811,7.9904,7.7401,7.7029,8.004,8.0209,8.0209,8.0209,8.0209,8.0209,8.0209,8.0209,8.0209,8.0209,8.0209,8.0209,8.0209,8.0209,8.0209,8.0209,8.0209,8.0209,8.0209,8.0209,8.0445,8.083,8.083,8.0581,8.0209,8.0209,8.0209,8.0209,4.0489,4.0874,4.1267,4.1944,4.2603,4.3821,4.6134,4.7682,4.8469,4.8152,4.8207,4.838,4.8557,4.8615,0.0,0.0,4.9806,4.9164,0.0,0.0,4.6461,4.6031,4.3848,0.0,4.3988,4.2002,4.0855,4.0666,4.0187,4.0029,4.0256,4.1374,4.4241,4.8545,5.0977,5.4472,5.8449,5.7486,5.8029,5.953,5.9336,6.0182,6.2178,6.7884,7.059,7.13,7.13,7.13,7.1199,7.059,6.8189,6.5967,6.8628,6.6531,6.3193,6.3656,6.3047,6.1704,5.9302,5.9428,5.9723,5.7645,5.7485,5.7282,5.4846,0.0,0.0,0.0,0.0,0.0,0.0,0.0,5.6646,5.6799,0.0,6.0375,5.865,6.1999,6.5246,6.6779,6.7151,6.891,7.2992,7.2653,7.4052,7.8619,7.6183,7.6149,8.0006,8.0209,8.0209,8.0209,8.0209,8.0209,8.0209,8.0209,8.0209,8.0209,8.0209,8.0209,8.0209,8.0209,8.0209,8.0209,8.0412,8.0492,8.0526,8.0716,8.1122,8.1608,8.1608,8.1257,8.0818,8.0818,8.0818,8.0818,4.0404,4.1653,4.2705,4.2691,4.3827,4.4659,4.4429,4.4987,4.5656,4.6294,4.751,0.0,0.0,0.0,0.0,0.0,0.0,5.5341,5.4,0.0,5.0877,5.2797,4.67,4.4775,0.0,4.4317,4.2021,4.1373,4.1343,4.1682,4.2291,4.235,4.3308,4.5157,5.0101,5.3107,5.4741,5.8825,6.2853,6.643,6.5696,6.7624,7.059,6.7952,6.8764,7.13,7.13,7.13,7.0962,6.8741,6.7895,6.7455,6.5459,6.6136,6.7286,6.5189,6.6034,6.7015,6.4096,6.3308,6.2472,5.877,5.7891,5.7112,5.4194,5.4625,5.5437,0.0,0.0,0.0,5.7823,5.8423,5.8438,5.7027,5.8693,0.0,0.0,5.8244,5.9825,6.1366,6.4048,6.6958,7.0037,6.7703,6.8718,7.5337,7.3093,7.4006,7.9904,8.0209,8.0209,8.0209,8.0209,8.0209,8.0209,8.0209,8.0209,8.0209,8.0209,8.0209,8.0209,8.0209,8.0209,8.0242,8.0966,8.127,8.1304,8.2035,8.2327,8.2361,8.2361,8.2361,8.2327,8.2327,8.2327,8.2327,4.1064,4.1867,4.2404,4.1912,4.2932,4.4076,4.4847,4.6292,4.7668,0.0,4.965,0.0,0.0,5.3477,5.4305,0.0,0.0,5.582,5.491,5.2785,0.0,0.0,0.0,4.6431,0.0,4.5494,4.3339,4.2711,4.2271,4.2391,4.299,4.2601,4.3775,4.6367,5.0476,5.4664,5.8733,6.0621,6.35,6.6768,6.6531,6.8098,7.05,6.9981,7.041,7.13,7.13,7.13,7.1199,7.0421,6.9147,6.803,6.8797,6.7512,6.5865,6.6576,6.662,6.6349,6.5821,6.6779,6.6914,6.2685,6.1603,6.0443,5.5978,5.5708,5.608,0.0,0.0,0.0,0.0,5.8094,5.8118,5.762,5.8161,5.8051,0.0,5.6925,5.8278,0.0,0.0,0.0,0.0,0.0,7.0443,7.4649,7.4492,7.5946,8.0006,8.0209,8.0209,8.0209,8.0209,8.0209,8.0209,8.0209,8.0209,8.0209,8.0209,8.0209,8.0209,8.0729,8.0932,8.0966,8.1697,8.2035,8.2069,8.2306,8.2699,8.3118,8.3118,8.3409,8.3748,8.2767,8.2395,8.2395,4.2441,4.296,4.309,4.1952,4.3,4.4446,4.5813,4.7698,4.9363,0.0,5.1367,0.0,5.4371,0.0,5.5777,0.0,5.7676,5.7466,5.6316,5.5029,0.0,5.5555,5.1666,0.0,0.0,4.8356,4.6102,4.5505,4.4108,4.3758,4.4346,4.3728,4.4619,4.6803,4.9619,5.4251,5.9981,6.1131,6.4253,6.8415,6.8696,6.9823,7.1424,7.1887,7.174,7.1368,7.1875,7.2078,7.2078,7.2078,7.1109,7.0161,7.1616,7.0094,6.8041,6.9451,6.9225,6.8447,6.8425,6.9485,6.9654,6.5652,6.4661,6.3386,5.8414,5.8051,5.8457,5.7248,5.8287,0.0,0.0,5.9954,5.8872,5.9413,5.8804,5.7881,0.0,5.69,0.0,0.0,0.0,0.0,0.0,0.0,6.8842,7.4209,7.4086,7.5642,7.9972,8.0209,8.0209,8.0209,8.0209,8.0209,8.0209,8.0209,8.0209,8.0209,8.0209,8.0344,8.0627,8.1067,8.1439,8.1744,8.2475,8.278,8.28,8.3071,8.3477,8.3883,8.3883,8.4187,8.4478,8.3545,8.3172,8.3172,4.4366,4.4885,4.4776,4.297,4.4127,4.5813,4.7149,4.8962,5.0476,0.0,5.2546,5.3935,5.5341,5.6555,5.7812,5.9099,6.0342,6.0282,5.8354,5.8145,0.0,0.0,5.6316,5.582,5.7154,0.0,0.0,4.9378,4.6661,4.5683,4.632,4.5633,4.5693,4.642,4.7739,5.2023,5.8442,6.047,6.526,7.147,7.2191,7.2834,7.3454,7.3522,7.2665,7.1605,7.3015,7.3488,7.3488,7.3488,7.3488,7.3488,7.3488,7.3488,7.3488,7.3488,7.3522,7.3251,7.1842,7.1503,7.0793,6.7817,6.7039,6.5821,6.1434,6.1603,6.2458,6.167,6.0994,6.2009,0.0,6.3632,6.0689,6.2018,6.0351,5.865,5.7992,0.0,0.0,0.0,0.0,0.0,0.0,0.0,0.0,0.0,7.1887,7.3285,7.9837,8.0006,8.0006,8.0175,8.0209,8.0209,8.0209,8.0209,8.0209,8.0209,8.0209,8.0593,8.1304,8.1338,8.1765,8.2496,8.3219,8.3558,8.3625,8.4323,8.4614,8.4614,8.4614,8.4614,8.4614,8.4614,8.4614,8.4614,4.5035,4.5593,4.6042,4.6052,4.6042,4.6491,4.7859,4.9262,5.1176,0.0,5.5299,5.6974,5.9325,5.9863,6.0222,6.0551,6.091,0.0,0.0,0.0,0.0,6.0984,5.7304,5.6256,5.853,5.3581,0.0,5.072,4.7568,4.6401,4.7029,4.5843,4.5933,4.7089,4.7908,5.1997,5.8417,6.1012,6.6293,7.2947,7.315,7.3015,7.28,7.3916,7.3747,7.2981,7.3353,7.3488,7.3488,7.3488,7.3488,7.3488,7.3488,7.3488,7.3488,7.3488,7.3883,7.4243,7.3871,7.4142,7.3984,7.1582,7.0128,6.8571,6.5719,6.5797,6.6102,6.4827,6.5764,6.6339,6.4908,0.0,0.0,6.0172,0.0,0.0,0.0,0.0,0.0,5.9336,0.0,0.0,0.0,0.0,0.0,0.0,7.236,7.5439,7.9972,7.7558,7.7333,8.0107,8.0209,8.0209,8.0209,8.0209,8.0209,8.0209,8.0209,8.0593,8.1304,8.1866,8.2509,8.3253,8.3984,8.4323,8.4323,8.4512,8.4614,8.4614,8.4614,8.4614,8.4614,8.4614,8.4614,8.4614,4.6531,4.7358,4.8114,4.8514,4.8974,4.9583,5.0313,5.1307,5.2833,5.5311,5.7017,5.8441,5.9654,6.0821,6.1553,6.1553,6.1822,0.0,6.0715,0.0,0.0,6.1208,5.9561,5.9352,6.0805,5.6795,0.0,5.2965,4.9931,4.8046,4.7268,4.6531,4.6591,4.7339,4.8308,5.1793,5.7281,6.2728,6.7619,7.1893,7.337,7.3916,0.0,7.475,7.483,7.4469,7.4469,7.4469,7.4469,7.4469,7.4469,7.4469,7.4469,7.4469,7.4469,7.4469,7.4762,7.51,7.51,7.5371,7.5405,7.4153,7.3218,7.1921,6.9339,6.9102,6.9136,6.8335,6.8368,6.8639,6.8797,6.5922,0.0,0.0,0.0,0.0,0.0,0.0,0.0,0.0,6.0182,0.0,0.0,0.0,0.0,0.0,0.0,7.4514,7.7604,7.6374,7.7029,8.0107,7.9566,7.9545,8.0175,7.9566,7.9566,8.0209,8.0513,8.1067,8.1799,8.2543,8.3274,8.3984,8.4411,8.4614,8.4614,8.4614,8.4614,8.4614,8.4614,8.4614,8.4614,8.4614,8.4614,8.4614,4.8416,4.9662,5.0536,5.0357,5.2067,5.3545,5.3815,5.4341,5.5209,5.6551,5.8334,5.9295,5.8816,6.0835,6.2225,6.2225,6.2764,6.2359,6.0609,6.2135,6.2315,6.0579,6.218,6.3108,6.3108,6.0475,5.7812,0.0,5.2504,4.9871,4.7309,4.7309,4.7309,4.7369,4.8618,5.1807,5.6767,6.4849,6.9055,7.0586,7.3541,7.5028,7.5436,7.5513,7.5559,7.5593,7.566,7.5701,7.5709,7.5709,7.5709,7.5709,7.5709,7.5709,7.5709,7.5709,7.5709,7.5709,7.5709,7.5709,7.5709,7.5709,7.5709,7.5033,7.245,7.1875,7.1875,7.1875,7.0297,7.0195,7.4356,6.9,6.2743,0.0,0.0,0.0,0.0,0.0,0.0,0.0,0.0,0.0,0.0,0.0,0.0,0.0,0.0,7.1537,7.4446,7.5405,7.7198,8.0107,7.8969,7.88,7.9904,7.8834,7.8868,8.0073,8.0898,8.1744,8.2564,8.3219,8.3883,8.4614,8.4614,8.4614,8.4614,8.4614,8.4614,8.4614,8.4614,8.4614,8.4614,8.4614,8.4614,8.4614,4.9848,5.1367,5.2336,5.1217,5.3144,5.5388,5.6991,5.735,5.7889,5.9232,6.0699,6.1746,6.2165,6.2644,6.2914,6.2914,6.3033,0.0,0.0,0.0,0.0,6.2599,6.2928,6.3108,6.3108,6.0475,5.7812,0.0,5.2504,4.9871,4.7309,4.7309,4.7309,4.7328,4.8128,5.3214,6.15,6.5758,7.031,7.4682,7.5266,7.4881,7.4013,7.452,7.4777,7.494,7.5485,7.571,7.5709,7.5709,7.5709,7.5709,7.5709,7.5709,7.5709,7.5709,7.5709,7.5709,7.5709,7.5709,7.5709,7.5709,7.5709,7.5574,7.5067,7.4931,7.4931,7.4931,7.4627,7.3883,7.2349,6.8865,6.5212,0.0,0.0,0.0,0.0,0.0,0.0,0.0,0.0,0.0,0.0,0.0,0.0,0.0,0.0,0.0,7.4243,7.1977,7.3443,8.0006,7.9938,7.9329,7.8394,7.9342,7.9634,7.9317,8.0661,8.2014,8.3321,8.3422,8.3883,8.4614,8.4614,8.4614,8.4614,8.4614,8.4614,8.4614,8.4614,8.4614,8.4614,8.4614,8.4614,8.4614,5.2282,5.3042,5.3713,5.3773,5.5418,5.7261,5.889,6.0027,6.0535,6.016,6.0954,6.1583,6.1537,6.2479,6.3108,6.3108,6.3108,6.3108,6.3108,6.3108,6.3108,6.3108,6.3108,6.3243,6.3572,6.2301,5.9847,5.6179,5.4593,5.1738,4.7818,4.7459,4.7309,4.7429,5.0152,5.4283,5.9562,6.4619,6.851,7.1448,7.3272,7.4259,7.4719,7.4996,7.5675,7.6437,7.678,7.6893,7.6906,7.6906,7.6906,7.6906,7.6906,7.6906,7.6906,7.6906,7.6906,7.6906,7.6906,7.6906,7.6906,7.6906,7.6906,7.6906,7.6906,7.6906,7.6906,7.6906,7.6906,7.5992,7.3003,6.9654,6.7039,0.0,0.0,0.0,0.0,0.0,0.0,0.0,0.0,0.0,0.0,0.0,0.0,0.0,0.0,0.0,7.4243,7.1842,7.3308,8.0006,7.9477,7.9105,7.9139,7.9105,7.9477,8.0242,8.1359,8.2441,8.3524,8.3896,8.4255,8.4614,8.4614,8.4614,8.4614,8.4614,8.4614,8.4614,8.4614,8.4614,8.4614,8.4614,8.4614,8.4614,5.482,5.5047,5.5538,5.6449,5.7782,5.9145,6.034,6.2106,6.2674,6.0968,6.1194,6.1373,6.0968,6.2345,6.3333,6.3482,6.3512,6.3512,6.3512,6.3512,6.3512,6.3512,6.3512,6.3722,6.4216,6.4216,6.2151,0.0,0.0,5.3905,4.9116,4.8158,4.8027,4.8716,5.2504,5.5578,5.8278,6.383,6.7018,6.8548,7.1448,7.3458,7.4773,7.4876,7.5931,7.7308,7.7429,7.772,7.8043,7.8363,7.8259,7.7988,7.7988,7.7988,7.7988,7.7988,7.7988,7.7988,7.7988,7.7988,7.7988,7.7988,7.7988,7.7988,7.7988,7.7988,7.7988,7.7988,7.7988,7.7075,7.4063,7.1627,6.9823,6.9214,0.0,0.0,0.0,0.0,0.0,0.0,0.0,0.0,0.0,0.0,0.0,0.0,0.0,0.0,7.3127,7.2078,7.3803,7.9329,7.836,7.8157,7.8991,7.88,7.9511,8.1067,8.2137,8.3003,8.3761,8.4356,8.4614,8.4614,8.4614,8.4614,8.4614,8.4614,8.4614,8.4614,8.4614,8.4614,8.4614,8.4614,8.4614,8.4614,5.6825,5.7812,5.8501,5.8008,5.9534,6.106,6.1792,6.3049,6.3662,6.2928,6.2854,6.3093,6.3588,6.3797,6.4156,6.477,6.4815,6.4815,6.4815,6.4815,6.4815,6.4815,6.4815,6.4859,6.4919,6.4904,6.3543,0.0,0.0,5.5239,5.1798,4.9965,5.0384,5.2677,5.3743,5.7696,6.3658,6.5444,6.8412,7.1984,7.2866,7.2581,7.1678,7.2242,7.3463,7.5004,7.5606,7.6734,7.8119,7.9532,7.9105,7.7988,7.7988,7.7988,7.7988,7.7988,7.7988,7.7988,7.7988,7.7988,7.7988,7.7988,7.7988,7.7988,7.7988,7.7988,7.7988,7.7988,7.7988,7.7075,7.4063,7.5451,7.5315,6.9958,0.0,0.0,0.0,0.0,7.0714,0.0,0.0,0.0,0.0,6.3081,0.0,0.0,6.555,0.0,0.0,7.0692,7.3127,7.7096,7.7063,7.642,7.5156,7.9037,8.0763,8.031,8.2408,8.3781,8.4512,8.458,8.4614,8.4614,8.4614,8.4614,8.4614,8.4614,8.4614,8.4614,8.4614,8.4614,8.4614,8.4614,8.4614,8.4614,5.9518,5.9265,5.9518,6.0864,6.1104,6.1718,6.3573,6.4261,6.45,6.4261,6.4231,6.4321,6.456,6.459,6.471,6.4964,6.4994,6.4994,6.4994,6.4994,6.4994,6.4994,6.4994,6.5174,6.5577,6.5607,6.4515,0.0,0.0,5.6825,5.3952,5.2785,5.3623,5.6256,5.889,6.1586,6.4278,6.6801,6.9061,7.0998,7.1183,7.1735,7.2425,7.2704,7.3821,7.5353,7.6535,7.7372,7.8144,7.9683,7.9203,7.8113,7.9044,7.9342,7.9342,7.9342,7.9342,7.9342,7.9342,7.9342,7.9342,7.9342,7.9342,7.9342,7.9342,7.9342,7.9342,7.9342,7.9342,7.8957,7.7739,7.6657,7.5912,7.5777,7.4503,0.0,0.0,0.0,0.0,0.0,0.0,0.0,0.0,0.0,0.0,0.0,0.0,0.0,0.0,0.0,7.1718,7.4119,7.7232,7.7942,7.6014,7.9511,8.1372,8.1562,8.2881,8.3883,8.4614,8.4614,8.4614,8.4614,8.4614,8.4614,8.4614,8.4614,8.4614,8.4614,8.4614,8.4614,8.4614,8.4614,8.4614,8.4614,6.1868,6.118,6.1194,6.3288,6.2869,6.2945,6.4979,6.5293,6.5353,6.5577,6.5577,6.5518,6.5338,6.5293,6.5353,6.5577,6.5577,6.5577,6.5577,6.5577,6.5577,6.5577,6.5577,6.5817,6.6281,6.649,6.5937,6.4545,6.2061,5.9787,5.7766,5.6526,5.732,5.9983,6.2945,6.471,6.5652,6.8196,6.9558,7.0007,7.0141,7.1114,7.2519,7.2565,7.3567,7.5056,7.6138,7.6534,7.679,7.8332,7.7828,7.6985,7.943,8.0209,8.0209,8.0209,8.0209,8.0209,8.0209,8.0209,8.0209,8.0209,8.0209,8.0209,8.0209,8.0209,8.0209,8.0209,8.0209,8.0209,8.0209,7.8044,7.6814,7.8585,7.6961,7.6093,0.0,7.8302,0.0,0.0,7.6893,7.5799,7.4717,7.0455,0.0,0.0,0.0,0.0,0.0,0.0,0.0,7.3646,7.7299,7.8585,7.7244,8.0154,8.2002,8.2733,8.349,8.4086,8.4614,8.4614,8.4614,8.4614,8.4614,8.4614,8.4614,8.4614,8.4614,8.4614,8.4614,8.4614,8.4614,8.4614,8.4614,8.4614,6.3707,6.3947,6.4156,6.4845,6.4964,6.5174,6.5877,6.5996,6.6221,6.6894,6.6984,6.6729,6.6056,6.5996,6.6251,6.6924,6.6984,6.6984,6.6984,6.6984,6.6984,6.6984,6.6984,6.6984,6.6984,6.7643,6.7958,6.7928,6.5906,6.456,6.3827,6.1238,6.1417,6.3947,6.4665,6.6475,6.9004,6.9678,6.9977,7.0037,7.0649,7.0889,7.0921,7.0921,7.1935,7.3307,7.3276,7.3291,7.3597,7.5129,7.4646,7.4155,7.875,8.0209,8.0209,8.0209,8.0209,8.0209,8.0209,8.0209,8.0209,8.0209,8.0209,8.0209,8.0209,8.0209,8.0209,8.0209,8.0209,8.0209,8.0209,8.0175,7.916,7.6217,7.8213,7.9092,7.6149,7.642,0.0,7.4852,7.0117,6.8967,7.4108,6.8571,0.0,0.0,0.0,0.0,0.0,0.0,0.0,7.6758,7.6893,0.0,7.7988,8.0919,8.278,8.349,8.4221,8.458,8.4614,8.4614,8.4614,8.4614,8.4614,8.4614,8.4614,8.4614,8.4614,8.4614,8.4614,8.4614,8.4614,8.4614,8.4614,8.4614,6.462,6.468,6.4889,6.5577,6.5697,6.5906,6.658,6.667,6.6759,6.6969,6.7403,6.7583,6.7373,6.6954,6.6775,6.6969,6.7014,6.7014,6.7014,6.7014,6.7014,6.7014,6.7014,6.7224,6.7673,6.7433,6.7762,6.869,6.6206,6.5114,6.5353,6.4964,6.5757,6.7448,6.8539,6.9273,6.9738,7.035,7.062,7.062,7.0829,7.0889,7.0889,7.0889,7.1228,7.1808,7.2814,7.3215,7.3475,7.5056,7.5261,7.5115,7.6622,7.7787,7.8829,7.9875,8.0209,8.0209,8.0209,8.0209,8.0209,8.0209,8.0209,8.0209,8.0209,8.0209,8.0209,8.0209,8.0209,8.0209,8.0209,8.0209,7.9904,7.8923,7.9566,7.987,7.8889,7.8991,7.8957,7.8483,7.6961,7.6589,7.8247,7.4175,0.0,0.0,0.0,0.0,0.0,0.0,0.0,0.0,7.8056,7.9545,7.8754,8.1697,8.3253,8.3524,8.4255,8.4614,8.4614,8.4614,8.4614,8.4614,8.4614,8.4614,8.4614,8.4614,8.4614,8.4614,8.4614,8.4614,8.4614,8.4614,8.4614,8.4614,6.5697,6.5757,6.5877,6.6311,6.658,6.6894,6.7313,6.7583,6.7747,6.7747,6.8122,6.8391,6.8391,6.8002,6.7747,6.7747,6.7747,6.7747,6.7747,6.7747,6.7747,6.7747,6.7747,6.7972,6.8361,6.8211,6.8541,6.9379,6.7911,6.7313,6.7508,6.8166,6.8794,6.9423,7.044,7.0679,7.0366,7.0739,7.0889,7.0889,7.0889,7.0889,7.0889,7.0889,7.1068,7.1364,7.2091,7.2652,7.3161,7.3676,7.3995,7.4288,7.462,7.5391,7.6463,7.8003,7.8637,7.8877,7.923,7.934,7.9469,8.0048,8.0209,8.0209,8.0209,8.0209,8.0209,8.0209,8.0209,8.0209,8.0209,8.0209,8.0209,8.0209,8.0209,8.0209,8.0209,8.0209,7.9667,7.8247,7.8348,7.8382,0.0,7.6217,7.51,0.0,0.0,0.0,0.0,0.0,7.5484,7.6792,8.0006,8.1393,8.075,8.2577,8.3625,8.3917,8.439,8.4614,8.4614,8.4614,8.4614,8.4614,8.4614,8.4614,8.4614,8.4614,8.4614,8.4614,8.4614,8.4614,8.4614,8.4614,8.4614,8.4614,6.6894,6.7044,6.7074,6.7074,6.7613,6.8077,6.8077,6.86,6.9004,6.9004,6.9034,6.9064,6.9064,6.9093,6.9123,6.9123,6.9064,6.9004,6.9004,6.9004,6.9004,6.9004,6.9004,6.9034,6.9064,6.9648,6.9947,7.0007,7.059,7.062,7.0067,7.0649,7.059,7.0097,7.0649,7.0889,7.0889,7.0889,7.0919,7.0979,7.0979,7.1009,7.1038,7.1038,7.1427,7.1893,7.1248,7.183,7.2698,7.1441,7.1457,7.2111,7.3012,7.3293,7.3662,7.5263,7.6204,7.6879,7.773,7.8027,7.837,7.9817,8.0268,8.0344,8.0276,8.0276,8.0242,8.0209,8.0209,8.0209,8.0209,8.0209,8.0209,8.0209,8.0209,8.0209,8.0209,8.0209,7.8889,7.5393,7.5608,7.5743,7.5055,7.5608,7.7096,7.9769,8.0661,8.1101,8.1135,7.6567,7.6589,8.2293,8.2462,8.2834,8.3558,8.3592,8.3917,8.4614,8.4614,8.4614,8.4614,8.4614,8.4614,8.4614,8.4614,8.4614,8.4614,8.4614,8.4614,8.4614,8.4614,8.4614,8.4614,8.4614,8.4614,8.4614,6.6969,6.7403,6.7778,6.7778,6.8331,6.8764,6.8764,6.8884,6.9004,6.9004,6.9453,6.9722,6.9676,7.0125,7.044,7.044,6.9572,6.9004,6.9004,6.9004,6.9004,6.9004,6.9004,6.9243,6.9738,6.9439,6.9498,7.0007,7.059,7.0829,7.0679,7.0829,7.0829,7.0679,7.0829,7.0889,7.0889,7.0889,7.1188,7.1653,7.1653,7.1966,7.2428,7.2428,7.2518,7.2638,7.2488,7.2638,7.2847,7.2518,7.2518,7.2691,7.2923,7.3356,7.4235,7.665,7.7849,7.8443,7.8615,7.9059,7.9603,7.9947,8.0975,8.1731,8.1169,8.1033,8.0898,8.031,8.0209,8.0209,8.0209,8.0209,8.0209,8.0209,8.0209,8.0209,8.0209,8.0209,7.987,7.8991,7.9025,7.9058,7.8889,7.9025,7.872,7.7739,7.836,7.9037,7.96,7.8991,8.004,8.3152,8.3253,8.3578,8.4323,8.4356,8.4424,8.4614,8.4614,8.4614,8.4614,8.4614,8.4614,8.4614,8.4614,8.4614,8.4614,8.4614,8.4614,8.4614,8.4614,8.4614,8.4614,8.4614,8.4614,8.4614,6.7837,6.8211,6.8451,6.8451,6.9004,6.9407,6.9453,6.9692,6.9871,6.9871,7.0187,7.041,7.0364,7.0663,7.0889,7.0889,7.026,6.9871,6.9871,6.9871,6.9871,6.9871,6.9871,7.0051,7.038,7.0051,7.0051,7.041,7.0739,7.0889,7.0889,7.0889,7.1068,7.1368,7.1368,7.1517,7.18,7.18,7.2009,7.2355,7.2355,7.2595,7.2907,7.2907,7.3086,7.3313,7.2997,7.3296,7.3732,7.3116,7.3086,7.3313,7.2997,7.3146,7.3861,7.6045,7.7195,7.7853,7.8244,7.9182,8.0209,8.0933,8.175,8.2306,8.19,8.1799,8.1596,8.0864,8.0695,8.0581,8.0242,8.0209,8.0209,8.0209,8.0209,8.0209,8.0209,8.0209,8.0209,8.0209,8.0209,8.031,8.0661,8.0695,8.0344,7.9498,8.0107,8.0695,8.1088,8.182,8.2767,8.395,8.3984,8.4187,8.4614,8.4614,8.4614,8.4614,8.4614,8.4614,8.4614,8.4614,8.4614,8.4614,8.4614,8.4614,8.4614,8.4614,8.4614,8.4614,8.4614,8.4614,8.4614,8.4614,8.4614,8.4614,6.8884,6.9093,6.9153,6.9153,6.9646,7.0065,7.0127,7.056,7.0889,7.0889,7.0889,7.0889,7.0889,7.0889,7.0889,7.0889,7.0889,7.0889,7.0889,7.0889,7.0889,7.0889,7.0889,7.0889,7.0889,7.0889,7.0889,7.0889,7.1009,7.1038,7.1038,7.1158,7.1517,7.2072,7.2072,7.2355,7.2907,7.2907,7.2967,7.3057,7.3057,7.3116,7.3206,7.3206,7.3552,7.3971,7.3402,7.3941,7.4736,7.3582,7.3582,7.3941,7.3402,7.3206,7.3477,7.4768,7.578,7.6585,7.7291,7.8725,8.0441,8.1959,8.2542,8.2699,8.2598,8.2564,8.2374,8.1608,8.1473,8.127,8.0648,8.0547,8.0412,8.0073,8.031,8.0412,8.0073,8.031,8.0547,8.0547,8.0547,8.0784,8.1405,8.1473,8.1765,8.2496,8.3152,8.3558,8.3659,8.4255,8.4614,8.4614,8.4614,8.4614,8.4614,8.4614,8.4614,8.4614,8.4614,8.4614,8.4614,8.4614,8.4614,8.4614,8.4614,8.4614,8.4614,8.4614,8.4614,8.4614,8.4614,8.4614,8.4614,8.4614,8.4614,8.4614,6.8974,6.9468,6.9858,6.9858,7.035,7.0769,7.0769,7.0829,7.0889,7.0889,7.0889,7.0889,7.0889,7.0889,7.0889,7.0889,7.0889,7.0889,7.0889,7.0889,7.0889,7.0889,7.0889,7.0889,7.0889,7.0889,7.0889,7.0889,7.1474,7.1743,7.1773,7.2325,7.2638,7.2727,7.2727,7.2787,7.2907,7.2907,7.3223,7.3732,7.3732,7.4061,7.4587,7.4587,7.4646,7.4736,7.4616,7.4706,7.4873,7.4646,7.4646,7.4736,7.4616,7.4587,7.4638,7.488,7.5974,7.7028,7.6568,7.8088,8.0235,8.1825,8.3251,8.4086,8.349,8.3321,8.3118,8.2361,8.2238,8.2192,8.209,8.2056,8.1447,7.9587,8.0839,8.1414,7.952,8.0872,8.2056,8.2056,8.2056,8.209,8.2225,8.2238,8.2543,8.3287,8.3422,8.3761,8.439,8.4546,8.4614,8.4614,8.4614,8.4614,8.4614,8.4614,8.4614,8.4614,8.4614,8.4614,8.4614,8.4614,8.4614,8.4614,8.4614,8.4614,8.4614,8.4614,8.4614,8.4614,8.4614,8.4614,8.4614,8.4614,8.4614,8.4614,6.9961,7.026,7.047,7.047,7.0709,7.0889,7.0889,7.0889,7.0889,7.0889,7.0889,7.0889,7.0889,7.0889,7.1038,7.1398,7.1427,7.1577,7.195,7.1637,7.1607,7.195,7.198,7.198,7.198,7.198,7.198,7.198,7.2295,7.2445,7.2445,7.2757,7.3086,7.3432,7.3432,7.3642,7.3971,7.3971,7.4168,7.4437,7.4437,7.4616,7.4886,7.4886,7.4886,7.4886,7.4886,7.4886,7.4886,7.4886,7.4886,7.4886,7.4886,7.4886,7.4886,7.4886,7.6667,7.8768,7.9279,8.0255,8.149,8.3082,8.3407,8.3464,8.3981,8.4086,8.3883,8.3152,8.2983,8.2881,8.2462,8.2395,8.2056,8.1042,8.1718,8.2022,8.1008,8.1752,8.2395,8.2395,8.2395,8.2564,8.2949,8.2983,8.3287,8.4052,8.4086,8.4255,8.458,8.4614,8.4614,8.4614,8.4614,8.4614,8.4614,8.4614,8.4614,8.4614,8.4614,8.4614,8.4614,8.4614,8.4614,8.4614,8.4614,8.4614,8.4614,8.4614,8.4614,8.4614,8.4614,8.4614,8.4614,8.4614,8.4614,8.4614,7.0799,7.0889,7.0889,7.0889,7.0889,7.0889,7.0889,7.0889,7.0889,7.0889,7.1038,7.1128,7.1128,7.1278,7.1577,7.2102,7.2116,7.2415,7.3086,7.2654,7.2535,7.2877,7.2907,7.2907,7.2907,7.2907,7.2907,7.2907,7.3073,7.3116,7.3146,7.3283,7.3642,7.4121,7.4121,7.4407,7.4886,7.4886,7.4886,7.4886,7.4886,7.4886,7.4886,7.4886,7.4886,7.4886,7.4886,7.4886,7.4886,7.4886,7.4886,7.4886,7.4886,7.4886,7.4886,7.4886,7.6962,7.9588,8.1195,8.1911,8.2586,8.4184,8.3688,8.3082,8.4339,8.4614,8.4444,8.3849,8.3761,8.3592,8.3003,8.2902,8.2733,8.2238,8.2564,8.2733,8.2238,8.2598,8.2902,8.2902,8.2902,8.3139,8.3693,8.3761,8.3984,8.4546,8.4614,8.4614,8.4614,8.4614,8.4614,8.4614,8.4614,8.4614,8.4614,8.4614,8.4614,8.4614,8.4614,8.4614,8.4614,8.4614,8.4614,8.4614,8.4614,8.4614,8.4614,8.4614,8.4614,8.4614,8.4614,8.4614,8.4614,8.4614,8.4614,8.4614,7.0889,7.0889,7.0889,7.0889,7.0889,7.0889,7.0889,7.0889,7.0889,7.0889,7.1427,7.1833,7.1833,7.2385,7.2757,7.2817,7.2817,7.3103,7.3791,7.3762,7.3492,7.2907,7.2907,7.2907,7.2907,7.2907,7.2907,7.2907,7.3522,7.3821,7.3821,7.4467,7.4766,7.4826,7.4826,7.4856,7.4886,7.4886,7.4886,7.4886,7.4886,7.4886,7.4886,7.4886,7.4886,7.4886,7.4886,7.4886,7.4886,7.4886,7.4886,7.4886,7.4886,7.4886,7.4886,7.4886,7.6133,7.7868,7.9528,8.1047,8.2586,8.4184,8.45,8.446,8.4553,8.4614,8.458,8.4512,8.4512,8.4512,8.4444,8.4444,8.3781,8.171,8.3118,8.3714,8.1676,8.3152,8.4444,8.4444,8.4444,8.4444,8.4512,8.4512,8.4546,8.4614,8.4614,8.4614,8.4614,8.4614,8.4614,8.4614,8.4614,8.4614,8.4614,8.4614,8.4614,8.4614,8.4614,8.4614,8.4614,8.4614,8.4614,8.4614,8.4614,8.4614,8.4614,8.4614,8.4614,8.4614,8.4614,8.4614,8.4614,8.4614,8.4614,8.4614,7.0889,7.0889,7.0889,7.0889,7.0889,7.1038,7.1457,7.1517,7.1667,7.2069,7.2355,7.2535,7.2535,7.2744,7.3057,7.3492,7.3522,7.3791,7.4467,7.4527,7.4407,7.4168,7.4138,7.4138,7.4138,7.4138,7.4138,7.4138,7.4407,7.4527,7.4527,7.4766,7.4886,7.4886,7.4886,7.4886,7.4886,7.4886,7.4886,7.4886,7.4886,7.4886,7.4886,7.4886,7.4886,7.4886,7.4886,7.4886,7.4886,7.4886,7.4886,7.4886,7.4886,7.4886,7.4886,7.4886,7.6049,7.7435,7.8091,7.9435,8.1359,8.3933,8.3852,8.3379,8.4379,8.4614,8.4614,8.4614,8.4614,8.4614,8.4614,8.4614,8.4309,8.3477,8.4052,8.4323,8.3443,8.4086,8.4614,8.4614,8.4614,8.4614,8.4614,8.4614,8.4614,8.4614,8.4614,8.4614,8.4614,8.4614,8.4614,8.4614,8.4614,8.4614,8.4614,8.4614,8.4614,8.4614,8.4614,8.4614,8.4614,8.4614,8.4614,8.4614,8.4614,8.4614,8.4614,8.4614,8.4614,8.4614,8.4614,8.4614,8.4614,8.4614,8.4614,8.4614,7.1487,7.1547,7.1547,7.1547,7.1547,7.1697,7.2146,7.2206,7.2385,7.2847,7.3086,7.3206,7.3206,7.3402,7.3702,7.4151,7.4227,7.4407,7.4856,7.4886,7.4886,7.4886,7.4886,7.4886,7.4886,7.4886,7.4886,7.4886,7.4886,7.4886,7.4886,7.4886,7.4886,7.4886,7.4886,7.4886,7.4886,7.4886,7.4886,7.4886,7.4886,7.4886,7.4886,7.4886,7.4886,7.4886,7.4886,7.4886,7.4886,7.4886,7.4886,7.4886,7.4886,7.4886,7.4886,7.4886,7.5678,7.6667,7.7144,7.8155,7.9786,8.304,8.3393,8.3221,8.4352,8.4614,8.4614,8.4614,8.4614,8.4614,8.4614,8.4614,8.4614,8.4614,8.4614,8.4614,8.4614,8.4614,8.4614,8.4614,8.4614,8.4614,8.4614,8.4614,8.4614,8.4614,8.4614,8.4614,8.4614,8.4614,8.4614,8.4614,8.4614,8.4614,8.4614,8.4614,8.4614,8.4614,8.4614,8.4614,8.4614,8.4614,8.4614,8.4614,8.4614,8.4614,8.4614,8.4614,8.4614,8.4614,8.4614,8.4614,8.4614,8.4614,8.4614,8.4614,7.2757,7.2907,7.2907,7.2907,7.2907,7.2907,7.2907,7.2907,7.2907,7.2907,7.3492,7.3911,7.3911,7.4497,7.4886,7.4886,7.4886,7.4886,7.4886,7.4886,7.4886,7.4886,7.4886,7.4886,7.4886,7.4886,7.4886,7.4886,7.4886,7.4886,7.4886,7.4886,7.4886,7.4886,7.4886,7.4886,7.4886,7.4886,7.4886,7.4886,7.4886,7.4886,7.4886,7.4886,7.4886,7.4886,7.4886,7.4886,7.4886,7.4886,7.4886,7.4886,7.4886,7.4886,7.4886,7.4886,7.4886,7.5265,7.6833,7.729,7.8092,8.137,8.3379,8.4553,8.4566,8.4566,8.4566,8.4614,8.4614,8.4614,8.4614,8.4614,8.4614,8.4614,8.4614,8.4614,8.4614,8.4614,8.4614,8.4614,8.4614,8.4614,8.4614,8.4614,8.4614,8.4614,8.4614,8.4614,8.4614,8.4614,8.4614,8.4614,8.4614,8.4614,8.4614,8.4614,8.4614,8.4614,8.4614,8.4614,8.4614,8.4614,8.4614,8.4614,8.4614,8.4614,8.4614,8.4614,8.4614,8.4614,8.4614,8.4614,8.4614,8.4614,8.4614,8.4614,7.2847,7.2907,7.2907,7.2907,7.2907,7.3057,7.3522,7.3612,7.3762,7.4257,7.4467,7.4587,7.4587,7.4766,7.4886,7.4886,7.4886,7.4886,7.4886,7.4886,7.4886,7.4886,7.4886,7.4886,7.4886,7.4886,7.4886,7.4886,7.4886,7.4886,7.4886,7.4886,7.4886,7.4886,7.4886,7.4886,7.4886,7.4886,7.4886,7.4886,7.4886,7.4886,7.4886,7.4886,7.4886,7.4886,7.4886,7.4886,7.4886,7.4886,7.4886,7.4886,7.4886,7.4886,7.4886,7.4886,7.4886,7.5006,7.5489,7.642,7.7836,7.9986,8.0885,8.1531,8.2656,8.2914,8.3254,8.4379,8.4614,8.4614,8.4614,8.4614,8.4614,8.4614,8.4614,8.4614,8.4614,8.4614,8.4614,8.4614,8.4614,8.4614,8.4614,8.4614,8.4614,8.4614,8.4614,8.4614,8.4614,8.4614,8.4614,8.4614,8.4614,8.4614,8.4614,8.4614,8.4614,8.4614,8.4614,8.4614,8.4614,8.4614,8.4614,8.4614,8.4614,8.4614,8.4614,8.4614,8.4614,8.4614,8.4614,8.4614,8.4614,8.4614,8.4614,8.4614,7.3642,7.3702,7.3702,7.3702,7.3702,7.3821,7.421,7.4317,7.4437,7.4856,7.4886,7.4886,7.4886,7.4886,7.4886,7.4886,7.4886,7.4886,7.4886,7.4886,7.4886,7.4886,7.4886,7.4886,7.4886,7.4886,7.4886,7.4886,7.4886,7.4886,7.4886,7.4886,7.4886,7.4886,7.4886,7.4886,7.4886,7.4886,7.4886,7.4886,7.4886,7.4886,7.4886,7.4886,7.4886,7.4886,7.4886,7.4886,7.4886,7.4886,7.4886,7.4886,7.4886,7.4886,7.4886,7.4886,7.4886,7.4886,7.4886,7.5594,7.6585,7.7595,7.8847,8.021,8.1839,8.2216,8.2656,8.4251,8.4614,8.4614,8.4614,8.4614,8.4614,8.4614,8.4614,8.4614,8.4614,8.4614,8.4614,8.4614,8.4614,8.4614,8.4614,8.4614,8.4614,8.4614,8.4614,8.4614,8.4614,8.4614,8.4614,8.4614,8.4614,8.4614,8.4614,8.4614,8.4614,8.4614,8.4614,8.4614,8.4614,8.4614,8.4614,8.4614,8.4614,8.4614,8.4614,8.4614,8.4614,8.4614,8.4614,8.4614,8.4614,8.4614,8.4614,8.4614,7.4766,7.4886,7.4886,7.4886,7.4886,7.4886,7.4886,7.4886,7.4886,7.4886,7.4886,7.4886,7.4886,7.4886,7.4886,7.4886,7.4886,7.4886,7.4886,7.4886,7.4886,7.4886,7.4886,7.4886,7.4886,7.4886,7.4886,7.4886,7.4886,7.4886,7.4886,7.4886,7.4886,7.4886,7.4886,7.4886,7.4886,7.4886,7.4886,7.4886,7.4886,7.4886,7.4886,7.4886,7.4886,7.4886,7.4886,7.4886,7.4886,7.4886,7.4886,7.4886,7.4886,7.4886,7.4886,7.4886,7.4886,7.4886,7.4886,7.4886,7.4886,7.4886,7.7141,7.9788,8.1385,8.1766,8.2255,8.4035,8.4392,8.4433,8.4553,8.4614,8.4614,8.4614,8.4614,8.4614,8.4614,8.4614,8.4614,8.4614,8.4614,8.4614,8.4614,8.4614,8.4614,8.4614,8.4614,8.4614,8.4614,8.4614,8.4614,8.4614,8.4614,8.4614,8.4614,8.4614,8.4614,8.4614,8.4614,8.4614,8.4614,8.4614,8.4614,8.4614,8.4614,8.4614,8.4614,8.4614,8.4614,8.4614,8.4614,8.4614,8.4614,8.4614,8.4614,8.4614,7.4856,7.4886,7.4886,7.4886,7.4886,7.4886,7.4886,7.4886,7.4886,7.4886,7.4886,7.4886,7.4886,7.4886,7.4886,7.4886,7.4886,7.4886,7.4886,7.4886,7.4886,7.4886,7.4886,7.4886,7.4886,7.4886,7.4886,7.4886,7.4886,7.4886,7.4886,7.4886,7.4886,7.4886,7.4886,7.4886,7.4886,7.4886,7.4886,7.4886,7.4886,7.4886,7.4886,7.4886,7.4886,7.4886,7.4886,7.4886,7.4886,7.4886,7.4886,7.4886,7.4886,7.4886,7.4886,7.4886,7.4886,7.4886,7.4886,7.4886,7.4886,7.4886,7.5452,7.6368,7.8012,7.8376,7.9187,8.2112,8.2713,8.3096,8.4379,8.4614,8.4614,8.4614,8.4614,8.4614,8.4614,8.4614,8.4614,8.4614,8.4614,8.4614,8.4614,8.4614,8.4614,8.4614,8.4614,8.4614,8.4614,8.4614,8.4614,8.4614,8.4614,8.4614,8.4614,8.4614,8.4614,8.4614,8.4614,8.4614,8.4614,8.4614,8.4614,8.4614,8.4614,8.4614,8.4614,8.4614,8.4614,8.4614,8.4614,8.4614,8.4614,8.4614,8.4614,8.4614,7.4886,7.4886,7.4886,7.4886,7.4886,7.4886,7.4886,7.4886,7.4886,7.4886,7.4886,7.4886,7.4886,7.4886,7.4886,7.4886,7.4886,7.4886,7.4886,7.4886,7.4886,7.4886,7.4886,7.4886,7.4886,7.4886,7.4886,7.4886,7.4886,7.4886,7.4886,7.4886,7.4886,7.4886,7.4886,7.4886,7.4886,7.4886,7.4886,7.4886,7.4886,7.4886,7.4886,7.4886,7.4886,7.4886,7.4886,7.4886,7.4886,7.4886,7.4886,7.4886,7.4886,7.4886,7.4886,7.4886,7.4886,7.4886,7.4886,7.4886,7.4886,7.4886,7.4886,7.5333,7.6931,7.729,7.8234,8.1516,8.2216,8.2684,8.4292,8.4614,8.4614,8.4614,8.4614,8.4614,8.4614,8.4614,8.4614,8.4614,8.4614,8.4614,8.4614,8.4614,8.4614,8.4614,8.4614,8.4614,8.4614,8.4614,8.4614,8.4614,8.4614,8.4614,8.4614,8.4614,8.4614,8.4614,8.4614,8.4614,8.4614,8.4614,8.4614,8.4614,8.4614,8.4614,8.4614,8.4614,8.4614,8.4614,8.4614,8.4614,8.4614,8.4614,8.4614,8.4614,7.4886,7.4886,7.4886,7.4886,7.4886,7.4886,7.4886,7.4886,7.4886,7.4886,7.4886,7.4886,7.4886,7.4886,7.4886,7.4886,7.4886,7.4886,7.4886,7.4886,7.4886,7.4886,7.4886,7.4886,7.4886,7.4886,7.4886,7.4886,7.4886,7.4886,7.4886,7.4886,7.4886,7.4886,7.4886,7.4886,7.4886,7.4886,7.4886,7.4886,7.4886,7.4886,7.4886,7.4886,7.4886,7.4886,7.4886,7.4886,7.4886,7.4886,7.4886,7.4886,7.4886,7.4886,7.4886,7.4886,7.4886,7.4886,7.4886,7.4886,7.4886,7.4886,7.4886,7.5265,7.6585,7.6882,7.774,8.0734,8.1574,8.2288,8.3879,8.4419,8.4614,8.4614,8.4614,8.4614,8.4614,8.4614,8.4614,8.4614,8.4614,8.4614,8.4614,8.4614,8.4614,8.4614,8.4614,8.4614,8.4614,8.4614,8.4614,8.4614,8.4614,8.4614,8.4614,8.4614,8.4614,8.4614,8.4614,8.4614,8.4614,8.4614,8.4614,8.4614,8.4614,8.4614,8.4614,8.4614,8.4614,8.4614,8.4614,8.4614,8.4614,8.4614,8.4614,8.4614,7.4886,7.4886,7.4886,7.4886,7.4886,7.4886,7.4886,7.4886,7.4886,7.4886,7.4886,7.4886,7.4886,7.4886,7.4886,7.4886,7.4886,7.4886,7.4886,7.4886,7.4886,7.4886,7.4886,7.4886,7.4886,7.4886,7.4886,7.4886,7.4886,7.4886,7.4886,7.4886,7.4886,7.4886,7.4886,7.4886,7.4886,7.4886,7.4886,7.4886,7.4886,7.4886,7.4886,7.4886,7.4886,7.4886,7.4886,7.4886,7.4886,7.4886,7.4886,7.4886,7.4886,7.4886,7.4886,7.4886,7.4886,7.4886,7.4886,7.4886,7.4886,7.4886,7.4886,7.4954,7.5163,7.5231,7.5745,7.758,7.9111,8.0617,8.2245,8.3674,8.4614,8.4614,8.4614,8.4614,8.4614,8.4614,8.4614,8.4614,8.4614,8.4614,8.4614,8.4614,8.4614,8.4614,8.4614,8.4614,8.4614,8.4614,8.4614,8.4614,8.4614,8.4614,8.4614,8.4614,8.4614,8.4614,8.4614,8.4614,8.4614,8.4614,8.4614,8.4614,8.4614,8.4614,8.4614,8.4614,8.4614,8.4614,8.4614,8.4614,8.4614,8.4614,8.4614,8.4614,7.4886,7.4886,7.4886,7.4886,7.4886,7.4886,7.4886,7.4886,7.4886,7.4886,7.4886,7.4886,7.4886,7.4886,7.4886,7.4886,7.4886,7.4886,7.4886,7.4886,7.4886,7.4886,7.4886,7.4886,7.4886,7.4886,7.4886,7.4886,7.4886,7.4886,7.4886,7.4886,7.4886,7.4886,7.4886,7.4886,7.4886,7.4886,7.4886,7.4886,7.4886,7.4886,7.4886,7.4886,7.4886,7.4886,7.4886,7.4886,7.4886,7.4886,7.4886,7.4886,7.4886,7.4886,7.4886,7.4886,7.4886,7.4886,7.4886,7.4886,7.4886,7.4886,7.4886,7.4886,7.4886,7.4886,7.5624,7.8171,7.9282,8.0558,8.3068,8.4116,8.4614,8.4614,8.4614,8.4614,8.4614,8.4614,8.4614,8.4614,8.4614,8.4614,8.4614,8.4614,8.4614,8.4614,8.4614,8.4614,8.4614,8.4614,8.4614,8.4614,8.4614,8.4614,8.4614,8.4614,8.4614,8.4614,8.4614,8.4614,8.4614,8.4614,8.4614,8.4614,8.4614,8.4614,8.4614,8.4614,8.4614,8.4614,8.4614,8.4614,8.4614,8.4614,8.4614,8.4614]},{"header":{"parameterUnit":"m.s-1","parameterCategory":1,"la1":30.6,"la2":28.766,"lo1":-90.7593,"lo2":-88.6598,"dx":0.0162,"dy":0.0183,"nx":116,"ny":114,"refTime":"2022-12-15T18:00:00:Z","depth":0,"parameterNumber":3,"parameterNumberName":"V-component_of_WINDS"},"data":[0.0,0.0,0.0,0.0,0.0,0.0,0.0,0.0,0.0,0.0,0.0,0.0,0.0,0.0,0.0,0.0,0.0,0.0,0.0,0.0,0.0,0.0,0.0,0.0,0.0,0.0,0.0,0.0,0.0,0.0,0.0,0.0,0.0,0.0,0.0,0.0,0.0,0.0,0.0,0.0,0.0,0.0,0.0,0.0,0.0,0.0,0.0,0.0,0.0,0.0,0.0,0.0,0.0,0.0,0.0,0.0,0.0,0.0,0.0,0.0,0.0,0.0,0.0,0.0,0.0,0.0,0.0,0.0,0.0,0.0,0.0,0.0,0.0,0.0,0.0,0.0,0.0,0.0,0.0,0.0,0.0,0.0,0.0,0.0,0.0,0.0,0.0,0.0,0.0,0.0,0.0,0.0,0.0,0.0,0.0,0.0,0.0,0.0,0.0,0.0,0.0,0.0,0.0,0.0,0.0,0.0,0.0,0.0,0.0,0.0,0.0,0.0,0.0,0.0,0.0,0.0,0.0,0.0,0.0,0.0,0.0,0.0,0.0,0.0,0.0,0.0,0.0,0.0,0.0,0.0,0.0,0.0,0.0,0.0,0.0,0.0,0.0,0.0,0.0,0.0,0.0,0.0,0.0,0.0,0.0,0.0,0.0,0.0,0.0,0.0,0.0,0.0,0.0,0.0,0.0,0.0,0.0,0.0,0.0,0.0,0.0,0.0,0.0,0.0,0.0,0.0,0.0,0.0,0.0,0.0,0.0,0.0,0.0,0.0,0.0,0.0,0.0,0.0,0.0,0.0,0.0,0.0,0.0,0.0,0.0,0.0,0.0,0.0,0.0,0.0,0.0,0.0,0.0,0.0,0.0,0.0,0.0,0.0,0.0,0.0,0.0,0.0,0.0,0.0,0.0,0.0,0.0,0.0,0.0,0.0,0.0,0.0,0.0,0.0,0.0,0.0,0.0,0.0,0.0,0.0,0.0,0.0,0.0,0.0,0.0,0.0,0.0,0.0,0.0,0.0,0.0,0.0,0.0,0.0,0.0,0.0,0.0,0.0,0.0,0.0,0.0,0.0,0.0,0.0,0.0,0.0,0.0,0.0,0.0,0.0,0.0,0.0,0.0,0.0,0.0,0.0,0.0,0.0,0.0,0.0,0.0,0.0,0.0,0.0,0.0,0.0,0.0,0.0,0.0,0.0,0.0,0.0,0.0,0.0,0.0,0.0,0.0,0.0,0.0,0.0,0.0,0.0,0.0,0.0,0.0,0.0,0.0,0.0,0.0,0.0,0.0,0.0,0.0,0.0,0.0,0.0,0.0,0.0,0.0,0.0,0.0,0.0,0.0,0.0,0.0,0.0,0.0,0.0,0.0,0.0,0.0,0.0,0.0,0.0,0.0,0.0,0.0,0.0,0.0,0.0,0.0,0.0,0.0,0.0,0.0,0.0,0.0,0.0,0.0,0.0,0.0,0.0,0.0,0.0,0.0,0.0,0.0,0.0,0.0,0.0,0.0,0.0,0.0,0.0,0.0,0.0,0.0,0.0,0.0,0.0,0.0,0.0,0.0,0.0,0.0,0.0,0.0,0.0,0.0,0.0,0.0,0.0,0.0,0.0,0.0,0.0,0.0,0.0,0.0,0.0,0.0,0.0,0.0,0.0,0.0,0.0,0.0,0.0,0.0,0.0,0.0,0.0,0.0,0.0,0.0,0.0,0.0,0.0,0.0,0.0,0.0,0.0,0.0,0.0,0.0,0.0,0.0,0.0,0.0,0.0,0.0,0.0,0.0,0.0,0.0,0.0,0.0,0.0,0.0,0.0,0.0,0.0,0.0,0.0,0.0,0.0,0.0,0.0,0.0,0.0,0.0,0.0,0.0,0.0,0.0,0.0,0.0,0.0,0.0,0.0,0.0,0.0,0.0,0.0,0.0,0.0,0.0,0.0,0.0,0.0,0.0,0.0,0.0,0.0,0.0,0.0,0.0,0.0,0.0,0.0,0.0,0.0,0.0,0.0,0.0,0.0,0.0,0.0,0.0,0.0,0.0,0.0,0.0,0.0,0.0,0.0,0.0,0.0,0.0,0.0,0.0,0.0,0.0,0.0,0.0,0.0,0.0,0.0,0.0,0.0,0.0,0.0,0.0,0.0,0.0,0.0,0.0,0.0,0.0,0.0,0.0,0.0,0.0,0.0,0.0,0.0,0.0,0.0,0.0,0.0,0.0,0.0,0.0,0.0,0.0,0.0,0.0,0.0,0.0,0.0,0.0,0.0,0.0,0.0,0.0,0.0,0.0,0.0,0.0,0.0,0.0,0.0,0.0,0.0,0.0,0.0,0.0,0.0,0.0,0.0,0.0,0.0,0.0,0.0,0.0,0.0,0.0,0.0,0.0,0.0,0.0,0.0,0.0,0.0,0.0,0.0,0.0,0.0,0.0,0.0,0.0,0.0,0.0,0.0,0.0,0.0,0.0,0.0,0.0,0.0,0.0,0.0,0.0,0.0,0.0,0.0,0.0,0.0,0.0,0.0,0.0,0.0,0.0,0.0,0.0,0.0,0.0,0.0,0.0,0.0,0.0,0.0,0.0,0.0,0.0,0.0,0.0,0.0,0.0,0.0,0.0,0.0,0.0,0.0,0.0,0.0,0.0,0.0,0.0,0.0,0.0,0.0,0.0,0.0,0.0,0.0,0.0,0.0,0.0,0.0,0.0,0.0,0.0,0.0,0.0,0.0,0.0,0.0,0.0,0.0,0.0,0.0,0.0,0.0,0.0,0.0,0.0,0.0,0.0,0.0,0.0,0.0,0.0,0.0,0.0,0.0,0.0,0.0,0.0,0.0,0.0,0.0,0.0,0.0,0.0,0.0,0.0,0.0,0.0,0.0,0.0,0.0,0.0,0.0,0.0,0.0,0.0,0.0,0.0,0.0,0.0,0.0,0.0,0.0,0.0,0.0,0.0,0.0,0.0,0.0,0.0,0.0,0.0,0.0,0.0,0.0,0.0,0.0,0.0,0.0,0.0,0.0,0.0,0.0,0.0,0.0,0.0,0.0,0.0,0.0,0.0,0.0,0.0,0.0,0.0,0.0,0.0,0.0,0.0,0.0,0.0,0.0,0.0,0.0,0.0,0.0,0.0,0.0,0.0,0.0,0.0,0.0,0.0,0.0,0.0,0.0,0.0,0.0,0.0,0.0,0.0,0.0,0.0,0.0,0.0,0.0,0.0,0.0,0.0,0.0,0.0,0.0,0.0,0.0,0.0,0.0,0.0,0.0,0.0,0.0,0.0,0.0,0.0,0.0,0.0,0.0,0.0,0.0,0.0,0.0,0.0,0.0,0.0,0.0,0.0,0.0,0.0,0.0,0.0,0.0,0.0,0.0,0.0,0.0,0.0,0.0,0.0,0.0,0.0,0.0,0.0,0.0,0.0,0.0,0.0,0.0,0.0,0.0,0.0,0.0,0.0,0.0,0.0,0.0,0.0,0.0,0.0,0.0,0.0,0.0,0.0,0.0,0.0,0.0,0.0,0.0,0.0,0.0,0.0,0.0,0.0,0.0,0.0,0.0,0.0,0.0,0.0,0.0,0.0,0.0,0.0,0.0,0.0,0.0,0.0,0.0,0.0,0.0,0.0,0.0,0.0,0.0,0.0,0.0,0.0,0.0,0.0,0.0,0.0,0.0,0.0,0.0,0.0,0.0,0.0,0.0,0.0,0.0,0.0,0.0,0.0,0.0,0.0,0.0,0.0,0.0,0.0,0.0,0.0,0.0,0.0,0.0,0.0,0.0,0.0,0.0,0.0,0.0,0.0,0.0,0.0,0.0,0.0,0.0,0.0,0.0,0.0,0.0,0.0,0.0,0.0,0.0,0.0,0.0,0.0,0.0,0.0,0.0,0.0,0.0,0.0,0.0,0.0,0.0,0.0,0.0,0.0,0.0,0.0,0.0,0.0,0.0,0.0,0.0,0.0,0.0,0.0,0.0,0.0,0.0,0.0,0.0,0.0,0.0,0.0,0.0,0.0,0.0,0.0,0.0,0.0,0.0,0.0,0.0,0.0,0.0,0.0,0.0,0.0,0.0,0.0,0.0,0.0,0.0,0.0,0.0,0.0,0.0,0.0,0.0,0.0,0.0,0.0,0.0,0.0,0.0,0.0,0.0,0.0,0.0,0.0,0.0,0.0,0.0,0.0,0.0,0.0,0.0,0.0,0.0,0.0,0.0,0.0,0.0,0.0,0.0,0.0,0.0,0.0,0.0,0.0,0.0,0.0,0.0,0.0,0.0,0.0,0.0,0.0,0.0,0.0,0.0,0.0,0.0,0.0,0.0,0.0,0.0,0.0,0.0,0.0,0.0,0.0,0.0,0.0,0.0,0.0,0.0,0.0,0.0,0.0,0.0,0.0,0.0,0.0,0.0,0.0,0.0,0.0,0.0,0.0,0.0,0.0,0.0,0.0,0.0,0.0,0.0,0.0,0.0,0.0,0.0,0.0,0.0,0.0,0.0,0.0,0.0,0.0,0.0,0.0,0.0,0.0,0.0,0.0,0.0,0.0,0.0,0.0,0.0,0.0,0.0,0.0,0.0,0.0,0.0,0.0,0.0,0.0,0.0,0.0,0.0,0.0,0.0,0.0,0.0,0.0,0.0,0.0,0.0,0.0,0.0,0.0,0.0,0.0,0.0,0.0,0.0,0.0,0.0,0.0,0.0,0.0,0.0,0.0,0.0,0.0,0.0,0.0,0.0,0.0,0.0,0.0,0.0,0.0,0.0,0.0,0.0,0.0,0.0,0.0,0.0,0.0,0.0,0.0,0.0,0.0,0.0,0.0,0.0,0.0,0.0,0.0,0.0,0.0,0.0,0.0,0.0,0.0,0.0,0.0,0.0,0.0,0.0,0.0,0.0,0.0,0.0,0.0,0.0,0.0,0.0,0.0,0.0,0.0,0.0,0.0,0.0,0.0,0.0,0.0,0.0,0.0,0.0,0.0,0.0,0.0,0.0,0.0,0.0,0.0,0.0,0.0,0.0,0.0,0.0,0.0,0.0,0.0,0.0,0.0,0.0,0.0,0.0,0.0,0.0,0.0,0.0,0.0,0.0,0.0,0.0,0.0,0.0,0.0,0.0,0.0,0.0,0.0,0.0,0.0,0.0,0.0,0.0,0.0,0.0,0.0,0.0,0.0,0.0,0.0,0.0,0.0,0.0,0.0,0.0,0.0,0.0,0.0,0.0,0.0,0.0,0.0,0.0,0.0,0.0,0.0,0.0,0.0,0.0,0.0,0.0,0.0,0.0,0.0,0.0,0.0,0.0,0.0,0.0,0.0,0.0,0.0,0.0,0.0,0.0,0.0,0.0,0.0,0.0,0.0,0.0,0.0,0.0,0.0,0.0,0.0,0.0,0.0,0.0,0.0,0.0,0.0,0.0,0.0,0.0,0.0,0.0,0.0,0.0,0.0,0.0,0.0,0.0,0.0,0.0,0.0,0.0,0.0,0.0,0.0,0.0,0.0,0.0,0.0,0.0,0.0,0.0,0.0,0.0,0.0,0.0,0.0,0.0,0.0,0.0,0.0,0.0,0.0,0.0,0.0,0.0,0.0,0.0,0.0,0.0,0.0,0.0,0.0,0.0,0.0,0.0,0.0,0.0,0.0,0.0,0.0,0.0,0.0,0.0,0.0,0.0,0.0,0.0,0.0,0.0,0.0,0.0,0.0,0.0,0.0,0.0,0.0,0.0,0.0,0.0,0.0,0.0,0.0,0.0,0.0,0.0,0.0,0.0,0.0,0.0,0.0,0.0,0.0,0.0,0.0,0.0,0.0,0.0,0.0,0.0,0.0,0.0,0.0,0.0,0.0,0.0,0.0,0.0,0.0,0.0,0.0,0.0,0.0,0.0,0.0,0.0,0.0,0.0,0.0,0.0,0.0,0.0,0.0,0.0,0.0,0.0,0.0,0.0,0.0,0.0,0.0,0.0,0.0,0.0,0.0,0.0,0.0,0.0,0.0,0.0,0.0,0.0,0.0,0.0,0.0,0.0,0.0,0.0,0.0,0.0,0.0,0.0,0.0,0.0,0.0,0.0,0.0,0.0,0.0,0.0,0.0,0.0,0.0,0.0,1.4493,1.4012,0.0,0.0,0.0,0.0,0.0,0.0,0.0,0.0,0.0,0.0,0.0,0.0,0.0,0.0,0.0,0.0,0.0,0.0,0.0,0.0,0.0,0.0,0.0,1.3077,1.2909,1.2909,1.2909,0.0,0.0,0.0,0.0,0.0,0.0,0.0,0.0,0.0,1.2635,1.3451,1.3698,1.4584,1.6023,1.5366,1.4721,1.4082,0.0,0.0,0.0,0.0,0.0,0.0,0.0,0.0,0.0,0.0,0.0,0.0,0.0,0.0,0.0,0.0,0.0,0.0,0.0,0.0,0.0,0.0,0.0,0.0,0.0,0.0,0.0,0.0,0.0,0.0,0.0,0.0,0.0,0.0,0.0,0.0,0.0,0.0,0.0,0.0,0.0,0.0,0.0,0.0,0.0,0.0,0.0,0.0,0.0,0.0,0.0,0.0,0.0,0.0,0.0,0.0,0.0,0.0,0.0,0.0,0.0,0.0,0.0,0.0,0.0,0.0,0.0,0.0,0.0,0.0,1.5429,1.4975,0.0,0.0,0.0,0.0,0.0,0.0,0.0,0.0,0.0,0.0,0.0,0.0,0.0,0.0,0.0,0.0,0.0,0.0,0.0,0.0,0.0,1.3399,1.3707,1.3407,1.3149,1.3104,1.3118,1.3079,1.3001,1.3001,0.0,0.0,0.0,0.0,1.3001,1.3144,1.3822,1.5021,1.5476,1.6461,1.7947,1.7947,1.738,1.6269,1.5154,0.0,0.0,0.0,0.0,0.0,0.0,0.0,0.0,0.0,0.0,0.0,0.0,0.0,0.0,0.0,0.0,0.0,0.0,0.0,0.0,0.0,0.0,0.0,0.0,0.0,0.0,0.0,0.0,0.0,0.0,0.0,0.0,0.0,0.0,0.0,0.0,0.0,0.0,0.0,0.0,0.0,0.0,0.0,0.0,0.0,0.0,0.0,0.0,0.0,0.0,0.0,0.0,0.0,0.0,0.0,0.0,0.0,0.0,0.0,0.0,0.0,0.0,0.0,1.6499,1.6793,1.7021,1.7021,1.7301,1.7689,1.6472,1.6191,1.6552,1.6017,0.0,0.0,0.0,0.0,0.0,0.0,0.0,0.0,0.0,0.0,0.0,0.0,0.0,0.0,0.0,0.0,0.0,0.0,0.0,1.3867,1.3565,1.3937,1.4138,1.3952,1.3938,1.3782,1.3451,1.3418,0.0,0.0,0.0,1.3418,1.3418,1.4167,1.4995,1.5936,1.8144,1.9551,2.0175,2.0175,2.0087,1.9833,1.7849,1.6961,1.6883,0.0,0.0,0.0,0.0,0.0,0.0,0.0,0.0,0.0,0.0,0.0,0.0,0.0,0.0,0.0,0.0,0.0,0.0,0.0,0.0,0.0,0.0,0.0,0.0,0.0,0.0,0.0,0.0,0.0,0.0,0.0,0.0,0.0,0.0,0.0,0.0,0.0,0.0,0.0,0.0,0.0,1.4154,1.4362,0.0,0.0,0.0,0.0,0.0,0.0,0.0,0.0,0.0,0.0,0.0,0.0,0.0,1.646,1.6526,1.7047,1.7328,1.7368,1.7943,1.8237,1.825,1.825,1.8317,1.8371,1.8183,0.0,1.7742,1.7435,0.0,0.0,0.0,0.0,0.0,0.0,0.0,0.0,0.0,0.0,0.0,0.0,0.0,0.0,0.0,0.0,0.0,0.0,0.0,0.0,0.0,1.4874,1.5117,1.552,1.5549,1.5291,1.4615,1.4563,0.0,0.0,1.375,1.3952,1.4219,1.5073,1.6429,1.8231,2.0107,2.125,2.167,2.167,2.1777,2.1943,2.0781,1.9599,1.8407,1.7561,0.0,0.0,0.0,0.0,0.0,0.0,0.0,0.0,0.0,0.0,0.0,0.0,0.0,0.0,0.0,0.0,0.0,0.0,0.0,0.0,0.0,0.0,0.0,0.0,0.0,0.0,0.0,0.0,0.0,0.0,0.0,0.0,0.0,0.0,0.0,0.0,0.0,0.0,0.0,1.5052,1.4576,1.5852,1.5301,1.4839,0.0,0.0,0.0,0.0,0.0,0.0,0.0,0.0,0.0,1.7235,1.7369,1.7595,1.7929,1.8196,1.8504,1.8852,1.9092,1.9305,1.9451,1.9451,1.9451,1.9451,1.9451,1.937,1.9155,1.8223,1.7609,1.7222,0.0,0.0,0.0,0.0,1.7036,1.7143,0.0,0.0,0.0,0.0,0.0,0.0,0.0,0.0,0.0,0.0,0.0,0.0,1.5918,1.6115,1.6379,1.6976,1.7027,1.6715,1.5969,1.5703,1.5247,1.4465,1.4426,1.4654,1.5112,1.6515,1.8279,2.04,2.1621,2.2363,2.2654,2.2654,2.281,2.3092,2.2791,2.1708,2.0078,1.9405,1.832,1.6989,0.0,0.0,0.0,0.0,0.0,0.0,0.0,0.0,0.0,0.0,0.0,0.0,0.0,0.0,0.0,0.0,0.0,0.0,0.0,0.0,0.0,0.0,0.0,0.0,0.0,0.0,0.0,0.0,0.0,0.0,0.0,0.0,0.0,0.0,0.0,0.0,0.0,1.6348,1.5781,1.7579,1.6811,1.6075,0.0,0.0,0.0,0.0,0.0,0.0,1.819,1.8197,1.8476,1.9057,1.9154,1.9416,1.9871,1.9871,2.0106,2.0533,2.0115,2.0223,2.0834,2.0834,2.106,2.1451,2.1451,2.1451,2.1292,1.9365,1.8476,1.8329,1.8143,1.797,1.7876,1.8236,1.8356,1.8476,0.0,0.0,0.0,0.0,0.0,0.0,0.0,0.0,0.0,0.0,0.0,1.659,1.7063,1.7735,1.81,1.7961,1.7932,1.7745,1.7321,1.6527,1.5843,1.5364,1.5337,1.5547,1.6026,1.8883,2.084,2.1807,2.2635,2.3053,2.3073,2.3073,2.3092,2.3101,2.3092,2.281,2.2255,2.1016,2.0185,1.9581,1.7958,0.0,0.0,0.0,0.0,0.0,0.0,0.0,0.0,0.0,0.0,0.0,0.0,0.0,0.0,0.0,0.0,0.0,0.0,0.0,0.0,0.0,0.0,0.0,0.0,0.0,0.0,0.0,0.0,0.0,0.0,0.0,0.0,0.0,0.0,0.0,0.0,0.0,0.0,1.9268,1.9257,0.0,0.0,0.0,0.0,1.7724,2.023,2.156,2.0764,2.0892,2.1302,2.1973,2.2288,2.2483,2.2498,2.2498,2.2513,2.2528,2.0942,2.1016,2.2572,2.2572,2.3417,2.4851,2.4851,2.4851,2.4618,2.1411,1.9785,1.9321,1.9308,1.896,1.8531,1.9106,1.9334,1.9415,0.0,0.0,0.0,1.6505,1.6505,1.6357,1.5974,1.5743,1.5479,1.5168,1.5907,1.6691,1.7266,1.8298,1.9235,1.9991,2.005,1.9893,1.9481,1.8368,1.7765,1.7891,1.7109,1.7519,1.9346,2.0732,2.1846,2.2674,2.2956,2.3101,2.3101,2.3101,2.3101,2.3101,2.3101,2.3014,2.2869,2.2401,2.1484,2.0293,1.9696,1.8259,0.0,0.0,0.0,0.0,0.0,0.0,0.0,0.0,0.0,0.0,0.0,0.0,0.0,0.0,0.0,0.0,0.0,0.0,0.0,0.0,0.0,0.0,0.0,0.0,0.0,0.0,0.0,0.0,0.0,0.0,0.0,0.0,0.0,0.0,0.0,0.0,0.0,2.1653,2.12,0.0,2.0805,2.2796,2.3353,2.1592,2.3698,2.4627,2.3665,2.2681,2.275,2.403,2.3178,2.2781,2.2961,2.2961,2.3066,2.3276,2.2663,2.3246,2.4823,2.4823,2.514,2.5678,2.5678,2.5678,2.5588,2.4416,2.359,2.2871,2.0978,2.0742,2.1376,2.073,2.0494,2.0521,0.0,0.0,0.0,1.6505,1.6505,1.6357,1.5952,1.5882,1.5852,1.5769,1.6532,1.7633,1.9035,1.9637,2.0496,2.186,2.1658,2.1318,2.1065,1.9776,1.9181,1.9492,1.8691,1.9258,2.1386,2.1875,2.2431,2.3101,2.3101,2.3299,2.366,2.366,2.366,2.366,2.366,2.3463,2.3101,2.3101,2.2459,2.1416,2.1153,1.9912,1.8169,0.0,0.0,0.0,0.0,0.0,0.0,0.0,0.0,0.0,0.0,0.0,0.0,0.0,0.0,0.0,0.0,0.0,0.0,0.0,0.0,0.0,0.0,0.0,0.0,0.0,0.0,0.0,0.0,0.0,0.0,0.0,0.0,0.0,0.0,2.1573,2.1107,2.3802,2.3468,2.3086,2.3199,2.5323,2.5964,2.4253,2.6328,2.7203,2.6142,2.502,2.4968,2.6187,2.5171,2.4721,2.4886,2.5059,2.5236,2.5445,2.5031,2.5684,2.7253,2.7253,2.7559,2.8094,2.8094,2.8094,2.8048,2.7482,2.734,2.7157,2.3795,2.3138,2.3962,2.3082,2.2405,2.1868,0.0,0.0,1.6505,1.6505,1.6505,1.65,1.6479,1.6448,1.6883,1.8177,1.8487,1.9627,2.2307,2.1816,2.187,2.3342,2.2543,2.1966,2.1944,2.0693,1.9959,1.9959,2.0018,2.0654,2.1967,2.2386,2.2775,2.3131,2.3164,2.3754,2.485,2.4893,2.4882,2.485,2.4829,2.421,2.3175,2.3166,2.3136,2.3077,2.2267,2.166,2.1083,0.0,0.0,0.0,0.0,0.0,0.0,0.0,0.0,0.0,0.0,0.0,0.0,0.0,0.0,0.0,0.0,0.0,0.0,0.0,0.0,0.0,0.0,0.0,0.0,0.0,0.0,0.0,0.0,0.0,0.0,0.0,0.0,0.0,2.4334,2.405,2.427,2.5618,2.6138,2.6154,2.5594,2.8016,2.8408,2.5478,2.797,2.9187,2.8155,2.7926,2.803,2.8486,2.8459,2.8429,2.8447,2.8887,2.9131,2.91,2.7929,2.8226,2.9785,2.9785,3.0655,3.2198,3.2198,3.2198,3.2077,3.0436,3.0731,3.1797,2.7644,2.6078,2.6109,2.6063,2.5025,2.3402,1.6505,1.6505,1.6505,1.6505,1.6505,1.6341,1.5908,1.6573,1.7087,1.6976,1.9209,2.0789,2.0678,2.1996,2.2839,2.2779,2.3246,2.3337,2.2816,2.2018,2.1579,2.1579,2.2792,2.3629,2.4,2.4389,2.4272,2.3613,2.4828,2.5573,2.5916,2.6791,2.6737,2.5873,2.5536,2.515,2.4736,2.4462,2.4339,2.4244,2.3194,2.2353,2.1641,0.0,0.0,0.0,0.0,0.0,0.0,0.0,0.0,0.0,0.0,0.0,0.0,0.0,0.0,0.0,0.0,0.0,0.0,0.0,0.0,0.0,0.0,0.0,0.0,0.0,0.0,0.0,0.0,0.0,0.0,0.0,2.4936,2.5571,2.581,2.5401,2.5705,2.7383,2.7941,2.8263,2.8421,2.9419,2.9688,2.8869,2.9882,3.0407,3.0131,2.8917,2.8983,3.0592,2.9526,2.9046,2.9351,2.9475,2.9544,2.9529,2.9204,2.9911,3.1505,3.1505,3.1768,3.2198,3.2198,3.2198,3.2168,3.1707,3.1783,3.1855,2.8329,2.7651,2.8533,2.737,2.5834,2.426,1.6505,1.6505,1.6505,1.6505,1.6505,1.6367,1.6023,1.6868,1.7614,1.7868,1.98,2.1379,2.1983,2.2662,2.3381,2.4116,2.4347,2.4189,2.3593,2.2635,2.2668,2.3988,2.4582,2.5051,2.5408,2.567,2.5207,2.4043,2.5021,2.5755,2.6238,2.6919,2.6896,2.6228,2.6463,2.6258,2.5786,2.6066,2.6054,2.5796,2.5134,2.3863,2.2353,2.1913,2.1425,2.0908,2.0303,2.0098,2.003,1.9668,0.0,0.0,0.0,0.0,0.0,0.0,0.0,0.0,0.0,0.0,0.0,0.0,0.0,0.0,0.0,0.0,0.0,0.0,0.0,0.0,0.0,0.0,0.0,0.0,2.6575,2.7318,2.7689,2.716,2.7265,2.8682,2.9199,2.9551,2.9819,3.0249,3.0488,3.0488,3.0898,3.1152,3.1152,3.0409,3.0558,3.1762,3.0899,3.0522,3.0747,3.1084,3.1252,3.1252,3.1623,3.2302,3.3238,3.3238,3.3238,3.3238,3.3238,3.3238,3.3238,3.3238,3.3238,3.2988,0.0,0.0,0.0,0.0,2.776,2.6921,1.6505,1.6505,1.6505,1.6505,1.6505,1.6525,1.6581,1.7315,1.8396,1.9982,2.0665,2.1986,2.4627,2.3845,2.3948,2.5942,2.5431,2.4829,2.4404,2.3206,2.3794,2.6675,2.5854,2.5754,2.6675,2.6461,2.5794,2.4669,2.4728,2.5289,2.6271,2.6418,2.6474,2.6509,2.7525,2.7536,2.6828,2.7864,2.8016,2.7565,2.7428,2.5723,2.3249,2.2897,2.2674,2.247,2.1688,2.1405,2.1298,2.0527,0.0,0.0,0.0,0.0,0.0,0.0,0.0,0.0,0.0,0.0,0.0,0.0,0.0,0.0,0.0,0.0,0.0,0.0,0.0,0.0,0.0,0.0,0.0,0.0,2.8151,2.8724,2.9559,2.8998,2.8803,2.9579,3.0034,3.0273,3.0273,3.0703,3.0972,3.0972,3.1348,3.1567,3.1567,3.1968,0.0,0.0,0.0,3.2394,3.2472,3.3184,3.3558,3.3558,3.4336,3.4707,3.4707,3.4707,3.4707,3.4707,3.4707,3.4707,3.4707,3.4707,3.4707,3.4551,3.3062,3.2492,3.2303,3.0807,3.0385,3.0376,1.6505,1.6505,1.6505,1.6505,1.6505,1.6661,1.716,1.8086,1.9382,2.1145,2.3239,2.4543,2.4356,2.5952,2.6143,2.3962,2.5242,2.5982,2.5525,2.597,2.6768,2.7907,2.7571,2.79,2.9092,2.7476,2.6544,2.6415,2.68,2.7092,2.7338,2.8305,2.8763,2.8752,2.8679,2.8998,2.9599,2.9503,2.9418,2.924,2.8192,2.6443,2.4457,2.4385,2.3778,2.2956,2.28,2.273,2.2722,2.2546,2.2049,2.1494,2.1416,2.1181,0.0,0.0,0.0,0.0,0.0,0.0,0.0,0.0,0.0,0.0,0.0,0.0,0.0,0.0,0.0,0.0,0.0,0.0,0.0,2.806,2.8842,2.952,3.0014,2.9955,2.9897,3.0059,3.0503,3.0762,3.0762,3.1152,3.1391,3.1391,3.1812,3.2066,3.2066,3.2159,3.2496,3.3148,3.3184,3.3516,3.4199,3.4375,3.4453,3.4453,3.4609,0.0,3.4707,3.4707,3.4707,3.4707,3.4707,3.4707,3.4707,3.4707,3.4707,3.4668,3.4336,3.4235,3.4186,3.384,3.2901,3.172,1.6505,1.6505,1.6505,1.6505,1.6737,1.7054,1.7336,1.8413,1.9863,2.1737,2.2821,2.3776,2.4786,2.4742,2.4577,2.4376,2.5439,2.649,2.7303,2.6529,2.7316,3.0118,2.9037,2.9038,3.046,2.9474,2.8819,2.8553,2.8792,2.9043,2.9318,2.9912,3.0047,2.9789,2.9599,2.9964,3.0797,3.0579,3.0695,3.094,3.0313,2.8945,2.7156,2.6012,2.4798,2.3826,2.4475,2.4286,2.3747,2.3747,2.3474,2.3144,2.3144,2.2997,2.2732,0.0,0.0,0.0,0.0,0.0,0.0,0.0,0.0,0.0,0.0,0.0,0.0,0.0,0.0,2.6079,2.7161,0.0,2.8275,2.9101,2.9623,3.0053,3.0503,3.0723,3.0781,3.0566,3.0937,3.1211,3.1211,3.1601,3.1836,3.1836,3.2261,3.2593,3.2793,3.3023,3.3434,3.4027,3.4046,3.4258,3.4687,3.4922,3.5039,3.5059,3.5505,3.57,3.57,3.5898,3.5996,3.5996,3.5996,3.5996,3.5996,3.5996,3.5996,3.5996,3.5996,3.5605,3.5039,3.5039,3.4775,3.4391,1.6661,1.6762,1.6807,1.6681,1.708,1.7468,1.7688,1.8721,2.0186,2.2195,2.2039,2.2693,2.5159,2.3373,2.294,2.5312,2.5767,2.679,2.878,2.7127,2.7903,3.2014,3.0086,2.9756,3.1521,3.0878,3.0513,3.0556,3.0311,3.0464,3.1007,3.1007,3.0889,3.0727,3.0613,3.1008,3.1734,3.1603,3.1883,3.2323,3.1844,3.0893,2.9481,2.7345,2.5797,2.4865,2.5653,2.5267,2.4402,2.4402,2.4402,2.4402,2.4402,2.4402,2.4285,2.3669,2.3923,0.0,0.0,0.0,0.0,0.0,0.0,0.0,0.0,2.5383,2.5864,2.6842,2.7024,2.7357,2.847,2.8685,2.9023,3.0156,3.0346,3.0503,3.0937,3.1309,3.1411,3.1187,3.1445,3.1641,3.1641,3.2124,3.2437,3.2437,3.2887,3.332,3.3636,3.4004,3.4411,3.4824,3.4902,3.5,3.5078,3.5527,3.5762,3.5781,3.6482,3.6832,3.6832,3.7148,3.7305,3.7305,3.7305,3.7305,3.7305,3.7305,3.7305,3.7305,3.7305,3.6719,3.5879,3.5801,3.6208,3.6832,1.7286,1.7677,1.7852,1.7387,1.7367,1.7713,1.8694,1.9346,2.0532,2.2729,2.3399,2.3985,2.4791,2.4805,2.4889,2.5214,2.5966,2.7118,2.8794,3.0006,3.1127,3.2158,3.0348,3.0438,3.2853,2.9681,2.9282,3.1894,3.0742,3.0464,3.1007,3.1007,3.1569,3.2581,3.2108,3.2517,3.3559,3.3085,3.2946,3.2807,3.0594,2.9602,2.9296,2.796,2.6884,2.5959,2.4968,2.4518,2.4402,2.4402,2.4402,2.4402,2.4402,2.4402,2.4461,2.4777,2.466,2.4461,2.4809,2.4996,2.518,2.5484,2.5589,2.603,0.0,2.7643,2.7774,2.8992,2.9246,2.9389,2.9897,2.998,3.0176,3.0723,3.082,3.0957,3.1372,3.1469,3.1641,3.2022,3.2085,3.212,3.212,3.2812,3.3265,3.3265,3.4023,3.4512,3.4551,3.4609,3.4844,3.5293,3.5684,3.6055,3.6462,3.6875,3.709,3.709,3.7187,3.7226,3.7226,3.7266,3.7305,3.7305,3.7305,3.7305,3.7305,3.7305,3.7305,3.7305,3.7305,3.7441,3.758,3.7226,3.7148,3.7226,1.7802,1.8053,1.8229,1.8323,1.8323,1.8493,1.8933,1.9387,2.0285,2.1963,2.207,2.2607,2.4181,2.4721,2.4569,2.3545,2.5606,2.7682,2.9315,3.0008,3.1052,3.2645,3.1247,3.1278,3.3058,3.1579,3.1718,3.3618,3.3069,3.3284,3.4125,3.4125,3.4229,3.4345,3.3115,3.306,3.3828,3.255,3.2413,3.3004,3.1977,3.1545,3.1346,2.9395,2.8418,2.7954,2.6978,2.5992,0.0,2.5457,2.5379,2.521,2.5488,2.5227,2.4953,2.5649,2.5515,2.5367,2.6353,2.6607,2.6646,2.6816,2.7214,2.7689,2.8184,2.834,2.8691,2.9741,2.9955,3.0092,3.0542,3.062,3.0742,3.1191,3.125,3.1406,3.1851,3.2109,3.2422,3.2851,3.3141,3.3199,3.293,3.3672,3.416,3.416,3.4492,3.4922,3.5432,3.5452,3.5781,3.6484,3.668,3.6855,3.7049,3.7207,3.7305,3.7305,3.7539,3.7638,3.7658,3.793,3.8065,3.8065,3.8301,3.8398,3.8437,3.8691,3.8809,3.8809,3.8809,3.8926,3.8965,3.799,3.7812,3.8065,1.8343,1.8549,1.8769,1.9139,1.9208,1.9208,1.9208,1.9463,2.0109,2.1337,2.1122,2.1409,2.2907,2.3821,2.3827,2.2557,2.5299,2.7928,2.989,3.0067,3.1006,3.3007,3.1876,3.1799,3.3068,3.2752,3.3278,3.4703,3.4703,3.5278,3.6393,3.6393,3.6168,3.5672,3.4107,3.3659,3.4017,3.2412,3.2261,3.3036,3.2337,3.2075,3.1823,2.9316,2.8315,2.8146,2.7553,2.6557,2.5574,2.5781,2.5723,2.5593,2.5918,2.5676,2.5442,2.6309,2.6426,2.6433,2.7278,2.7682,2.7897,2.8001,2.8568,2.9043,2.8867,2.9043,2.9459,3.0249,3.0391,3.0503,3.0835,3.0996,3.1172,3.145,3.1606,3.1855,3.23,3.2695,3.3125,3.3539,3.4118,3.4372,3.4144,3.459,3.4941,3.5059,3.5176,3.5566,3.6311,3.635,3.6643,3.7285,3.7402,3.7519,3.7674,3.7773,3.7891,3.8027,3.8302,3.8458,3.8458,3.8789,3.8964,3.8964,3.9258,3.9394,3.9414,3.9766,3.9902,3.9902,3.9902,3.9902,3.9785,3.881,3.8672,3.8964,1.8976,1.9397,1.9761,1.9779,1.9786,1.9786,1.9786,1.9792,2.0193,2.1349,2.1483,2.128,2.0756,2.2165,2.3124,2.3079,2.5203,2.7688,3.0398,3.1059,3.1867,3.304,3.1876,3.1799,3.3068,3.1887,3.2398,3.4703,3.4703,3.5278,3.6393,3.6393,3.6393,3.6318,3.5157,3.4644,3.4603,3.3524,3.3058,3.2896,3.0485,2.9499,2.9235,2.6756,2.5577,2.522,2.5204,2.5157,2.5043,2.4598,2.4746,2.5133,2.5121,2.5391,2.5842,2.6726,2.7285,2.7545,2.7116,2.7637,2.8392,2.8756,2.9219,2.9676,3.0073,3.0156,3.0293,3.0776,3.0874,3.0879,3.0913,3.123,3.1489,3.1508,3.189,3.2316,3.2715,3.3144,3.3574,3.402,3.4841,3.5508,3.5881,3.5605,3.5547,3.594,3.6384,3.6814,3.7226,3.7266,3.7266,3.7305,3.7677,3.8105,3.8553,3.8964,3.9375,3.9824,3.9824,3.9844,3.9844,3.9844,3.9863,3.9863,3.9863,3.9883,3.9883,3.9883,3.9902,3.9902,3.9902,3.9902,3.9883,3.9844,3.9844,3.9863,1.9472,1.9685,1.9943,2.0333,2.0068,2.0062,2.0822,1.9872,1.9518,2.08,2.1575,0.0,0.0,0.0,0.0,0.0,2.6152,2.8282,2.9955,3.0909,3.1723,3.2466,3.2478,3.2655,3.3079,3.3024,3.3548,3.4703,3.5068,3.5643,3.6393,3.6393,3.6393,3.6343,3.5203,3.4703,3.4628,3.3556,3.309,3.3025,3.2185,3.1526,3.0905,2.9536,2.8091,2.665,0.0,2.5137,2.4668,2.4816,2.4758,2.4687,2.5004,2.4992,2.5074,2.625,2.7305,2.8119,2.8229,2.8691,2.9252,2.9668,3.0131,3.0503,3.0625,3.0664,3.0718,3.0874,3.0913,3.0913,3.0913,3.123,3.1606,3.191,3.2539,3.3144,3.361,3.4004,3.4434,3.4919,3.5469,3.5976,3.6423,3.6345,3.6443,3.6836,3.7012,3.7266,3.7677,3.7697,3.7951,3.8535,3.8691,3.8984,3.9472,3.959,3.9746,3.9902,3.9902,3.9902,3.9902,3.9902,3.9902,3.9902,4.0176,4.0293,4.0313,4.0625,4.0761,4.0761,4.0761,4.0761,4.0761,4.0761,4.0761,4.0683,2.0338,2.042,2.0521,2.0918,2.0678,0.0,0.0,0.0,0.0,0.0,0.0,0.0,0.0,0.0,0.0,0.0,0.0,2.8072,2.9393,3.0341,3.1246,3.2154,3.2401,3.2577,3.2778,3.2928,3.347,3.4413,3.4753,3.5417,3.6393,3.6393,3.6393,3.6343,3.5417,3.4879,3.4653,3.3757,3.3506,3.3588,3.275,3.2249,3.1779,2.9996,2.8291,0.0,2.5444,2.4547,2.3981,2.4277,2.4297,2.4266,2.4719,2.5188,2.5723,2.6406,2.765,2.8822,2.9082,2.9487,2.9916,3.0332,3.0678,3.0913,3.0913,3.0996,3.1113,3.1113,3.1113,3.1113,3.1113,3.1582,3.207,3.2359,3.3359,3.416,3.4293,3.4958,3.5449,3.5605,3.6133,3.6641,3.7088,3.7146,3.7244,3.7482,3.7502,3.7756,3.8322,3.8361,3.8711,3.9434,3.9453,3.9668,4.0117,4.0117,4.0195,4.0351,4.0351,4.0351,4.0351,4.0351,4.0351,4.039,4.0644,4.0762,4.0781,4.1074,4.1191,4.1191,4.1191,4.1191,4.1191,4.1191,4.1191,4.1113,2.1507,2.1507,2.1507,0.0,0.0,0.0,0.0,0.0,0.0,0.0,0.0,0.0,0.0,0.0,0.0,0.0,0.0,0.0,2.8731,2.9418,3.0482,3.2003,3.1637,3.1637,3.2154,3.1687,3.2215,3.3822,3.3847,3.4661,3.6217,3.6267,3.6267,3.6242,3.5656,3.5143,3.4628,3.4098,3.4137,3.4376,3.2084,3.1462,3.1557,2.8215,2.6293,2.5214,2.4221,2.3544,2.3151,2.3151,2.3485,2.3976,2.4422,2.6016,2.7643,2.7226,2.8314,2.9637,2.9637,2.9936,3.0332,3.0796,3.0932,3.0918,3.0918,3.1235,3.1528,3.1508,3.1508,3.1489,3.1469,3.2207,3.2793,3.2793,3.4277,3.5273,3.4824,3.5896,3.656,3.6116,3.6799,3.748,3.7873,3.7951,3.797,3.797,3.797,3.8341,3.9199,3.9238,3.9453,3.9922,3.9922,4.0137,4.0528,4.0547,4.0762,4.1191,4.1191,4.1191,4.1191,4.1191,4.1191,4.1191,4.1191,4.1191,4.1191,4.1191,4.1191,4.1191,4.1191,4.1191,4.1191,4.1191,4.1191,4.1191,0.0,0.0,0.0,0.0,0.0,0.0,0.0,0.0,0.0,0.0,0.0,0.0,0.0,0.0,0.0,0.0,0.0,0.0,2.767,2.901,2.998,3.0382,3.1045,3.1472,3.1587,3.1853,3.2204,3.2631,3.3079,3.3517,3.3944,3.436,3.4536,3.4536,3.4374,3.4237,3.4073,3.3531,3.3119,3.271,3.1315,3.0252,2.9342,2.7942,2.6278,2.4655,2.4725,2.4269,2.3633,2.3633,2.4324,2.5418,2.6516,2.7454,2.8177,2.8365,2.9199,3.0053,3.0053,3.0385,3.0757,3.0874,3.1133,3.1352,3.1352,3.1699,3.1929,3.1567,3.1508,3.1411,3.1113,3.2012,3.2793,3.2793,3.4512,3.5803,3.5686,3.6523,3.709,3.6992,3.7424,3.7795,3.7892,3.8478,3.8867,3.8867,3.8867,3.9121,3.9687,3.9726,3.9922,4.0332,4.0352,4.0566,4.1015,4.1035,4.1074,4.1191,4.1191,4.1191,4.1191,4.1191,4.1191,4.1191,4.1191,4.1191,4.1191,4.1191,4.1191,4.1191,4.1191,4.1191,4.1191,4.1191,4.1191,4.1191,0.0,0.0,0.0,0.0,0.0,0.0,0.0,0.0,0.0,0.0,0.0,0.0,0.0,0.0,0.0,0.0,0.0,0.0,0.0,2.8407,2.9286,2.9789,3.0366,3.0819,3.1035,3.11,3.1501,3.2204,3.23,3.2738,3.3456,3.3506,3.3556,3.3556,3.3556,3.3395,3.3133,3.2817,3.2652,0.0,0.0,3.0355,2.9333,2.7986,2.6259,2.4531,2.4303,2.4394,2.4715,2.5305,2.5989,2.6719,2.7467,2.823,2.892,2.9141,2.9824,3.0508,3.0508,3.0703,3.0937,3.1113,3.1333,3.1508,3.1508,3.1855,3.2081,3.1601,3.1508,3.143,3.1196,3.2192,3.3125,3.3336,3.5176,3.6565,3.6565,3.7324,3.7793,3.7598,3.8087,3.8478,3.8478,3.9101,3.959,3.9747,3.9609,3.9707,4.0156,4.0176,4.0371,4.0801,4.0801,4.0918,4.1191,4.1191,4.1191,4.1191,4.1191,4.1191,4.1191,4.1191,4.1191,4.1191,4.1191,4.1191,4.1191,4.1191,4.1191,4.1191,4.1191,4.1191,4.1191,4.1191,4.1191,4.1191,0.0,0.0,0.0,0.0,0.0,0.0,0.0,0.0,0.0,2.1941,2.365,2.4165,2.248,2.4819,0.0,0.0,0.0,0.0,0.0,0.0,2.8565,2.9628,2.9764,3.0005,3.0472,3.003,3.0482,3.1878,3.1421,3.1924,3.3345,3.2953,3.2763,3.2763,3.2839,3.2577,3.2104,3.2104,3.2365,3.2677,3.1518,3.066,2.982,0.0,2.5978,2.4446,2.3582,2.436,2.5991,2.7318,2.7858,2.7956,2.8093,2.8875,2.9774,2.9774,3.0307,3.0913,3.0972,3.0976,3.1074,3.1489,3.1626,3.1665,3.1606,3.1949,3.2124,3.1606,3.1508,3.1508,3.1508,3.2504,3.35,3.4079,3.5896,3.7246,3.7363,3.8143,3.8534,3.8126,3.879,3.9297,3.9297,3.9707,4.0137,4.0469,4.0234,4.0215,4.0567,4.0586,4.0781,4.1191,4.1191,4.1191,4.1191,4.1191,4.1191,4.1191,4.1191,4.1191,4.1191,4.1191,4.1191,4.1191,4.1191,4.1191,4.1191,4.125,4.1269,4.1289,4.1328,4.1367,4.1367,4.1367,4.1367,4.1367,0.0,0.0,0.0,0.0,0.0,0.0,0.0,0.0,0.0,0.0,2.3939,2.4559,0.0,0.0,0.0,0.0,0.0,0.0,0.0,0.0,0.0,2.9032,2.9528,2.9839,2.9939,2.9864,2.9939,3.0216,3.0105,3.0241,3.0517,3.0874,3.1024,3.105,3.1497,3.1647,3.1547,3.1547,3.1336,3.0919,2.9784,2.8479,2.7071,2.5751,0.0,0.0,2.4002,2.5086,2.6465,2.7767,2.8666,2.9403,3.0112,3.0503,3.0678,3.0678,3.0776,3.0957,3.1309,3.1391,3.1523,3.1968,3.2339,3.248,3.2144,3.2398,3.2461,3.1665,3.1508,3.1508,3.1508,3.2285,3.3281,3.4414,3.5837,3.7049,3.7697,3.8555,3.9062,3.8984,3.9453,3.9766,3.9766,4.0137,4.043,4.0489,4.0781,4.0996,4.1074,4.1074,4.1113,4.1191,4.1191,4.1191,4.1191,4.1191,4.1191,4.1191,4.1191,4.1191,4.1191,4.1191,4.1191,4.1191,4.1191,4.1191,4.123,4.1562,4.1699,4.1719,4.205,4.2187,4.2187,4.2187,4.2187,4.2187,0.0,0.0,0.0,0.0,0.0,0.0,0.0,2.1419,2.1896,2.3423,2.4059,2.4275,2.396,2.4534,2.4966,0.0,0.0,0.0,0.0,0.0,0.0,2.8897,2.9478,2.9814,2.9814,2.9814,2.9939,3.0231,0.0,2.993,3.0231,3.0196,3.0171,3.0196,3.0457,3.0567,3.0567,3.0567,3.0417,3.0132,2.9589,2.8224,2.6442,2.5891,0.0,0.0,2.4453,2.5605,2.6836,2.7689,2.8855,3.0034,3.0698,3.0913,3.0913,3.0913,3.1055,3.1255,3.145,3.168,3.1968,3.2398,3.2672,3.2676,3.2296,3.2355,3.2242,3.1367,3.1191,3.1191,3.1191,3.207,3.3144,3.4215,3.5681,3.699,3.7795,3.8634,3.9199,3.9199,3.9805,4.0196,4.0196,4.0605,4.0859,4.0859,4.1074,4.1191,4.1191,4.1191,4.1191,4.1191,4.1191,4.1191,4.1191,4.1191,4.1191,4.1191,4.1191,4.1191,4.1191,4.1191,4.1308,4.1523,4.1523,4.1621,4.1836,4.2031,4.2109,4.2128,4.2324,4.2402,4.2402,4.2402,4.2402,4.2402,0.0,0.0,0.0,0.0,0.0,0.0,0.0,2.1243,2.2354,2.4361,2.4591,2.4575,2.4627,2.4054,2.4141,0.0,0.0,0.0,0.0,0.0,0.0,0.0,0.0,0.0,2.9814,0.0,0.0,3.0422,3.0005,0.0,0.0,0.0,0.0,0.0,2.9814,2.9814,2.9814,2.9814,2.9663,0.0,0.0,2.8149,2.6244,0.0,0.0,0.0,0.0,2.5852,2.6953,2.7506,2.8627,2.9902,3.0561,3.0835,3.0913,3.0913,3.1191,3.1528,3.1606,3.1988,3.2433,3.2832,3.293,3.2793,3.2316,3.2198,3.1964,3.1089,3.0913,3.0932,3.1016,3.1914,3.3023,3.4059,3.5446,3.6814,3.791,3.8693,3.9277,3.9453,4.0157,4.0645,4.0645,4.0976,4.1191,4.1191,4.1191,4.1191,4.1191,4.1191,4.1191,4.1191,4.1191,4.1191,4.1191,4.1191,4.1191,4.1191,4.1191,4.125,4.1328,4.1328,4.1562,4.1933,4.1933,4.2109,4.2421,4.2499,4.2538,4.2558,4.2636,4.2675,4.2675,4.2675,4.2675,4.2675,0.0,0.0,0.0,0.0,0.0,0.0,0.0,2.3329,2.5141,2.5599,2.6071,2.6691,2.7607,2.5559,2.4927,0.0,0.0,0.0,0.0,0.0,0.0,0.0,0.0,0.0,0.0,0.0,0.0,2.9854,2.9804,0.0,0.0,0.0,0.0,0.0,0.0,2.9814,2.9814,2.9814,0.0,0.0,0.0,0.0,0.0,0.0,0.0,0.0,0.0,2.5688,2.6575,2.7428,2.8054,2.8672,2.9897,3.0561,3.0913,3.0913,3.1191,3.1587,3.2027,3.2437,3.2832,3.3246,3.3344,3.3129,3.2374,3.2198,3.1964,3.1089,3.0913,3.0996,3.1372,3.189,3.2785,3.4375,3.5153,3.6228,3.8241,3.8925,3.9492,4.0293,4.082,4.1133,4.1133,4.1172,4.1191,4.1191,4.1191,4.1191,4.1191,4.1191,4.1191,4.1191,4.1191,4.1191,4.1191,4.1191,4.1191,4.1191,4.1191,4.1387,4.1738,4.1738,4.1953,4.2343,4.2343,4.2382,4.2441,4.2851,4.3048,4.3087,4.3437,4.3594,4.3594,4.3594,4.3594,4.3594,0.0,0.0,0.0,0.0,0.0,0.0,2.0609,2.2584,2.4449,2.6015,2.5823,2.6304,2.8366,2.5339,2.43,2.706,0.0,0.0,0.0,0.0,0.0,0.0,0.0,0.0,0.0,0.0,2.9814,2.9814,2.9814,0.0,0.0,0.0,0.0,0.0,0.0,2.9814,2.975,2.9067,0.0,0.0,0.0,0.0,0.0,0.0,0.0,0.0,0.0,0.0,2.6855,2.7487,2.8138,2.8756,2.9263,2.9902,3.0586,3.1113,3.1562,3.2007,3.2437,3.2851,3.3187,3.3363,3.3226,3.2891,3.2335,3.1988,3.1601,3.103,3.0913,3.1016,3.143,3.1645,3.2324,3.4059,3.4704,3.5564,3.7205,3.8241,3.9061,3.9648,4.0351,4.0879,4.1172,4.1191,4.1191,4.1191,4.1191,4.1191,4.1191,4.1191,4.1191,4.1191,4.1191,4.1308,4.1562,4.1562,4.168,4.1933,4.1933,4.2012,4.2148,4.2148,4.2402,4.2812,4.2812,4.2969,4.3183,4.3379,4.3457,4.3476,4.3633,4.3711,4.3711,4.3711,4.3711,4.3711,0.0,0.0,0.0,0.0,0.0,1.921,2.0419,2.2424,2.4338,2.5799,2.5609,2.6116,2.821,2.4873,2.3802,2.7029,2.6385,0.0,0.0,0.0,0.0,0.0,0.0,0.0,0.0,0.0,2.9814,2.9814,2.9814,2.9814,0.0,0.0,2.9814,2.9814,0.0,0.0,0.0,0.0,0.0,0.0,0.0,0.0,0.0,0.0,0.0,0.0,0.0,0.0,0.0,0.0,0.0,2.8756,2.9043,2.9531,3.017,3.0903,3.1621,3.2257,3.2535,3.3008,3.3441,3.3558,3.3203,3.273,3.2437,3.1914,3.1391,3.0976,3.0913,3.0976,3.1255,3.1528,3.2148,3.3492,3.4274,3.5195,3.6677,3.7752,3.8651,3.9316,4.004,4.0625,4.0976,4.1113,4.1191,4.1191,4.1191,4.125,4.1367,4.1387,4.1387,4.1387,4.1387,4.1562,4.1953,4.1992,4.2109,4.2402,4.2402,4.248,4.2597,4.2597,4.2851,4.3282,4.3282,4.3437,4.3711,4.3711,4.3711,4.3711,4.3711,4.3711,4.3711,4.3711,4.3711,4.3711,0.0,0.0,0.0,0.0,0.0,0.0,2.0468,2.3657,2.5696,2.4925,2.586,2.6781,2.7263,2.4445,2.3795,2.7027,2.6378,0.0,0.0,0.0,0.0,0.0,0.0,0.0,0.0,0.0,2.9814,2.9814,2.9814,2.9814,2.9814,2.9814,2.9814,2.9814,0.0,0.0,0.0,0.0,0.0,0.0,0.0,0.0,0.0,0.0,0.0,0.0,0.0,0.0,0.0,0.0,0.0,0.0,0.0,2.9598,2.9696,3.0078,3.1147,3.2198,3.2198,3.2793,3.3519,3.3981,3.3434,3.2793,3.2793,3.2129,3.1391,3.0976,3.0913,3.0913,3.0913,3.1597,3.2335,3.275,3.3867,3.5312,3.7051,3.7638,3.84,3.9726,4.0254,4.0508,4.0508,4.0937,4.1191,4.1191,4.1191,4.1367,4.1777,4.1797,4.1797,4.1797,4.1797,4.1992,4.2402,4.2402,4.2402,4.2402,4.2402,4.2636,4.3087,4.3087,4.3321,4.3691,4.3691,4.3691,4.3711,4.3711,4.3711,4.3711,4.3711,4.3711,4.3711,4.3711,4.3711,4.3711,0.0,0.0,0.0,0.0,0.0,0.0,0.0,2.2824,2.462,2.3983,2.4834,2.5688,2.6207,2.4033,2.3341,2.5421,2.6022,0.0,0.0,0.0,0.0,0.0,0.0,0.0,0.0,0.0,2.9613,2.9181,2.9975,3.0347,3.0347,3.0347,3.0156,2.9814,2.9814,2.9365,0.0,0.0,0.0,0.0,0.0,0.0,0.0,0.0,0.0,0.0,0.0,0.0,0.0,0.0,0.0,0.0,0.0,0.0,0.0,3.0092,3.1147,3.2198,3.2198,3.2593,3.2949,3.2828,3.2359,3.1899,3.1899,3.1484,3.1055,3.0932,3.0913,3.0976,3.1269,3.1309,3.1929,3.3789,3.4215,3.4997,3.7029,3.791,3.8633,3.9336,4.0332,4.0996,4.0996,4.1113,4.1191,4.1191,4.1465,4.168,4.1797,4.205,4.2207,4.2207,4.2207,4.2441,4.2871,4.2871,4.3008,4.3301,4.3301,4.3379,4.3496,4.3496,4.3574,4.3711,4.3711,4.3711,4.3711,4.3711,4.3711,4.3711,4.3711,4.3711,4.3711,4.3711,4.3711,4.3711,0.0,0.0,0.0,0.0,0.0,0.0,0.0,2.2219,2.357,2.2969,2.3663,2.4398,2.4869,2.334,2.2886,2.4441,2.5762,0.0,0.0,0.0,0.0,0.0,0.0,0.0,2.8757,2.9434,2.9816,2.9837,3.0562,3.0999,3.119,3.119,3.0799,3.0105,3.0105,2.9352,0.0,0.0,0.0,0.0,0.0,0.0,2.5706,0.0,0.0,0.0,0.0,0.0,0.0,0.0,0.0,0.0,0.0,0.0,0.0,0.0,3.1152,3.1929,3.1929,3.2242,3.2554,3.2437,3.1953,3.1548,3.1719,3.1323,3.0913,3.0913,3.0913,3.0991,3.123,3.1343,3.191,3.3492,3.4079,3.4977,3.6797,3.7811,3.8672,3.9571,4.043,4.1015,4.1172,4.1191,4.1269,4.1406,4.166,4.1933,4.2266,4.2539,4.2714,4.289,4.2734,4.2871,4.3301,4.3341,4.3437,4.3711,4.3711,4.3711,4.3711,4.3711,4.3711,4.3711,4.3711,4.3711,0.0,4.3711,4.3711,4.3711,4.3711,4.3711,4.3711,4.3711,4.3711,4.3711,0.0,0.0,0.0,0.0,0.0,0.0,0.0,2.1856,2.2582,2.1913,2.2399,2.2954,2.3298,2.2493,2.2487,2.396,0.0,0.0,0.0,0.0,0.0,0.0,0.0,0.0,2.9575,2.9711,3.0247,3.1182,3.1325,3.1687,3.2254,3.2229,3.1652,3.0648,3.0623,2.9647,0.0,0.0,0.0,0.0,0.0,0.0,0.0,0.0,0.0,0.0,0.0,0.0,0.0,0.0,0.0,0.0,0.0,0.0,0.0,0.0,0.0,0.0,0.0,3.1812,3.2237,3.2593,3.207,3.1567,3.2022,3.148,0.0,3.0913,3.0913,3.0932,3.0991,3.1631,3.2218,3.2394,3.3727,3.5234,3.6656,3.7559,3.8712,4.0352,4.0547,4.0723,4.1152,4.123,4.1406,4.1777,4.1855,4.2266,4.3067,4.3126,4.3321,4.3691,4.3341,4.3301,4.3691,4.3711,4.3711,4.3711,4.3711,4.3711,4.3711,4.3711,4.3711,4.3711,4.3711,4.3711,4.3711,4.3711,4.3711,4.3711,4.3711,4.3711,4.3711,4.3711,4.3711,4.3711,0.0,0.0,0.0,0.0,0.0,0.0,0.0,0.0,0.0,0.0,2.1666,2.2096,2.177,2.1843,2.2176,0.0,0.0,0.0,0.0,0.0,0.0,0.0,0.0,0.0,2.7312,2.8919,2.9497,2.8878,3.058,3.1899,3.2889,3.2416,3.1853,3.1185,3.0773,2.9375,0.0,0.0,0.0,0.0,0.0,0.0,0.0,0.0,0.0,0.0,2.6687,2.6999,0.0,0.0,0.0,0.0,0.0,0.0,0.0,0.0,3.0972,3.1035,3.1035,0.0,3.1621,3.1387,3.1191,3.1055,0.0,3.105,3.0913,3.0913,3.0913,3.1108,3.1768,3.1758,3.2324,3.4316,3.498,3.5935,3.7869,3.916,4.0157,4.0937,4.1035,4.1074,4.1191,4.1484,4.1699,4.1797,4.2422,4.2891,4.3087,4.3399,4.3594,4.3691,4.3613,4.3594,4.3711,4.3711,4.3711,4.3711,4.3711,4.3711,4.3711,4.3711,4.3711,4.3711,4.3711,4.3711,4.3711,4.3711,4.3711,4.3711,4.3711,4.3711,4.3711,4.3711,4.3711,4.3711,0.0,0.0,0.0,0.0,0.0,0.0,0.0,0.0,0.0,0.0,0.0,2.1245,2.0958,2.1318,0.0,0.0,0.0,0.0,0.0,0.0,0.0,0.0,0.0,2.8688,2.8031,2.9189,2.985,2.9991,3.1177,3.234,3.3456,3.3144,3.2416,3.133,2.9529,2.7951,0.0,0.0,0.0,0.0,2.541,0.0,0.0,0.0,0.0,0.0,2.6687,2.6999,0.0,2.847,2.9037,2.935,0.0,0.0,0.0,0.0,3.0913,3.0913,3.0913,3.1055,3.1172,3.0937,3.0913,3.0913,3.0913,3.0913,3.0913,3.0913,3.0913,3.1094,3.1773,3.2324,3.316,3.4567,3.5781,3.7168,3.8964,4.0117,4.0937,4.1172,4.1191,4.1269,4.1465,4.166,4.1973,4.2383,4.2833,4.3184,4.338,4.3574,4.3711,4.3711,4.3711,4.3711,4.3711,4.3711,4.3711,4.3711,4.3711,4.3711,4.3711,4.3711,4.3711,4.3711,4.3711,4.3711,4.3711,4.3711,4.3711,4.3711,4.3711,4.3711,4.3711,4.3711,4.3711,4.3711,0.0,0.0,0.0,0.0,0.0,0.0,0.0,0.0,0.0,0.0,0.0,0.0,0.0,0.0,0.0,0.0,0.0,0.0,0.0,0.0,0.0,0.0,2.8777,2.8776,2.9626,2.9752,3.0463,3.1824,3.2081,3.2781,3.3897,3.3972,3.3032,3.1143,2.7804,2.6259,0.0,0.0,0.0,0.0,2.5332,0.0,0.0,0.0,0.0,0.0,0.0,0.0,0.0,2.8861,2.9481,2.9715,3.0385,0.0,0.0,0.0,0.0,0.0,3.0976,3.1035,3.1069,3.0918,3.0913,3.0913,3.0913,3.0913,3.0913,3.0913,3.0952,3.1191,3.186,3.316,3.4251,3.472,3.6699,3.8614,3.9824,4.0703,4.1191,4.1191,4.1191,4.1367,4.1758,4.1855,4.2226,4.3048,4.3165,4.3341,4.3691,4.3711,4.3711,4.3711,4.3711,4.3711,4.3711,4.3711,4.3711,4.3711,4.3711,4.3711,4.3711,4.3711,4.3711,4.3711,4.3711,4.3711,4.3711,4.3711,4.3711,4.3711,4.3711,4.3711,4.3711,4.3711,4.3711,4.3711,0.0,0.0,0.0,0.0,0.0,0.0,0.0,0.0,0.0,0.0,0.0,0.0,0.0,0.0,0.0,0.0,0.0,0.0,0.0,0.0,0.0,2.8367,2.9116,2.9386,2.9045,2.9529,2.9906,3.0179,3.1525,3.2781,3.3897,3.4363,3.3187,3.0564,2.7116,2.5767,2.6014,2.4817,2.484,2.5686,2.5628,0.0,0.0,0.0,0.0,0.0,0.0,0.0,0.0,2.8144,2.8978,2.9559,2.9297,0.0,0.0,0.0,0.0,0.0,3.1328,3.1699,3.1827,3.1089,3.0913,3.0913,3.0913,3.0913,3.0913,3.0913,3.1172,3.1977,3.3867,3.4157,3.4935,3.7479,3.8866,3.9785,4.0332,4.0879,4.1191,4.1191,4.1191,4.1367,4.1758,4.2109,4.2539,4.3067,4.3438,4.3633,4.3691,4.3711,4.3711,4.3711,4.3711,4.3711,4.3711,4.3711,4.3711,4.3711,4.3711,4.3711,4.3711,4.3711,4.3711,4.3711,4.3711,4.3711,4.3711,4.3711,4.3711,4.3711,4.3711,4.3711,4.3711,4.3711,4.3711,4.3769,0.0,0.0,0.0,0.0,0.0,0.0,0.0,0.0,0.0,0.0,0.0,0.0,0.0,0.0,0.0,0.0,0.0,0.0,0.0,0.0,2.8216,2.8471,2.9327,2.9815,2.9812,3.0358,3.1111,3.2021,3.3056,3.3975,3.4742,3.38,3.1872,2.9159,2.7191,2.5907,2.516,2.4901,2.5125,2.5706,0.0,0.0,0.0,0.0,0.0,0.0,0.0,0.0,0.0,0.0,2.9057,2.9598,2.9609,0.0,0.0,0.0,0.0,0.0,3.1133,3.1328,3.1558,3.1836,3.2281,3.2691,3.2891,3.2949,3.2891,3.2672,3.2789,3.334,3.4805,3.5505,3.6756,3.955,4.0117,4.0391,4.082,4.1074,4.1269,4.1504,4.1523,4.1797,4.2442,4.2676,4.2949,4.3379,4.3594,4.3711,4.3711,4.3711,4.3711,4.3711,4.3711,4.3711,4.3711,4.3711,4.3711,4.3711,4.3711,4.3711,4.3711,4.3711,4.3711,4.3711,4.3711,4.3711,4.3711,4.3711,4.3711,4.373,4.3984,4.4082,4.4101,4.4315,4.4393,4.4432,0.0,0.0,0.0,0.0,0.0,0.0,0.0,0.0,0.0,0.0,0.0,0.0,0.0,0.0,0.0,0.0,0.0,0.0,0.0,0.0,2.8145,2.8617,2.9261,2.9906,3.0545,3.1103,3.2215,3.3897,3.4552,3.5218,3.5834,3.2748,3.0305,2.844,2.7085,2.5713,2.4442,2.4895,2.5332,2.5706,0.0,0.0,0.0,0.0,0.0,0.0,0.0,0.0,0.0,0.0,0.0,0.0,0.0,0.0,0.0,3.0737,3.0801,3.0918,3.1016,3.1128,3.148,3.2656,3.316,3.359,3.4492,3.4473,3.4277,3.4372,3.4469,3.4841,3.5801,3.7109,3.8672,4.0585,4.0762,4.0781,4.1152,4.1191,4.1348,4.1758,4.1797,4.2129,4.3008,4.3106,4.3282,4.3672,4.3711,4.3711,4.3711,4.3711,4.3711,4.3711,4.3711,4.3711,4.3711,4.3711,4.3711,4.3711,4.3711,4.3711,4.3711,4.3711,4.3711,4.3711,4.3711,4.3711,4.3711,4.3828,4.3867,4.3906,4.4375,4.4551,4.459,4.4881,4.4998,4.5018,0.0,0.0,0.0,0.0,0.0,0.0,0.0,0.0,0.0,0.0,0.0,0.0,0.0,0.0,0.0,0.0,0.0,0.0,0.0,0.0,2.7598,2.8131,2.8675,2.9421,3.0394,3.1075,3.2215,3.3897,3.4954,3.6008,3.695,3.1313,2.903,2.9534,2.6119,2.4513,2.4442,2.4895,2.5332,2.5706,2.5706,0.0,0.0,0.0,0.0,0.0,0.0,0.0,0.0,0.0,0.0,0.0,0.0,0.0,3.0254,3.0254,3.0547,3.0976,3.1367,3.1758,3.23,3.3148,3.2246,3.1773,3.4141,3.3789,3.3379,3.498,3.5605,3.6252,3.7482,3.9122,4.0215,4.0019,4.0644,4.1152,4.1211,4.1191,4.1348,4.1758,4.1797,4.2129,4.3008,4.3106,4.3282,4.3672,4.3711,4.3711,4.3711,4.3711,4.3711,4.3711,4.3711,4.3711,4.3711,4.3711,4.3711,4.3711,4.3711,4.3711,4.3711,4.3711,4.3711,4.3711,4.3711,4.3711,4.373,4.418,4.4355,4.4394,4.4803,4.4959,4.4959,4.4998,4.4998,4.5057,0.0,0.0,0.0,0.0,0.0,0.0,0.0,0.0,0.0,0.0,0.0,0.0,0.0,0.0,0.0,0.0,0.0,0.0,0.0,2.657,2.7344,2.748,2.8751,2.959,2.9907,3.2227,3.4274,3.5942,3.6358,3.5596,3.3734,3.1285,2.9372,2.7936,2.6494,2.5449,2.4855,2.5281,2.5562,2.5706,2.5706,2.5706,0.0,0.0,0.0,0.0,0.0,0.0,0.0,0.0,2.8425,2.9277,2.899,2.9693,3.0566,3.0293,3.0527,3.0918,3.1094,3.1816,3.2711,3.3265,3.3144,3.3414,3.5485,3.5957,3.6155,3.6818,3.7502,3.8242,3.9004,4.0117,4.0898,4.0742,4.0976,4.1191,4.1191,4.1426,4.1719,4.2128,4.2422,4.2852,4.3418,4.3457,4.3535,4.3691,4.3711,4.3711,4.3711,4.3711,4.3711,4.3711,4.3711,4.3711,4.3711,4.3711,4.3711,4.3711,4.3711,4.3711,4.3711,4.3711,4.3867,4.4141,4.4141,4.4277,4.451,4.4686,4.4764,4.4803,4.5254,4.5586,4.582,4.582,4.582,4.5818,0.0,0.0,0.0,0.0,0.0,0.0,0.0,0.0,0.0,0.0,0.0,0.0,0.0,0.0,0.0,0.0,0.0,0.0,2.4281,2.5746,2.6764,2.7202,2.8383,2.9367,3.0146,3.226,3.4352,3.6408,3.5952,3.4555,3.2301,3.0789,2.91,2.7373,2.6942,2.6204,2.5305,2.5581,2.5706,2.5706,2.5854,2.5823,0.0,0.0,0.0,0.0,0.0,0.0,0.0,0.0,2.8151,2.9012,2.9101,2.9746,3.0483,3.043,3.0918,3.1499,3.1499,3.2144,3.2969,3.3636,3.3961,3.4603,3.6462,3.7207,3.7736,3.8556,3.9083,3.9551,4.0019,4.0469,4.0839,4.0957,4.1094,4.123,4.1367,4.1641,4.2012,4.2558,4.2891,4.3263,4.3672,4.3711,4.3711,4.3711,4.3711,4.3711,4.3711,4.3711,4.3711,4.3711,4.3711,4.3711,4.3711,4.3711,4.3769,4.3926,4.3926,4.3926,4.3926,4.4062,4.4297,4.459,4.459,4.4766,4.5018,4.5154,4.5312,4.5428,4.5762,4.6055,4.6308,4.6308,4.6308,4.6308,0.0,0.0,0.0,0.0,0.0,0.0,0.0,0.0,0.0,0.0,0.0,0.0,0.0,0.0,0.0,0.0,0.0,0.0,2.2913,2.4232,2.5756,2.741,2.7377,2.8586,3.13,3.0707,3.1773,3.4658,3.3212,3.2893,3.3529,2.9488,2.7878,2.8338,2.7341,2.6455,2.5706,2.5706,2.5706,2.5757,2.6211,2.612,2.5764,0.0,0.0,0.0,0.0,0.0,0.0,0.0,2.7318,2.793,2.9188,2.9598,2.9774,3.0639,3.1777,3.2773,3.2773,3.2793,3.3125,3.4375,3.4411,3.4684,3.6816,3.701,3.7439,3.9981,4.0195,4.0039,4.043,4.0195,4.0039,4.045,4.0898,4.1348,4.1738,4.1797,4.2129,4.2989,4.3106,4.3263,4.3672,4.3711,4.3711,4.3711,4.3711,4.3711,4.3711,4.3711,4.3711,4.3711,4.3711,4.3711,4.3711,4.3711,4.3945,4.4414,4.4414,4.4414,4.4414,4.4822,4.4998,4.5018,4.5018,4.5018,4.5057,4.5508,4.594,4.6308,4.6308,4.6308,4.6308,4.6308,4.6308,4.6308,0.0,0.0,0.0,0.0,0.0,0.0,0.0,0.0,0.0,0.0,0.0,0.0,0.0,0.0,0.0,0.0,0.0,0.0,2.1759,2.4481,2.585,2.5206,2.7669,2.8713,2.7967,2.8495,2.9454,3.0828,3.2225,3.127,2.8066,2.7744,2.722,2.6495,2.6531,2.622,2.5706,2.5706,2.5893,2.6211,2.6328,2.6484,2.6615,0.0,0.0,0.0,0.0,0.0,0.0,0.0,0.0,0.0,2.8984,2.9531,3.0073,3.0332,3.0913,3.1465,3.1465,3.2773,3.416,3.4254,3.5779,3.7498,3.8418,3.8535,3.8926,4.0625,4.0644,4.0469,4.0898,4.0898,4.0859,4.0957,4.1348,4.1562,4.1406,4.2149,4.2676,4.2637,4.3144,4.3574,4.3691,4.3711,4.3711,4.3711,4.3711,4.3711,4.3711,4.3711,4.3711,4.3711,4.3711,4.3867,4.4199,4.4199,4.4414,4.4822,4.5156,4.5137,4.4822,4.494,4.5174,4.5488,4.5488,4.5644,4.5937,4.6055,4.6191,4.6308,4.6308,4.6308,4.6308,4.6308,4.6308,4.6308,0.0,0.0,0.0,0.0,0.0,0.0,0.0,0.0,2.0605,2.0605,2.0811,2.1015,0.0,0.0,0.0,2.1494,2.185,2.2027,2.1809,2.4462,2.5777,2.5179,2.7684,2.8153,2.6102,2.8061,2.8634,2.7687,2.9729,2.9164,2.6191,2.7324,2.7369,2.6536,2.7466,2.7356,2.6472,2.6303,2.6296,2.6406,2.6562,2.6765,2.7018,0.0,0.0,0.0,0.0,0.0,0.0,0.0,0.0,0.0,2.8795,2.9263,2.9863,3.0737,3.1558,3.232,3.3023,3.445,3.5801,3.6072,3.7381,3.8846,3.9766,3.998,4.0234,4.1035,4.082,4.0645,4.1113,4.1054,4.0976,4.1172,4.1406,4.1602,4.168,4.2324,4.2851,4.2909,4.3398,4.3711,4.3711,4.3711,4.3711,4.3711,4.3711,4.3711,4.3711,4.3711,4.3711,4.3711,4.3887,4.4121,4.4394,4.457,4.4842,4.5293,4.5547,4.5646,4.5506,4.5506,4.5683,4.594,4.594,4.6074,4.6308,4.6308,4.6308,4.6308,4.6308,4.6308,4.6308,4.6308,4.6308,4.6308,0.0,0.0,0.0,0.0,0.0,0.0,0.0,2.082,2.0605,2.0605,2.0605,2.0752,0.0,0.0,0.0,2.1866,2.1542,2.173,2.2705,2.4249,2.549,2.6339,2.722,2.7093,2.5741,2.8607,2.8619,2.5577,2.6553,2.6962,2.6844,2.7654,2.7887,2.7695,2.9209,2.9051,2.7604,2.7109,2.6699,2.6438,2.6836,2.6999,2.7057,2.7526,0.0,0.0,0.0,0.0,0.0,0.0,0.0,0.0,2.873,2.899,2.942,3.148,3.2965,3.4329,3.5896,3.6814,3.7578,3.8789,3.8964,3.9237,4.0859,4.1191,4.1191,4.1191,4.0859,4.0684,4.1113,4.084,4.0723,4.1172,4.1289,4.1562,4.2304,4.248,4.2792,4.3555,4.3691,4.3711,4.3711,4.3711,4.3711,4.3711,4.3711,4.3711,4.3711,4.3711,4.3711,4.3711,4.416,4.4414,4.4453,4.4862,4.5312,4.5744,4.5744,4.5959,4.6308,4.6308,4.6308,4.6308,4.6308,4.6308,4.6308,4.6308,4.6308,4.6308,4.6308,4.6308,4.6308,4.6308,4.6308,4.6308,0.0,0.0,0.0,0.0,0.0,0.0,2.0732,2.0654,2.0605,2.0605,2.0605,2.0752,2.1161,2.1533,0.0,2.1885,2.2109,2.2538,2.3287,2.3999,2.452,2.4711,2.4722,2.5797,2.8091,2.7081,2.665,2.6881,2.6712,2.6509,2.628,2.6629,2.6917,2.7181,2.791,2.7812,2.7109,2.6303,2.6128,2.6438,2.6836,2.6999,2.7057,2.7526,2.7415,0.0,0.0,0.0,0.0,0.0,0.0,0.0,2.9272,2.9662,3.0078,3.0932,3.2085,3.316,3.3551,3.543,3.7441,3.8029,3.9414,4.0722,4.1113,4.1191,4.1191,4.1191,4.1113,4.1074,4.1172,4.1113,4.1191,4.1601,4.1953,4.2207,4.2382,4.2987,4.3379,4.3243,4.3496,4.3711,4.3711,4.3711,4.3711,4.3711,4.3711,4.3711,4.3711,4.3711,4.3711,4.3711,4.416,4.4551,4.4862,4.5312,4.5764,4.6172,4.6172,4.6211,4.6308,4.6308,4.6308,4.6308,4.6308,4.6308,4.6308,4.6308,4.6308,4.6308,4.6308,4.6308,4.6308,4.6308,4.6308,4.6308,0.0,0.0,0.0,0.0,0.0,0.0,0.0,0.0,2.1133,2.0928,2.0889,2.1055,2.1494,2.1552,0.0,0.0,2.2559,2.3094,2.3383,2.4904,2.5874,2.6057,2.5679,2.6184,2.7725,2.6269,2.5959,2.6927,2.5547,2.5008,2.5297,2.5824,2.6394,2.7038,2.7689,2.763,2.6979,2.6518,2.6355,2.6419,2.6621,2.6836,2.7018,2.7266,2.7207,2.7038,2.7246,0.0,0.0,0.0,0.0,0.0,0.0,0.0,3.0112,3.1206,3.1988,3.2867,3.4512,3.625,3.7873,3.916,4.0351,4.1191,4.1191,4.1191,4.1191,4.1191,4.1191,4.1191,4.1191,4.1367,4.1562,4.1758,4.2128,4.248,4.2715,4.3125,4.3419,4.3399,4.3574,4.3711,4.3711,4.3711,4.3711,4.3711,4.3711,4.3711,4.3711,4.3926,4.4043,4.4043,4.4668,4.5117,4.5332,4.5762,4.6094,4.6308,4.6308,4.6308,4.6308,4.6308,4.6308,4.6308,4.6308,4.6308,4.6308,4.6308,4.6308,4.6308,4.6308,4.6308,4.6308,4.6308,4.6308,4.6308,0.0,0.0,0.0,0.0,0.0,0.0,0.0,0.0,0.0,2.1259,2.12,2.1347,2.1748,2.1425,2.1366,0.0,0.0,0.0,2.3719,2.5981,2.7311,2.7245,2.7067,2.6873,2.6649,2.614,2.6215,2.6905,2.4551,2.3872,2.4809,2.5411,2.6167,2.7038,2.7741,2.7637,2.6882,2.6804,2.653,2.6184,2.634,2.6543,2.6771,2.6862,2.6901,2.6953,2.735,2.7565,2.7741,2.808,0.0,0.0,0.0,0.0,3.0009,3.1534,3.214,3.2906,3.5742,3.7207,3.8419,4.0644,4.1191,4.1191,4.1191,4.1191,4.1191,4.1191,4.1191,4.1191,4.1191,4.1543,4.1816,4.1894,4.2246,4.2675,4.3145,4.3204,4.3341,4.3672,4.3711,4.3711,4.3711,4.3711,4.3711,4.3711,4.3711,4.373,4.3828,4.4199,4.4433,4.4512,4.5295,4.5705,4.5705,4.6094,4.6308,4.6308,4.6308,4.6308,4.6308,4.6308,4.6308,4.6308,4.6308,4.6308,4.6308,4.6308,4.6308,4.6308,4.6308,4.6308,4.6308,4.6308,4.6308,4.6308,0.0,0.0,0.0,0.0,0.0,0.0,0.0,0.0,0.0,0.0,2.12,2.121,2.1278,2.1239,2.122,2.1278,2.2106,2.3442,2.5341,0.0,0.0,2.3854,2.4967,2.6131,2.7163,2.6986,2.7451,2.8589,2.5899,2.5195,2.6388,2.5932,2.6167,2.7018,2.7116,2.6914,2.6445,2.6062,2.5632,2.5348,2.6099,2.6179,2.5932,2.6328,2.6477,2.6497,2.6555,2.7057,2.7702,2.7761,2.8275,0.0,0.0,0.0,3.0249,3.0893,3.1851,3.2812,3.3281,3.5589,3.8419,4.0644,4.1191,4.1191,4.1191,4.1191,4.1191,4.1191,4.1191,4.1191,4.1191,4.1543,4.1914,4.2265,4.2715,4.3165,4.3555,4.3613,4.3633,4.3691,4.3711,4.3711,4.3711,4.3711,4.3711,4.3711,4.3711,4.3887,4.4277,4.4355,4.457,4.4901,4.5432,4.5705,4.5705,4.6094,4.6308,4.6308,4.6308,4.6308,4.6308,4.6308,4.6308,4.6308,4.6308,4.6308,4.6308,4.6308,4.6308,4.6308,4.6308,4.6308,4.6308,4.6308,4.6308,4.6308,0.0,0.0,0.0,0.0,0.0,0.0,0.0,0.0,0.0,0.0,0.0,2.1932,2.1932,2.1493,2.12,2.12,2.212,2.36,2.5669,2.4833,2.4472,2.4978,2.4426,2.4972,2.6807,2.6166,2.6071,2.6595,2.539,2.5149,2.5792,2.5724,2.6167,2.6999,2.6765,2.6575,2.636,2.5657,2.5391,2.5449,2.5598,2.6282,2.7077,2.6296,2.6608,2.7376,2.6653,2.679,2.7357,2.7604,2.8236,2.8932,2.9141,0.0,0.0,0.0,3.1094,3.2148,3.4066,3.6406,3.875,4.0703,4.1191,4.1191,4.1191,4.1191,4.1191,4.1191,4.1191,4.1269,4.1504,4.1875,4.2265,4.2715,4.3144,4.3496,4.3672,4.3711,4.3711,4.3711,4.3711,4.3711,4.3711,4.3711,4.3711,4.3711,4.3945,4.418,4.4394,4.4844,4.5217,4.5391,4.5801,4.6035,4.6035,4.6211,4.6308,4.6308,4.6308,4.6308,4.6308,4.6308,4.6308,4.6308,4.6308,4.6308,4.6308,4.6308,4.6308,4.6308,4.6308,4.6308,4.6308,4.6308,4.6308,4.6308,0.0,0.0,0.0,0.0,0.0,0.0,0.0,0.0,0.0,0.0,0.0,2.2509,2.2509,0.0,0.0,0.0,2.2078,2.3306,2.485,2.3691,2.3739,2.5567,2.4275,2.4318,2.6026,2.5242,2.4935,2.5231,2.4764,2.4947,2.5698,2.5922,2.6557,2.7467,2.6966,2.6536,2.6191,2.5669,2.5527,2.5706,2.5852,2.6868,2.8216,2.735,2.7819,2.8803,2.75,2.7305,2.7656,2.7682,2.8177,2.8756,2.8873,2.9342,0.0,0.0,0.0,3.1543,3.4534,3.6367,3.7948,4.0019,4.0625,4.0781,4.1113,4.1191,4.1191,4.1191,4.1269,4.1484,4.1875,4.2187,4.2538,4.3028,4.3437,4.3711,4.3711,4.3711,4.3711,4.3711,4.3711,4.3711,4.3711,4.3711,4.375,4.3867,4.4199,4.4492,4.4707,4.5353,4.5744,4.5861,4.6133,4.6308,4.6308,4.6308,4.6308,4.6308,4.6308,4.6308,4.6308,4.6308,4.6308,4.6308,4.6308,4.6308,4.6308,4.6308,4.6308,4.6308,4.6308,4.6308,4.6308,4.6308,4.6308,4.6308,0.0,0.0,0.0,0.0,0.0,0.0,0.0,0.0,0.0,0.0,0.0,2.2509,2.2509,2.2109,2.168,2.1239,2.1653,2.2156,2.265,2.3576,2.3865,2.3291,2.42,0.0,2.4893,2.483,2.5326,2.6421,2.4694,2.5025,2.7274,2.7035,2.7591,2.8775,2.7982,2.6927,2.5764,2.6172,2.6094,2.5842,2.748,2.8203,2.8457,3.0019,3.0698,3.0586,2.9244,2.9062,2.9285,2.8106,2.7982,2.8398,2.8775,2.8932,2.9127,0.0,0.0,0.0,3.3051,3.3926,3.5053,3.7987,3.9022,3.9629,4.0918,4.1191,4.1191,4.1191,4.1484,4.1894,4.2304,4.2382,4.2538,4.3028,4.3437,4.3711,4.3711,4.3711,4.3711,4.3711,4.3711,4.3711,4.3711,4.3711,4.3887,4.4336,4.4394,4.4746,4.5588,4.5666,4.5881,4.625,4.6289,4.6308,4.6308,4.6308,4.6308,4.6308,4.6308,4.6308,4.6308,4.6308,4.6308,4.6308,4.6308,4.6308,4.6308,4.6308,4.6308,4.6308,4.6308,4.6308,4.6308,4.6308,4.6308,4.6308,0.0,0.0,0.0,0.0,0.0,0.0,0.0,0.0,0.0,0.0,0.0,0.0,0.0,2.2528,2.2216,2.2049,2.1953,2.2081,2.247,2.2892,2.3422,2.4158,2.4575,2.4798,2.4798,2.5515,2.5724,2.541,2.4773,2.5308,2.694,2.6714,2.7012,2.7682,2.7689,2.7585,2.7305,2.6067,2.5793,2.625,2.7435,2.8744,3.0053,3.0644,3.1753,3.275,3.1138,0.0,3.0366,2.9897,2.9481,2.9115,2.8951,2.9101,2.9467,3.0019,3.0312,3.0879,3.2855,3.3519,3.4258,3.6773,3.8104,3.9003,3.9765,4.0585,4.1191,4.1191,4.1523,4.1933,4.2324,4.2656,4.2988,4.3418,4.3613,4.3711,4.3711,4.3711,4.3711,4.3711,4.3711,4.3711,4.3711,4.3711,4.3887,4.4355,4.4648,4.5058,4.5666,4.5937,4.6152,4.6289,4.6308,4.6308,4.6308,4.6308,4.6308,4.6308,4.6308,4.6308,4.6308,4.6308,4.6308,4.6308,4.6308,4.6308,4.6308,4.6308,4.6308,4.6308,4.6308,4.6308,4.6308,4.6308,4.6308,4.6308,0.0,0.0,0.0,2.3101,0.0,2.2956,2.2567,2.2839,2.2956,2.2537,0.0,0.0,0.0,0.0,2.2795,2.305,2.2339,2.2228,2.3021,2.3062,2.3591,2.4745,2.5168,2.5189,2.4808,2.6076,2.6129,2.4798,2.5145,2.5782,2.6711,2.6495,2.6712,2.7246,2.7396,2.7689,2.8001,2.6568,2.6314,2.6966,2.8392,2.9662,3.0776,3.1777,3.2887,3.3711,0.0,0.0,0.0,3.1929,3.1577,3.0952,3.0059,2.959,2.9447,2.9877,3.0078,3.0547,3.2114,3.266,3.3285,3.5485,3.6658,3.7674,3.9101,4.0,4.0664,4.1094,4.1641,4.207,4.2363,4.2891,4.3399,4.3652,4.3711,4.3711,4.3711,4.3711,4.3711,4.3711,4.3711,4.3711,4.3711,4.3848,4.4121,4.457,4.4979,4.543,4.5881,4.6152,4.6308,4.6308,4.6308,4.6308,4.6308,4.6308,4.6308,4.6308,4.6308,4.6308,4.6308,4.6308,4.6308,4.6308,4.6308,4.6308,4.6308,4.6308,4.6308,4.6308,4.6308,4.6308,4.6308,4.6308,4.6308,4.6308,2.3101,2.3101,2.3101,2.3101,2.3101,2.2975,2.2587,2.2839,2.2956,2.2557,0.0,0.0,0.0,0.0,0.0,2.4168,2.2877,2.2651,2.4177,2.4271,2.444,2.483,2.5933,2.6027,2.4904,2.65,2.6565,2.4925,2.5832,2.6416,2.6715,2.6479,2.6842,2.7643,2.7207,2.7246,2.7676,2.7643,2.7676,2.7936,3.0449,3.0976,3.0605,3.3594,3.4238,0.0,3.3539,3.3539,0.0,3.4039,3.4137,3.3766,3.2012,3.0279,2.8971,2.9447,2.9877,3.0293,0.0,0.0,0.0,3.4082,3.4629,3.5547,3.8965,3.9414,3.9492,4.0859,4.1777,4.2343,4.2402,4.3105,4.3711,4.3711,4.3711,4.3711,4.3711,4.3711,4.3711,4.3711,4.3711,4.3711,4.3711,4.4121,4.4551,4.4979,4.541,4.5861,4.6289,4.6308,4.6308,4.6308,4.6308,4.6308,4.6308,4.6308,4.6308,4.6308,4.6308,4.6308,4.6308,4.6308,4.6308,4.6308,4.6308,4.6308,4.6308,4.6308,4.6308,4.6308,4.6308,4.6308,4.6308,4.6308,4.6308,4.6308,2.3101,2.3101,2.3101,2.3101,2.3101,2.3062,2.2956,2.3034,2.3062,0.0,0.0,0.0,2.357,2.3595,2.3989,2.4993,2.4685,2.4839,2.5798,2.5848,2.5904,2.6016,2.7075,2.7341,2.6629,2.7826,2.8241,2.7769,2.6433,2.6352,2.7402,2.608,2.5923,2.6783,2.6934,2.7077,2.7148,2.653,2.6992,2.8255,2.9584,3.0913,3.2305,0.0,0.0,0.0,0.0,3.6467,3.625,0.0,3.5156,3.3184,3.0854,2.9355,2.8627,2.9383,2.9676,2.9936,3.0684,0.0,0.0,0.0,0.0,0.0,3.5781,3.6543,3.7424,3.9355,4.0195,4.0957,4.2187,4.3105,4.3711,4.3711,4.3711,4.3711,4.3711,4.3711,4.3711,4.3711,4.3711,4.3711,4.3711,4.3828,4.4219,4.494,4.5115,4.5527,4.6269,4.6308,4.6308,4.6308,4.6308,4.6308,4.6308,4.6308,4.6308,4.6308,4.6308,4.6308,4.6308,4.6308,4.6308,4.6308,4.6308,4.6308,4.6308,4.6308,4.6308,4.6308,4.6308,4.6308,4.6308,4.6308,4.6308,4.6308,2.3101,2.3101,2.317,2.3357,2.3396,2.3454,2.363,2.3493,2.3454,0.0,0.0,0.0,2.4441,2.575,2.6308,2.5477,2.5892,2.6279,2.6485,2.6935,2.7157,2.7157,2.8442,2.8776,2.7989,2.9473,2.9949,2.9264,2.8198,2.8081,2.8789,2.6773,2.6222,2.6891,2.6591,2.6667,2.696,2.6277,2.6894,2.8437,3.0229,0.0,0.0,3.5075,3.6309,0.0,0.0,0.0,3.6936,3.8223,3.6662,0.0,0.0,3.0385,2.8939,2.9461,2.9715,2.9995,3.0718,3.0913,3.1035,3.1641,0.0,0.0,3.5293,3.6055,3.6992,3.9512,4.0527,4.123,4.2226,4.3105,4.3711,4.3711,4.3711,4.3711,4.3711,4.3711,4.3711,4.3711,4.3711,4.3711,4.3711,4.3887,4.4277,4.4959,4.5174,4.5586,4.6269,4.6308,4.6308,4.6308,4.6308,4.6308,4.6308,4.6308,4.6308,4.6308,4.6308,4.6308,4.6308,4.6308,4.6308,4.6308,4.6308,4.6308,4.6308,4.6308,4.6308,4.6308,4.6308,4.6308,4.6308,4.6308,4.6308,4.6308,0.0,2.317,2.3337,2.3848,2.3937,2.4119,2.4669,2.4341,2.4255,0.0,2.5492,2.6088,2.6763,2.8877,2.9136,2.6289,2.6983,2.7383,2.6977,2.779,2.8321,2.8369,2.9811,3.0182,2.9296,3.1201,3.1504,3.0068,3.0278,3.0408,3.0351,2.8005,2.7149,2.7543,2.6416,2.6283,2.6921,2.6653,2.7357,2.8887,3.1577,3.2613,0.0,0.0,3.6443,3.6094,3.758,3.7424,3.6897,3.9434,3.8224,0.0,0.0,0.0,3.0106,2.9755,3.0053,3.0547,3.0835,3.0918,3.1133,3.187,3.1816,0.0,3.5879,3.6384,3.6949,3.9804,4.1016,4.1601,4.1797,4.2577,4.3183,4.3144,4.334,4.3535,4.3691,4.3711,4.3711,4.3711,4.3711,4.3711,4.3711,4.4121,4.457,4.4979,4.5469,4.594,4.6289,4.6308,4.6308,4.6308,4.6308,4.6308,4.6308,4.6308,4.6308,4.6308,4.6308,4.6308,4.6308,4.6308,4.6308,4.6308,4.6308,4.6308,4.6308,4.6308,4.6308,4.6308,4.6308,4.6308,4.6308,4.6308,4.6308,4.6308,2.3594,2.3672,2.3906,2.4711,2.4859,2.5353,2.6827,2.6055,2.615,2.8455,2.7897,2.8003,2.9884,2.8943,2.8692,2.9967,2.9515,2.9338,2.9779,2.9594,2.9652,3.0089,3.0438,3.0898,3.1551,3.1974,3.206,3.1725,2.9989,2.9576,3.0351,2.8005,2.7149,2.76,2.7339,2.6952,2.6555,2.7194,2.8783,3.0923,3.1508,3.2969,3.4997,3.6934,3.8242,3.9062,3.9394,3.957,3.9552,3.9121,3.8281,3.6916,0.0,0.0,0.0,3.0796,3.1133,3.209,3.1152,3.1133,3.1348,3.1191,3.1616,0.0,3.2543,3.2563,3.3086,3.5075,3.5876,3.6641,3.8047,3.9277,3.9961,3.9648,4.1035,4.2539,4.3555,4.3711,4.3711,4.3711,4.3711,4.3711,4.3711,4.4121,4.457,4.4979,4.5742,4.6211,4.6289,4.6308,4.6308,4.6308,4.6308,4.6308,4.6308,4.6308,4.6308,4.6308,4.6308,4.6308,4.6308,4.6308,4.6308,4.6308,4.6308,4.6308,4.6308,4.6308,4.6308,4.6308,4.6308,4.6308,4.6308,4.6308,4.6308,4.6308,2.4952,2.5536,2.6018,2.6302,2.6904,2.7419,2.7672,2.7508,2.8024,2.9889,3.0967,3.1743,3.2294,3.2133,3.1553,3.0499,3.0989,3.1013,3.0261,3.0453,3.0718,3.0984,3.125,3.1777,3.2616,3.2641,3.2767,3.3058,3.1644,3.1216,3.1682,2.9274,2.8826,2.9987,2.7929,2.7475,2.8275,2.7878,2.8803,3.0703,3.2402,0.0,3.6818,3.8556,3.961,4.0234,4.0449,4.0683,4.0644,3.9336,3.8184,0.0,3.5762,3.4902,3.402,0.0,3.2266,3.2793,3.1289,3.1055,3.1211,3.1211,0.0,0.0,0.0,3.2617,3.3012,3.4977,3.5564,3.6033,3.709,3.7988,3.8574,3.8592,4.0234,4.1562,4.1777,4.291,4.3711,4.3711,4.3711,4.3789,4.4023,4.4258,4.4668,4.5312,4.5937,4.6308,4.6308,4.6308,4.6308,4.6308,4.6308,4.6308,4.6308,4.6308,4.6308,4.6308,4.6308,4.6308,4.6308,4.6308,4.6308,4.6308,4.6308,4.6308,4.6308,4.6308,4.6308,4.6308,4.6308,4.6308,4.6308,4.6308,4.6308,4.6308,2.6437,2.7279,2.7975,2.7885,2.8852,2.9485,2.9054,2.9366,3.0054,3.1244,3.3897,3.5286,3.434,3.5575,3.5016,3.1408,3.2909,3.3206,3.1196,3.1688,3.2089,3.219,3.2204,3.2631,3.3531,3.3266,3.3305,3.3757,3.3063,3.2874,3.3047,3.0904,3.0701,3.1986,2.9134,2.8608,2.9766,2.8822,2.9324,3.0967,3.3711,3.5723,3.7267,3.9337,4.0137,4.0234,4.0937,4.1191,4.0996,3.9648,3.8301,3.7185,3.7248,3.6269,0.0,0.0,0.0,0.0,0.0,0.0,0.0,0.0,0.0,3.1738,0.0,0.0,0.0,3.5231,3.5717,3.5915,3.6267,3.6777,3.7246,3.7439,3.9139,4.0136,3.9277,4.1289,4.291,4.3046,4.3457,4.3789,4.4004,4.4023,4.4512,4.5725,4.5801,4.5957,4.6289,4.6308,4.6308,4.6308,4.6308,4.6308,4.6308,4.6308,4.6308,4.6308,4.6308,4.6308,4.6308,4.6308,4.6308,4.6308,4.6308,4.6308,4.6308,4.6308,4.6308,4.6308,4.6308,4.6308,4.6308,4.6308,4.6308,4.6308,2.7249,2.7277,2.7915,2.8701,2.9306,3.0587,3.3229,3.2656,3.2567,3.4421,3.582,3.6519,3.6217,3.6512,3.6681,3.6449,3.7044,3.6937,3.573,3.4822,3.4552,3.5006,3.3222,3.3147,3.5182,3.3822,3.314,3.319,3.2012,3.1985,3.3093,3.2206,3.1275,3.0382,3.2352,3.1466,2.8627,3.0337,3.25,3.4782,3.5156,3.4749,3.4281,3.7559,3.8827,3.9022,4.0625,4.1191,4.0996,0.0,3.9082,3.8457,0.0,3.6699,3.7773,3.3528,0.0,0.0,0.0,0.0,0.0,0.0,3.2617,3.2797,0.0,0.0,3.1684,3.1577,0.0,3.2726,3.2785,0.0,0.0,3.359,3.5859,3.7441,3.6565,3.834,4.0,4.0762,4.2538,4.3418,4.2695,4.2636,4.3632,4.6055,4.4844,4.4668,4.623,4.6308,4.6308,4.6308,4.6308,4.6308,4.6308,4.6308,4.6308,4.6308,4.6308,4.6308,4.6308,4.6308,4.6308,4.6308,4.6308,4.6308,4.6308,4.6308,4.6308,4.6308,4.6308,4.6308,4.6308,4.6308,4.6308,4.6308,2.9747,3.0409,3.1135,3.0759,3.2,3.3173,3.3539,3.4837,3.5949,3.6452,3.7942,3.8803,3.8393,3.8446,0.0,0.0,0.0,3.8517,0.0,0.0,3.6446,3.6031,3.4803,3.4541,3.5483,3.4237,3.3556,3.3556,3.2717,3.2579,3.3093,3.2424,3.2168,3.2296,3.3055,3.2892,3.2012,3.1949,3.2656,3.3887,3.3887,3.3691,3.389,3.8397,4.0097,4.0195,4.0937,4.1191,4.1113,0.0,3.9336,3.8144,3.8397,3.7793,3.6716,3.5231,3.517,3.5153,3.3301,3.3281,3.3594,3.2769,3.2988,0.0,3.1582,0.0,3.1172,0.0,0.0,0.0,0.0,0.0,0.0,0.0,3.4707,3.5879,3.5019,3.7185,3.9179,4.0059,4.0723,4.1543,4.2695,4.2812,4.3769,4.6133,4.4687,4.4473,4.6211,4.6308,4.6308,4.6308,4.6308,4.6308,4.6308,4.6308,4.6308,4.6308,4.6308,4.6308,4.6308,4.6308,4.6308,4.6308,4.6308,4.6308,4.6308,4.6308,4.6445,4.6638,4.6638,4.6523,4.6308,4.6308,4.6308,4.6308,3.2116,3.2823,3.3269,3.2348,3.385,3.4955,3.4255,3.6484,3.8146,3.7917,3.9409,4.0304,3.9783,4.0388,0.0,0.0,4.14,4.1254,0.0,0.0,3.9007,3.8668,3.6772,0.0,3.6849,3.5205,3.4262,3.4123,3.3721,3.3607,3.376,3.3262,3.3395,3.4051,3.4445,3.4598,3.4537,3.4094,3.4096,3.4391,3.4258,3.4746,3.5898,3.9218,4.0781,4.1191,4.1191,4.1191,4.1133,4.0781,3.9394,3.8086,3.9648,3.8436,3.6484,3.6775,3.6423,3.5625,3.4238,3.4333,3.4525,3.3281,3.3168,3.3051,3.1645,0.0,0.0,0.0,0.0,0.0,0.0,0.0,3.2746,3.2793,0.0,3.488,3.3883,3.5818,3.7693,3.8555,3.8769,3.9785,4.2168,4.1973,4.2754,4.5391,4.3984,4.3965,4.6191,4.6308,4.6308,4.6308,4.6308,4.6308,4.6308,4.6308,4.6308,4.6308,4.6308,4.6308,4.6308,4.6308,4.6308,4.6308,4.6426,4.6443,4.6462,4.6601,4.6836,4.7087,4.7087,4.6914,4.666,4.666,4.666,4.666,3.3828,3.3225,3.2768,3.285,3.3744,3.5029,3.6808,3.7603,3.8204,3.878,3.9822,0.0,0.0,0.0,0.0,0.0,0.0,4.6411,4.5336,0.0,4.2738,4.4278,3.9208,3.7612,0.0,3.7125,3.5182,3.4678,3.4653,3.4917,3.5408,3.5398,3.5031,3.4513,3.7625,3.7207,3.4393,3.7071,3.8281,3.8377,3.793,3.9043,4.0781,3.9257,3.9726,4.1191,4.1191,4.1191,4.0996,3.9687,3.9199,3.8945,3.7793,3.8184,3.8848,3.7637,3.8125,3.8691,3.7029,3.6597,3.6091,3.391,3.3402,3.2953,3.1289,3.1558,3.2027,0.0,0.0,0.0,3.3363,3.373,3.3782,3.2945,3.3887,0.0,0.0,3.3649,3.4583,3.543,3.6955,3.8634,4.041,3.9063,3.9649,4.3496,4.2227,4.2754,4.6133,4.6308,4.6308,4.6308,4.6308,4.6308,4.6308,4.6308,4.6308,4.6308,4.6308,4.6308,4.6308,4.6308,4.6308,4.6328,4.6716,4.6892,4.6911,4.7363,4.7561,4.7581,4.7581,4.7581,4.7561,4.7561,4.7561,4.7561,3.4438,3.4512,3.4472,3.4148,3.4999,3.6192,3.7527,3.8843,3.9998,0.0,4.1708,0.0,0.0,4.4378,4.5215,0.0,0.0,4.6813,4.6075,4.4292,0.0,0.0,0.0,3.8982,0.0,3.8153,3.6346,3.5819,3.5431,3.5531,3.6093,3.5707,3.5448,3.5438,3.8037,3.832,3.6923,3.8249,3.8722,3.8573,3.8436,3.9316,4.0703,4.0429,4.0702,4.1191,4.1191,4.1191,4.1133,4.0683,3.9922,3.9277,3.9745,3.9003,3.8027,3.8437,3.8439,3.8283,3.8026,3.8555,3.8633,3.6191,3.5566,3.4919,3.2339,3.2183,3.2398,0.0,0.0,0.0,0.0,3.3519,3.3555,3.3246,3.3558,3.3516,0.0,3.2887,3.3668,0.0,0.0,0.0,0.0,0.0,4.0645,4.3126,4.3008,4.3848,4.6191,4.6308,4.6308,4.6308,4.6308,4.6308,4.6308,4.6308,4.6308,4.6308,4.6308,4.6308,4.6308,4.6579,4.6697,4.6716,4.7168,4.7363,4.7383,4.7519,4.7776,4.7988,4.7988,4.8187,4.8382,4.7815,4.76,4.76,3.5593,3.6008,3.6096,3.5143,3.6081,3.7336,3.8442,4.0023,4.1443,0.0,4.3126,0.0,4.5623,0.0,4.6803,0.0,4.8369,4.8193,4.7255,4.6175,0.0,4.6642,4.3377,0.0,0.0,4.0576,3.8705,3.8141,3.6949,3.6697,3.7273,3.6672,3.6577,3.6979,3.8832,3.9303,3.8743,3.9699,3.9882,3.9549,3.9687,4.0312,4.1211,4.1504,4.1445,4.123,4.1523,4.1641,4.1641,4.1641,4.1055,4.0508,4.1348,4.0469,3.9259,4.0098,3.9942,3.9493,3.953,4.0117,4.0215,3.7928,3.7379,3.6619,3.3746,3.3516,3.375,3.3031,3.3652,0.0,0.0,3.4593,3.3968,3.4281,3.3929,3.3418,0.0,3.2851,0.0,0.0,0.0,0.0,0.0,0.0,3.9746,4.2872,4.2773,4.3672,4.6172,4.6308,4.6308,4.6308,4.6308,4.6308,4.6308,4.6308,4.6308,4.6308,4.6308,4.6387,4.6521,4.6775,4.6989,4.7165,4.7617,4.7793,4.7835,4.7991,4.8226,4.846,4.846,4.8636,4.8835,4.8265,4.805,4.805,3.7248,3.7663,3.7551,3.5996,3.6986,3.8442,3.9584,4.113,4.2425,0.0,4.4091,4.5231,4.6411,4.7456,4.851,4.959,5.0661,5.0611,4.9019,4.8843,0.0,0.0,4.7255,4.6813,4.7958,0.0,0.0,4.1364,3.9132,3.8354,3.8931,3.8291,3.8341,3.8994,4.0036,4.0258,3.9932,4.1463,4.1801,4.1289,4.168,4.2051,4.2382,4.2421,4.1953,4.1367,4.2128,4.2402,4.2402,4.2402,4.2402,4.2402,4.2402,4.2402,4.2402,4.2402,4.2421,4.2265,4.1504,4.1308,4.0898,3.9179,3.8729,3.8026,3.5469,3.5566,3.6038,3.5605,3.5215,3.5801,0.0,3.6738,3.5039,3.5784,3.4844,3.3883,3.3461,0.0,0.0,0.0,0.0,0.0,0.0,0.0,0.0,0.0,4.1504,4.2285,4.6094,4.6191,4.6191,4.6289,4.6308,4.6308,4.6308,4.6308,4.6308,4.6308,4.6308,4.6501,4.6911,4.6931,4.7207,4.7659,4.8047,4.8242,4.8281,4.8714,4.8913,4.8913,4.8913,4.8913,4.8913,4.8913,4.8913,4.8913,3.7789,3.8278,3.8655,3.8642,3.8655,3.9032,4.0136,4.1381,4.2989,0.0,4.6401,4.7807,4.9807,5.0259,5.0561,5.0837,5.1138,0.0,0.0,0.0,0.0,5.1172,4.8083,4.7205,4.9113,4.4985,0.0,4.2559,3.9936,3.8956,3.9484,3.8467,3.8542,3.9534,4.0199,4.143,4.3005,4.2671,4.2361,4.2089,4.2207,4.2128,4.2031,4.2676,4.2578,4.2109,4.2324,4.2402,4.2402,4.2402,4.2402,4.2402,4.2402,4.2402,4.2402,4.2402,4.2656,4.2891,4.2676,4.2833,4.2715,4.1328,4.0488,3.959,3.7967,3.7988,3.8164,3.7404,3.7969,3.8301,3.7498,0.0,0.0,3.4762,0.0,0.0,0.0,0.0,0.0,3.4258,0.0,0.0,0.0,0.0,0.0,0.0,4.1777,4.3555,4.6172,4.4806,4.4648,4.625,4.6308,4.6308,4.6308,4.6308,4.6308,4.6308,4.6308,4.6501,4.6911,4.7266,4.7637,4.8066,4.8519,4.8714,4.8714,4.8855,4.8913,4.8913,4.8913,4.8913,4.8913,4.8913,4.8913,4.8913,3.9044,3.976,4.0439,4.0753,4.1117,4.1605,4.2194,4.3076,4.4357,4.6386,4.7817,4.9038,5.0083,5.1063,5.1649,5.1649,5.1875,0.0,5.0946,0.0,0.0,5.1331,4.995,4.9775,5.1021,4.7657,0.0,4.4443,4.192,4.0338,3.9685,3.9044,3.9094,3.9722,4.0512,4.1685,4.3091,4.2936,4.2897,4.2958,4.2761,4.2676,0.0,4.3184,4.3203,4.2968,4.2968,4.2968,4.2968,4.2968,4.2968,4.2968,4.2968,4.2968,4.2968,4.2968,4.3164,4.3359,4.3359,4.3516,4.3535,4.2812,4.2246,4.1523,4.0058,3.9921,3.9941,3.9453,3.9473,3.9629,3.9745,3.8084,0.0,0.0,0.0,0.0,0.0,0.0,0.0,0.0,3.4746,0.0,0.0,0.0,0.0,0.0,0.0,4.3048,4.4805,4.4122,4.4473,4.625,4.5937,4.5896,4.6289,4.5937,4.5937,4.6308,4.6484,4.6775,4.7226,4.7656,4.8109,4.8519,4.8796,4.8913,4.8913,4.8913,4.8913,4.8913,4.8913,4.8913,4.8913,4.8913,4.8913,4.8913,4.0626,4.1694,4.2475,4.2324,4.3689,4.4905,4.5131,4.5598,4.6326,4.74,4.8921,4.9782,4.938,5.1046,5.2184,5.2184,5.2636,5.2268,5.0829,5.2109,5.226,5.0804,5.2117,5.2895,5.2895,5.0745,4.851,0.0,4.408,4.187,3.9697,3.9697,3.9697,3.9747,4.075,4.1417,4.1885,4.3075,4.3623,4.368,4.3319,4.3563,4.4103,4.4204,4.4203,4.4223,4.4262,4.4037,4.3711,4.3711,4.3711,4.3711,4.3711,4.3711,4.3711,4.3711,4.3711,4.3711,4.3711,4.3711,4.3711,4.3711,4.3711,4.332,4.1856,4.1523,4.1523,4.1523,4.0586,4.0527,4.293,3.9862,3.6247,0.0,0.0,0.0,0.0,0.0,0.0,0.0,0.0,0.0,0.0,0.0,0.0,0.0,0.0,4.1328,4.3008,4.3535,4.457,4.625,4.5564,4.5467,4.6133,4.5486,4.5506,4.623,4.6677,4.7165,4.7698,4.8047,4.846,4.8913,4.8913,4.8913,4.8913,4.8913,4.8913,4.8913,4.8913,4.8913,4.8913,4.8913,4.8913,4.8913,4.1897,4.3126,4.3915,4.3,4.4593,4.6476,4.7848,4.8149,4.8601,4.9674,5.0904,5.1783,5.2134,5.2536,5.2762,5.2762,5.2862,0.0,0.0,0.0,0.0,5.2468,5.2744,5.2895,5.2895,5.0745,4.851,0.0,4.408,4.187,3.9697,3.9697,3.9697,3.9735,4.0362,4.1272,4.2515,4.501,4.5143,4.369,4.3619,4.466,4.6305,4.682,4.6925,4.6885,4.734,4.5858,4.3711,4.3711,4.3711,4.3711,4.3711,4.3711,4.3711,4.3711,4.3711,4.3711,4.3711,4.3711,4.3711,4.3711,4.3711,4.3633,4.334,4.3262,4.3262,4.3262,4.3086,4.2656,4.1797,3.9784,3.7674,0.0,0.0,0.0,0.0,0.0,0.0,0.0,0.0,0.0,0.0,0.0,0.0,0.0,0.0,0.0,4.2891,4.1582,4.2402,4.6191,4.6152,4.5801,4.5232,4.5779,4.5976,4.5822,4.654,4.7321,4.8105,4.8164,4.846,4.8913,4.8913,4.8913,4.8913,4.8913,4.8913,4.8913,4.8913,4.8913,4.8913,4.8913,4.8913,4.8913,4.3919,4.4532,4.507,4.5121,4.6502,4.8074,4.9414,5.0368,5.0795,5.0452,5.1147,5.1674,5.1607,5.2368,5.2895,5.2895,5.2895,5.2895,5.2895,5.2895,5.2895,5.2895,5.2895,5.3038,5.3314,5.2277,5.0218,4.7114,4.5784,4.3413,4.0124,3.9823,3.9697,3.9798,4.2082,4.3762,4.5062,4.7625,4.8306,4.7684,4.747,4.7451,4.7601,4.7893,4.7258,4.6241,4.6505,4.5633,4.4373,4.4373,4.4373,4.4373,4.4373,4.4373,4.4373,4.4373,4.4373,4.4373,4.4373,4.4373,4.4373,4.4373,4.4373,4.4373,4.4373,4.4373,4.4373,4.4373,4.4373,4.3846,4.2148,4.0215,3.8729,0.0,0.0,0.0,0.0,0.0,0.0,0.0,0.0,0.0,0.0,0.0,0.0,0.0,0.0,0.0,4.2891,4.1504,4.2324,4.6191,4.5857,4.5642,4.5662,4.5642,4.5857,4.6328,4.6973,4.7598,4.8223,4.8437,4.8675,4.8913,4.8913,4.8913,4.8913,4.8913,4.8913,4.8913,4.8913,4.8913,4.8913,4.8913,4.8913,4.8913,4.5999,4.6215,4.6602,4.734,4.8485,4.9656,5.0603,5.2084,5.2561,5.113,5.1348,5.1498,5.113,5.2285,5.3113,5.3239,5.3264,5.3264,5.3264,5.3264,5.3264,5.3264,5.3264,5.3439,5.3884,5.3884,5.2151,0.0,0.0,4.5206,4.119,4.0387,4.03,4.0877,4.408,4.6249,4.7642,4.9702,5.0875,5.1245,5.1051,5.0428,4.9667,4.9795,4.8461,4.6537,4.6639,4.6382,4.5913,4.5443,4.5154,4.4998,4.4998,4.4998,4.4998,4.4998,4.4998,4.4998,4.4998,4.4998,4.4998,4.4998,4.4998,4.4998,4.4998,4.4998,4.4998,4.4998,4.4998,4.4471,4.2734,4.1328,4.0312,3.9961,0.0,0.0,0.0,0.0,0.0,0.0,0.0,0.0,0.0,0.0,0.0,0.0,0.0,0.0,4.2246,4.1641,4.2637,4.5801,4.5213,4.5096,4.5605,4.5467,4.5877,4.6775,4.7422,4.7952,4.8359,4.8734,4.8913,4.8913,4.8913,4.8913,4.8913,4.8913,4.8913,4.8913,4.8913,4.8913,4.8913,4.8913,4.8913,4.8913,4.7682,4.851,4.9088,4.8702,4.9983,5.1264,5.185,5.2904,5.3389,5.2744,5.2711,5.2912,5.3356,5.3532,5.3833,5.4378,5.4446,5.4446,5.4446,5.4446,5.4446,5.4446,5.4446,5.4454,5.4504,5.4522,5.3348,0.0,0.0,4.6351,4.3463,4.1879,4.2231,4.4177,4.5095,4.6748,4.8902,5.0104,5.0709,5.0903,5.1348,5.2552,5.4167,5.4717,5.3466,5.1489,5.1993,5.088,4.8874,4.6848,4.5642,4.4998,4.4998,4.4998,4.4998,4.4998,4.4998,4.4998,4.4998,4.4998,4.4998,4.4998,4.4998,4.4998,4.4998,4.4998,4.4998,4.4998,4.4998,4.4471,4.2734,4.3534,4.3456,4.0391,0.0,0.0,0.0,0.0,4.0801,0.0,0.0,0.0,0.0,3.6443,0.0,0.0,3.7869,0.0,0.0,4.0839,4.2246,4.4512,4.4492,4.4121,4.3419,4.5603,4.6599,4.6367,4.7578,4.8402,4.8855,4.8894,4.8913,4.8913,4.8913,4.8913,4.8913,4.8913,4.8913,4.8913,4.8913,4.8913,4.8913,4.8913,4.8913,4.8913,4.9941,4.9757,4.9941,5.1071,5.1272,5.1816,5.3374,5.3951,5.4152,5.3951,5.3926,5.4002,5.4202,5.4228,5.4328,5.4572,5.4597,5.4597,5.4597,5.4597,5.4597,5.4597,5.4597,5.4748,5.5056,5.5082,5.4135,0.0,0.0,4.7682,4.5271,4.4292,4.4995,4.7205,4.9414,5.0937,5.1965,5.4064,5.518,5.5564,5.5771,5.5763,5.5636,5.5851,5.4562,5.2427,5.132,5.0336,4.9275,4.7054,4.6945,4.7546,4.6213,4.5779,4.5779,4.5779,4.5779,4.5779,4.5779,4.5779,4.5779,4.5779,4.5779,4.5779,4.5779,4.5779,4.5779,4.5779,4.5779,4.5586,4.4883,4.4258,4.3828,4.375,4.2987,0.0,0.0,0.0,0.0,0.0,0.0,0.0,0.0,0.0,0.0,0.0,0.0,0.0,0.0,0.0,4.1406,4.2793,4.459,4.5,4.3887,4.5877,4.695,4.709,4.7851,4.846,4.8913,4.8913,4.8913,4.8913,4.8913,4.8913,4.8913,4.8913,4.8913,4.8913,4.8913,4.8913,4.8913,4.8913,4.8913,4.8913,5.1942,5.1364,5.1348,5.3105,5.2754,5.2846,5.4554,5.4848,5.4898,5.5056,5.5056,5.5006,5.4856,5.4848,5.4898,5.5056,5.5056,5.5056,5.5056,5.5056,5.5056,5.5056,5.5056,5.5257,5.5616,5.5792,5.5297,5.4099,5.2076,5.0167,4.8444,4.7431,4.8124,5.036,5.2846,5.4328,5.5089,5.7223,5.8334,5.871,5.8855,5.8232,5.7169,5.7174,5.5815,5.3661,5.2114,5.1532,5.1219,4.8977,4.9701,5.0925,4.7403,4.6308,4.6308,4.6308,4.6308,4.6308,4.6308,4.6308,4.6308,4.6308,4.6308,4.6308,4.6308,4.6308,4.6308,4.6308,4.6308,4.6308,4.6308,4.5058,4.4376,4.5371,4.4433,4.3905,0.0,4.5236,0.0,0.0,4.4394,4.379,4.3165,4.0703,0.0,0.0,0.0,0.0,0.0,0.0,0.0,4.2519,4.4629,4.5371,4.4569,4.6248,4.7344,4.7796,4.8203,4.8578,4.8913,4.8913,4.8913,4.8913,4.8913,4.8913,4.8913,4.8913,4.8913,4.8913,4.8913,4.8913,4.8913,4.8913,4.8913,4.8913,5.3457,5.3658,5.3833,5.4471,5.4572,5.4748,5.5308,5.5408,5.5566,5.61,5.6175,5.5993,5.5458,5.5408,5.5591,5.6125,5.6175,5.6175,5.6175,5.6175,5.6175,5.6175,5.6175,5.6175,5.6175,5.6728,5.696,5.6935,5.5333,5.4202,5.3557,5.1356,5.1507,5.3658,5.4321,5.581,5.7901,5.8434,5.8685,5.8736,5.9282,5.9483,5.9444,5.9444,5.8089,5.6155,5.6131,5.6111,5.5775,5.3558,5.4296,5.4965,4.8376,4.6308,4.6308,4.6308,4.6308,4.6308,4.6308,4.6308,4.6308,4.6308,4.6308,4.6308,4.6308,4.6308,4.6308,4.6308,4.6308,4.6308,4.6308,4.6289,4.5703,4.4004,4.5156,4.5664,4.3965,4.4121,0.0,4.3243,4.0507,3.9843,4.2813,3.959,0.0,0.0,0.0,0.0,0.0,0.0,0.0,4.4316,4.4394,0.0,4.4998,4.6719,4.7793,4.8203,4.8656,4.8894,4.8913,4.8913,4.8913,4.8913,4.8913,4.8913,4.8913,4.8913,4.8913,4.8913,4.8913,4.8913,4.8913,4.8913,4.8913,4.8913,5.4253,5.4303,5.4479,5.5056,5.5157,5.5333,5.5867,5.5942,5.6018,5.6194,5.6527,5.6677,5.6502,5.615,5.6,5.6194,5.62,5.62,5.62,5.62,5.62,5.62,5.62,5.6376,5.6753,5.6552,5.6828,5.7606,5.5584,5.4697,5.4838,5.4511,5.5146,5.6595,5.7543,5.8127,5.8485,5.9031,5.9257,5.9257,5.9433,5.9483,5.9483,5.9483,5.9076,5.8246,5.6729,5.6211,5.5871,5.3661,5.3374,5.3579,5.147,4.9765,4.8247,4.6728,4.6308,4.6308,4.6308,4.6308,4.6308,4.6308,4.6308,4.6308,4.6308,4.6308,4.6308,4.6308,4.6308,4.6308,4.6308,4.6308,4.6133,4.5566,4.5937,4.6113,4.5547,4.5605,4.5586,4.5312,4.4433,4.4219,4.5176,4.2852,0.0,0.0,0.0,0.0,0.0,0.0,0.0,0.0,4.5037,4.5896,4.5469,4.7168,4.8066,4.8223,4.8675,4.8913,4.8913,4.8913,4.8913,4.8913,4.8913,4.8913,4.8913,4.8913,4.8913,4.8913,4.8913,4.8913,4.8913,4.8913,4.8913,4.8913,5.5157,5.5207,5.5308,5.5641,5.5867,5.61,5.6451,5.6677,5.6846,5.6846,5.7129,5.7355,5.7355,5.7029,5.6846,5.6846,5.6846,5.6846,5.6846,5.6846,5.6846,5.6846,5.6846,5.7004,5.733,5.7204,5.7481,5.8183,5.7016,5.6513,5.6646,5.7198,5.7725,5.8252,5.9106,5.9307,5.9012,5.9357,5.9483,5.9483,5.9483,5.9483,5.9483,5.9483,5.9633,5.9584,5.8021,5.7693,5.7805,5.5993,5.5506,5.5505,5.4464,5.3189,5.1636,4.9425,4.8929,4.884,4.7812,4.7554,4.7338,4.6507,4.6308,4.6308,4.6308,4.6308,4.6308,4.6308,4.6308,4.6308,4.6308,4.6308,4.6308,4.6308,4.6308,4.6308,4.6308,4.6308,4.5996,4.5176,4.5234,4.5254,0.0,4.4004,4.3359,0.0,0.0,0.0,0.0,0.0,4.3554,4.4336,4.6191,4.6992,4.6621,4.7676,4.8281,4.848,4.8753,4.8913,4.8913,4.8913,4.8913,4.8913,4.8913,4.8913,4.8913,4.8913,4.8913,4.8913,4.8913,4.8913,4.8913,4.8913,4.8913,4.8913,5.61,5.6226,5.6251,5.6251,5.6702,5.706,5.706,5.7531,5.7901,5.7901,5.7926,5.7951,5.7951,5.7976,5.8001,5.8001,5.7951,5.7901,5.7901,5.7901,5.7901,5.7901,5.7901,5.7926,5.7951,5.8409,5.866,5.871,5.9232,5.9257,5.8761,5.9282,5.9232,5.8786,5.9282,5.9483,5.9483,5.9483,5.9508,5.9558,5.9558,5.9583,5.9608,5.9608,5.9935,6.0292,5.9784,6.0306,6.1034,5.9979,5.996,5.9908,5.7364,5.6558,5.6077,5.3437,5.305,5.2899,5.0358,4.9679,4.9209,4.7133,4.6518,4.6387,4.6348,4.6348,4.6328,4.6308,4.6308,4.6308,4.6308,4.6308,4.6308,4.6308,4.6308,4.6308,4.6308,4.6308,4.5547,4.3556,4.3652,4.373,4.336,4.3652,4.4512,4.6055,4.654,4.6794,4.6814,4.4178,4.4219,4.7542,4.764,4.7855,4.8242,4.8262,4.848,4.8913,4.8913,4.8913,4.8913,4.8913,4.8913,4.8913,4.8913,4.8913,4.8913,4.8913,4.8913,4.8913,4.8913,4.8913,4.8913,4.8913,4.8913,4.8913,5.6194,5.6527,5.6809,5.6809,5.7305,5.77,5.77,5.7801,5.7901,5.7901,5.8278,5.8504,5.8497,5.8874,5.9106,5.9106,5.8378,5.7901,5.7901,5.7901,5.7901,5.7901,5.7901,5.8102,5.8485,5.8234,5.8284,5.871,5.9232,5.9433,5.9307,5.9433,5.9433,5.9307,5.9433,5.9483,5.9483,5.9483,5.9734,6.0091,6.0091,6.0387,6.0808,6.0808,6.0884,6.0984,6.0858,6.0984,6.116,6.0884,6.0884,6.086,6.0214,6.0302,5.9281,5.2404,5.0677,5.0911,5.0355,5.0457,5.0621,5.0078,4.8625,4.7187,4.6833,4.6755,4.6677,4.6367,4.6308,4.6308,4.6308,4.6308,4.6308,4.6308,4.6308,4.6308,4.6308,4.6308,4.6113,4.5605,4.5625,4.5644,4.5547,4.5625,4.5449,4.4883,4.5213,4.5603,4.5957,4.5605,4.6211,4.8008,4.8066,4.8284,4.8714,4.8734,4.8773,4.8913,4.8913,4.8913,4.8913,4.8913,4.8913,4.8913,4.8913,4.8913,4.8913,4.8913,4.8913,4.8913,4.8913,4.8913,4.8913,4.8913,4.8913,4.8913,5.6922,5.7204,5.7405,5.7405,5.7901,5.8271,5.8278,5.8478,5.8629,5.8629,5.8861,5.9081,5.9075,5.9326,5.9483,5.9483,5.8956,5.8629,5.8629,5.8629,5.8629,5.8629,5.8629,5.878,5.9056,5.878,5.878,5.9081,5.9357,5.9483,5.9483,5.9483,5.9633,5.9885,5.9885,6.001,6.0281,6.0281,6.0457,6.0713,6.0713,6.0914,6.121,6.121,6.1361,6.1517,6.1285,6.1537,6.1868,6.1386,6.1361,6.1517,6.1285,6.1411,6.0549,5.5029,5.3677,5.3757,5.2559,5.1637,5.0761,4.9748,4.8546,4.7519,4.7285,4.7226,4.7109,4.6658,4.656,4.6523,4.6328,4.6308,4.6308,4.6308,4.6308,4.6308,4.6308,4.6308,4.6308,4.6308,4.6308,4.6367,4.654,4.656,4.6387,4.5898,4.625,4.656,4.6816,4.7268,4.7815,4.8499,4.8519,4.8636,4.8913,4.8913,4.8913,4.8913,4.8913,4.8913,4.8913,4.8913,4.8913,4.8913,4.8913,4.8913,4.8913,4.8913,4.8913,4.8913,4.8913,4.8913,4.8913,4.8913,4.8913,4.8913,5.7801,5.7976,5.8027,5.8027,5.8472,5.8824,5.8811,5.9207,5.9483,5.9483,5.9483,5.9483,5.9483,5.9483,5.9483,5.9483,5.9483,5.9483,5.9483,5.9483,5.9483,5.9483,5.9483,5.9483,5.9483,5.9483,5.9483,5.9483,5.9583,5.9608,5.9608,5.9709,6.001,6.0442,6.0442,6.0713,6.121,6.121,6.126,6.1336,6.1336,6.1386,6.1461,6.1461,6.1718,6.2069,6.1592,6.2044,6.2676,6.1743,6.1743,6.2044,6.1592,6.1461,6.1076,5.9174,5.8642,5.8105,5.5706,5.3382,5.1124,4.8882,4.8047,4.7776,4.7718,4.7698,4.7558,4.7087,4.7009,4.6892,4.6562,4.6504,4.6426,4.623,4.6367,4.6426,4.623,4.6367,4.6504,4.6504,4.6504,4.6641,4.697,4.7009,4.7207,4.7659,4.8008,4.8242,4.8301,4.8675,4.8913,4.8913,4.8913,4.8913,4.8913,4.8913,4.8913,4.8913,4.8913,4.8913,4.8913,4.8913,4.8913,4.8913,4.8913,4.8913,4.8913,4.8913,4.8913,4.8913,4.8913,4.8913,4.8913,4.8913,4.8913,4.8913,5.7876,5.8259,5.8585,5.8585,5.9031,5.9382,5.9382,5.9433,5.9483,5.9483,5.9483,5.9483,5.9483,5.9483,5.9483,5.9483,5.9483,5.9483,5.9483,5.9483,5.9483,5.9483,5.9483,5.9483,5.9483,5.9483,5.9483,5.9483,5.994,6.0166,6.0191,6.0688,6.0984,6.1059,6.1059,6.111,6.121,6.121,6.1441,6.1868,6.1868,6.2144,6.2551,6.2551,6.2601,6.2676,6.2576,6.2651,6.2756,6.2601,6.2601,6.2676,6.2576,6.2551,6.249,6.2139,6.067,5.9006,5.8257,5.6604,5.4566,5.2223,5.0146,4.8578,4.8203,4.8105,4.7988,4.7581,4.748,4.7483,4.7425,4.7405,4.7053,4.5979,4.6702,4.7034,4.594,4.6721,4.7405,4.7405,4.7405,4.7425,4.7503,4.748,4.7656,4.8086,4.8164,4.8359,4.8753,4.8874,4.8913,4.8913,4.8913,4.8913,4.8913,4.8913,4.8913,4.8913,4.8913,4.8913,4.8913,4.8913,4.8913,4.8913,4.8913,4.8913,4.8913,4.8913,4.8913,4.8913,4.8913,4.8913,4.8913,4.8913,4.8913,4.8913,5.8704,5.8956,5.9131,5.9131,5.9332,5.9483,5.9483,5.9483,5.9483,5.9483,5.9483,5.9483,5.9483,5.9483,5.9608,5.991,5.9935,6.006,6.0406,6.0111,6.0085,6.0406,6.0431,6.0431,6.0431,6.0431,6.0431,6.0431,6.0663,6.0788,6.0788,6.1085,6.1361,6.1617,6.1617,6.1793,6.2069,6.2069,6.2199,6.2425,6.2425,6.2576,6.2802,6.2802,6.2802,6.2802,6.2802,6.2802,6.2802,6.2802,6.2802,6.2802,6.2802,6.2802,6.2802,6.2802,6.0236,5.713,5.5673,5.4675,5.3459,5.11,5.0644,5.0398,4.8915,4.8578,4.846,4.8008,4.791,4.7851,4.764,4.76,4.7405,4.6819,4.721,4.7386,4.6799,4.7229,4.76,4.76,4.76,4.7698,4.7891,4.791,4.8086,4.8558,4.8578,4.8675,4.8894,4.8913,4.8913,4.8913,4.8913,4.8913,4.8913,4.8913,4.8913,4.8913,4.8913,4.8913,4.8913,4.8913,4.8913,4.8913,4.8913,4.8913,4.8913,4.8913,4.8913,4.8913,4.8913,4.8913,4.8913,4.8913,4.8913,4.8913,5.9408,5.9483,5.9483,5.9483,5.9483,5.9483,5.9483,5.9483,5.9483,5.9483,5.9608,5.9684,5.9684,5.9809,6.006,6.0468,6.0512,6.0763,6.1361,6.0964,6.0864,6.1185,6.121,6.121,6.121,6.121,6.121,6.121,6.1316,6.1386,6.1411,6.1492,6.1793,6.2195,6.2195,6.24,6.2802,6.2802,6.2802,6.2802,6.2802,6.2802,6.2802,6.2802,6.2802,6.2802,6.2802,6.2802,6.2802,6.2802,6.2802,6.2802,6.2802,6.2802,6.2802,6.2802,5.9859,5.6117,5.3837,5.2813,5.1825,4.9495,5.0254,5.11,4.9308,4.8913,4.8815,4.8441,4.8359,4.8262,4.7952,4.7894,4.7796,4.748,4.7698,4.7796,4.748,4.7718,4.7894,4.7894,4.7894,4.803,4.832,4.8359,4.8519,4.8874,4.8913,4.8913,4.8913,4.8913,4.8913,4.8913,4.8913,4.8913,4.8913,4.8913,4.8913,4.8913,4.8913,4.8913,4.8913,4.8913,4.8913,4.8913,4.8913,4.8913,4.8913,4.8913,4.8913,4.8913,4.8913,4.8913,4.8913,4.8913,4.8913,4.8913,5.9483,5.9483,5.9483,5.9483,5.9483,5.9483,5.9483,5.9483,5.9483,5.9483,5.9935,6.0242,6.0242,6.0738,6.1085,6.1135,6.1135,6.1341,6.1918,6.1893,6.1667,6.121,6.121,6.121,6.121,6.121,6.121,6.121,6.1692,6.1943,6.1943,6.245,6.2701,6.2752,6.2752,6.2777,6.2802,6.2802,6.2802,6.2802,6.2802,6.2802,6.2802,6.2802,6.2802,6.2802,6.2802,6.2802,6.2802,6.2802,6.2802,6.2802,6.2802,6.2802,6.2802,6.2802,6.1035,5.8545,5.627,5.4058,5.1825,4.9495,4.9032,4.9101,4.894,4.8913,4.8894,4.8855,4.8855,4.8855,4.8815,4.8815,4.8402,4.7146,4.7988,4.8363,4.7126,4.8008,4.8815,4.8815,4.8815,4.8815,4.8855,4.8855,4.8874,4.8913,4.8913,4.8913,4.8913,4.8913,4.8913,4.8913,4.8913,4.8913,4.8913,4.8913,4.8913,4.8913,4.8913,4.8913,4.8913,4.8913,4.8913,4.8913,4.8913,4.8913,4.8913,4.8913,4.8913,4.8913,4.8913,4.8913,4.8913,4.8913,4.8913,4.8913,5.9483,5.9483,5.9483,5.9483,5.9483,5.9608,5.996,6.001,6.0136,6.0507,6.0713,6.0864,6.0864,6.104,6.1336,6.1667,6.1692,6.1918,6.245,6.2501,6.24,6.2199,6.2174,6.2174,6.2174,6.2174,6.2174,6.2174,6.24,6.2501,6.2501,6.2701,6.2802,6.2802,6.2802,6.2802,6.2802,6.2802,6.2802,6.2802,6.2802,6.2802,6.2802,6.2802,6.2802,6.2802,6.2802,6.2802,6.2802,6.2802,6.2802,6.2802,6.2802,6.2802,6.2802,6.2802,6.1139,5.9117,5.8247,5.6334,5.3659,4.9842,4.9979,5.0689,4.9239,4.8913,4.8913,4.8913,4.8913,4.8913,4.8913,4.8913,4.8737,4.8226,4.8558,4.8714,4.8206,4.8578,4.8913,4.8913,4.8913,4.8913,4.8913,4.8913,4.8913,4.8913,4.8913,4.8913,4.8913,4.8913,4.8913,4.8913,4.8913,4.8913,4.8913,4.8913,4.8913,4.8913,4.8913,4.8913,4.8913,4.8913,4.8913,4.8913,4.8913,4.8913,4.8913,4.8913,4.8913,4.8913,4.8913,4.8913,4.8913,4.8913,4.8913,4.8913,5.9985,6.0035,6.0035,6.0035,6.0035,6.0161,6.0537,6.0588,6.0738,6.116,6.1361,6.1461,6.1461,6.1592,6.1843,6.222,6.225,6.24,6.2777,6.2802,6.2802,6.2802,6.2802,6.2802,6.2802,6.2802,6.2802,6.2802,6.2802,6.2802,6.2802,6.2802,6.2802,6.2802,6.2802,6.2802,6.2802,6.2802,6.2802,6.2802,6.2802,6.2802,6.2802,6.2802,6.2802,6.2802,6.2802,6.2802,6.2802,6.2802,6.2802,6.2802,6.2802,6.2802,6.2802,6.2802,6.166,6.0236,5.9496,5.8162,5.5835,5.1168,5.0666,5.0873,4.9285,4.8913,4.8913,4.8913,4.8913,4.8913,4.8913,4.8913,4.8913,4.8913,4.8913,4.8913,4.8913,4.8913,4.8913,4.8913,4.8913,4.8913,4.8913,4.8913,4.8913,4.8913,4.8913,4.8913,4.8913,4.8913,4.8913,4.8913,4.8913,4.8913,4.8913,4.8913,4.8913,4.8913,4.8913,4.8913,4.8913,4.8913,4.8913,4.8913,4.8913,4.8913,4.8913,4.8913,4.8913,4.8913,4.8913,4.8913,4.8913,4.8913,4.8913,4.8913,6.1085,6.121,6.121,6.121,6.121,6.121,6.121,6.121,6.121,6.121,6.1667,6.2019,6.2019,6.2476,6.2802,6.2802,6.2802,6.2802,6.2802,6.2802,6.2802,6.2802,6.2802,6.2802,6.2802,6.2802,6.2802,6.2802,6.2802,6.2802,6.2802,6.2802,6.2802,6.2802,6.2802,6.2802,6.2802,6.2802,6.2802,6.2802,6.2802,6.2802,6.2802,6.2802,6.2802,6.2802,6.2802,6.2802,6.2802,6.2802,6.2802,6.2802,6.2802,6.2802,6.2802,6.2802,6.2802,6.2286,5.9961,5.9307,5.8181,5.3571,5.0689,4.894,4.8917,4.8917,4.8917,4.8913,4.8913,4.8913,4.8913,4.8913,4.8913,4.8913,4.8913,4.8913,4.8913,4.8913,4.8913,4.8913,4.8913,4.8913,4.8913,4.8913,4.8913,4.8913,4.8913,4.8913,4.8913,4.8913,4.8913,4.8913,4.8913,4.8913,4.8913,4.8913,4.8913,4.8913,4.8913,4.8913,4.8913,4.8913,4.8913,4.8913,4.8913,4.8913,4.8913,4.8913,4.8913,4.8913,4.8913,4.8913,4.8913,4.8913,4.8913,4.8913,6.116,6.121,6.121,6.121,6.121,6.1336,6.1692,6.1768,6.1893,6.2275,6.245,6.2551,6.2551,6.2701,6.2802,6.2802,6.2802,6.2802,6.2802,6.2802,6.2802,6.2802,6.2802,6.2802,6.2802,6.2802,6.2802,6.2802,6.2802,6.2802,6.2802,6.2802,6.2802,6.2802,6.2802,6.2802,6.2802,6.2802,6.2802,6.2802,6.2802,6.2802,6.2802,6.2802,6.2802,6.2802,6.2802,6.2802,6.2802,6.2802,6.2802,6.2802,6.2802,6.2802,6.2802,6.2802,6.2802,6.2659,6.1952,6.0549,5.8587,5.5617,5.4301,5.3327,5.1712,5.1372,5.0894,4.9239,4.8913,4.8913,4.8913,4.8913,4.8913,4.8913,4.8913,4.8913,4.8913,4.8913,4.8913,4.8913,4.8913,4.8913,4.8913,4.8913,4.8913,4.8913,4.8913,4.8913,4.8913,4.8913,4.8913,4.8913,4.8913,4.8913,4.8913,4.8913,4.8913,4.8913,4.8913,4.8913,4.8913,4.8913,4.8913,4.8913,4.8913,4.8913,4.8913,4.8913,4.8913,4.8913,4.8913,4.8913,4.8913,4.8913,4.8913,4.8913,6.1793,6.1843,6.1843,6.1843,6.1843,6.1943,6.227,6.2325,6.2425,6.2777,6.2802,6.2802,6.2802,6.2802,6.2802,6.2802,6.2802,6.2802,6.2802,6.2802,6.2802,6.2802,6.2802,6.2802,6.2802,6.2802,6.2802,6.2802,6.2802,6.2802,6.2802,6.2802,6.2802,6.2802,6.2802,6.2802,6.2802,6.2802,6.2802,6.2802,6.2802,6.2802,6.2802,6.2802,6.2802,6.2802,6.2802,6.2802,6.2802,6.2802,6.2802,6.2802,6.2802,6.2802,6.2802,6.2802,6.2802,6.2802,6.2802,6.1763,6.0341,5.8971,5.722,5.5224,5.2925,5.2409,5.1712,4.938,4.8913,4.8913,4.8913,4.8913,4.8913,4.8913,4.8913,4.8913,4.8913,4.8913,4.8913,4.8913,4.8913,4.8913,4.8913,4.8913,4.8913,4.8913,4.8913,4.8913,4.8913,4.8913,4.8913,4.8913,4.8913,4.8913,4.8913,4.8913,4.8913,4.8913,4.8913,4.8913,4.8913,4.8913,4.8913,4.8913,4.8913,4.8913,4.8913,4.8913,4.8913,4.8913,4.8913,4.8913,4.8913,4.8913,4.8913,4.8913,6.2701,6.2802,6.2802,6.2802,6.2802,6.2802,6.2802,6.2802,6.2802,6.2802,6.2802,6.2802,6.2802,6.2802,6.2802,6.2802,6.2802,6.2802,6.2802,6.2802,6.2802,6.2802,6.2802,6.2802,6.2802,6.2802,6.2802,6.2802,6.2802,6.2802,6.2802,6.2802,6.2802,6.2802,6.2802,6.2802,6.2802,6.2802,6.2802,6.2802,6.2802,6.2802,6.2802,6.2802,6.2802,6.2802,6.2802,6.2802,6.2802,6.2802,6.2802,6.2802,6.2802,6.2802,6.2802,6.2802,6.2802,6.2802,6.2802,6.2802,6.2802,6.2802,5.9628,5.5901,5.3549,5.3036,5.2276,4.9748,4.9216,4.9147,4.894,4.8913,4.8913,4.8913,4.8913,4.8913,4.8913,4.8913,4.8913,4.8913,4.8913,4.8913,4.8913,4.8913,4.8913,4.8913,4.8913,4.8913,4.8913,4.8913,4.8913,4.8913,4.8913,4.8913,4.8913,4.8913,4.8913,4.8913,4.8913,4.8913,4.8913,4.8913,4.8913,4.8913,4.8913,4.8913,4.8913,4.8913,4.8913,4.8913,4.8913,4.8913,4.8913,4.8913,4.8913,4.8913,6.2777,6.2802,6.2802,6.2802,6.2802,6.2802,6.2802,6.2802,6.2802,6.2802,6.2802,6.2802,6.2802,6.2802,6.2802,6.2802,6.2802,6.2802,6.2802,6.2802,6.2802,6.2802,6.2802,6.2802,6.2802,6.2802,6.2802,6.2802,6.2802,6.2802,6.2802,6.2802,6.2802,6.2802,6.2802,6.2802,6.2802,6.2802,6.2802,6.2802,6.2802,6.2802,6.2802,6.2802,6.2802,6.2802,6.2802,6.2802,6.2802,6.2802,6.2802,6.2802,6.2802,6.2802,6.2802,6.2802,6.2802,6.2802,6.2802,6.2802,6.2802,6.2802,6.2059,6.0678,5.8354,5.7797,5.6614,5.25,5.1622,5.1077,4.9239,4.8913,4.8913,4.8913,4.8913,4.8913,4.8913,4.8913,4.8913,4.8913,4.8913,4.8913,4.8913,4.8913,4.8913,4.8913,4.8913,4.8913,4.8913,4.8913,4.8913,4.8913,4.8913,4.8913,4.8913,4.8913,4.8913,4.8913,4.8913,4.8913,4.8913,4.8913,4.8913,4.8913,4.8913,4.8913,4.8913,4.8913,4.8913,4.8913,4.8913,4.8913,4.8913,4.8913,4.8913,4.8913,6.2802,6.2802,6.2802,6.2802,6.2802,6.2802,6.2802,6.2802,6.2802,6.2802,6.2802,6.2802,6.2802,6.2802,6.2802,6.2802,6.2802,6.2802,6.2802,6.2802,6.2802,6.2802,6.2802,6.2802,6.2802,6.2802,6.2802,6.2802,6.2802,6.2802,6.2802,6.2802,6.2802,6.2802,6.2802,6.2802,6.2802,6.2802,6.2802,6.2802,6.2802,6.2802,6.2802,6.2802,6.2802,6.2802,6.2802,6.2802,6.2802,6.2802,6.2802,6.2802,6.2802,6.2802,6.2802,6.2802,6.2802,6.2802,6.2802,6.2802,6.2802,6.2802,6.2802,6.2203,5.9835,5.9307,5.7989,5.3349,5.2409,5.1667,4.9312,4.8913,4.8913,4.8913,4.8913,4.8913,4.8913,4.8913,4.8913,4.8913,4.8913,4.8913,4.8913,4.8913,4.8913,4.8913,4.8913,4.8913,4.8913,4.8913,4.8913,4.8913,4.8913,4.8913,4.8913,4.8913,4.8913,4.8913,4.8913,4.8913,4.8913,4.8913,4.8913,4.8913,4.8913,4.8913,4.8913,4.8913,4.8913,4.8913,4.8913,4.8913,4.8913,4.8913,4.8913,4.8913,6.2802,6.2802,6.2802,6.2802,6.2802,6.2802,6.2802,6.2802,6.2802,6.2802,6.2802,6.2802,6.2802,6.2802,6.2802,6.2802,6.2802,6.2802,6.2802,6.2802,6.2802,6.2802,6.2802,6.2802,6.2802,6.2802,6.2802,6.2802,6.2802,6.2802,6.2802,6.2802,6.2802,6.2802,6.2802,6.2802,6.2802,6.2802,6.2802,6.2802,6.2802,6.2802,6.2802,6.2802,6.2802,6.2802,6.2802,6.2802,6.2802,6.2802,6.2802,6.2802,6.2802,6.2802,6.2802,6.2802,6.2802,6.2802,6.2802,6.2802,6.2802,6.2802,6.2802,6.2286,6.0341,5.9898,5.8715,5.4456,5.326,5.2297,4.9934,4.917,4.8913,4.8913,4.8913,4.8913,4.8913,4.8913,4.8913,4.8913,4.8913,4.8913,4.8913,4.8913,4.8913,4.8913,4.8913,4.8913,4.8913,4.8913,4.8913,4.8913,4.8913,4.8913,4.8913,4.8913,4.8913,4.8913,4.8913,4.8913,4.8913,4.8913,4.8913,4.8913,4.8913,4.8913,4.8913,4.8913,4.8913,4.8913,4.8913,4.8913,4.8913,4.8913,4.8913,4.8913,6.2802,6.2802,6.2802,6.2802,6.2802,6.2802,6.2802,6.2802,6.2802,6.2802,6.2802,6.2802,6.2802,6.2802,6.2802,6.2802,6.2802,6.2802,6.2802,6.2802,6.2802,6.2802,6.2802,6.2802,6.2802,6.2802,6.2802,6.2802,6.2802,6.2802,6.2802,6.2802,6.2802,6.2802,6.2802,6.2802,6.2802,6.2802,6.2802,6.2802,6.2802,6.2802,6.2802,6.2802,6.2802,6.2802,6.2802,6.2802,6.2802,6.2802,6.2802,6.2802,6.2802,6.2802,6.2802,6.2802,6.2802,6.2802,6.2802,6.2802,6.2802,6.2802,6.2802,6.272,6.2409,6.2327,6.1577,5.8926,5.6788,5.4698,5.2364,5.0276,4.8913,4.8913,4.8913,4.8913,4.8913,4.8913,4.8913,4.8913,4.8913,4.8913,4.8913,4.8913,4.8913,4.8913,4.8913,4.8913,4.8913,4.8913,4.8913,4.8913,4.8913,4.8913,4.8913,4.8913,4.8913,4.8913,4.8913,4.8913,4.8913,4.8913,4.8913,4.8913,4.8913,4.8913,4.8913,4.8913,4.8913,4.8913,4.8913,4.8913,4.8913,4.8913,4.8913,4.8913,6.2802,6.2802,6.2802,6.2802,6.2802,6.2802,6.2802,6.2802,6.2802,6.2802,6.2802,6.2802,6.2802,6.2802,6.2802,6.2802,6.2802,6.2802,6.2802,6.2802,6.2802,6.2802,6.2802,6.2802,6.2802,6.2802,6.2802,6.2802,6.2802,6.2802,6.2802,6.2802,6.2802,6.2802,6.2802,6.2802,6.2802,6.2802,6.2802,6.2802,6.2802,6.2802,6.2802,6.2802,6.2802,6.2802,6.2802,6.2802,6.2802,6.2802,6.2802,6.2802,6.2802,6.2802,6.2802,6.2802,6.2802,6.2802,6.2802,6.2802,6.2802,6.2802,6.2802,6.2802,6.2802,6.2802,6.1787,5.8141,5.6616,5.4785,5.1123,4.961,4.8913,4.8913,4.8913,4.8913,4.8913,4.8913,4.8913,4.8913,4.8913,4.8913,4.8913,4.8913,4.8913,4.8913,4.8913,4.8913,4.8913,4.8913,4.8913,4.8913,4.8913,4.8913,4.8913,4.8913,4.8913,4.8913,4.8913,4.8913,4.8913,4.8913,4.8913,4.8913,4.8913,4.8913,4.8913,4.8913,4.8913,4.8913,4.8913,4.8913,4.8913,4.8913,4.8913,4.8913]}]]